[[{"header":{"parameterUnit":"m.s-1","parameterCategory":1,"la1":30.6,"la2":29.2853,"lo1":-89.7004,"lo2":-87.6739,"dy":0.0162,"dx":0.0183,"nx":112,"ny":82,"refTime":"2023-03-20T00:00:00:Z","depth":0,"parameterNumber":2,"parameterNumberName":"U-component_of_WINDS"},"data":[0.0,0.0,0.0,0.0,0.0,0.0,0.0,0.0,0.0,0.0,0.0,0.0,0.0,0.0,0.0,0.0,0.0,0.0,0.0,0.0,0.0,0.0,0.0,0.0,0.0,0.0,0.0,0.0,0.0,0.0,0.0,0.0,0.0,0.0,0.0,0.0,0.0,0.0,0.0,0.0,0.0,0.0,0.0,0.0,0.0,0.0,0.0,0.0,0.0,0.0,0.0,0.0,0.0,0.0,0.0,0.0,0.0,0.0,0.0,0.0,0.0,0.0,0.0,0.0,0.0,0.0,0.0,0.0,0.0,0.0,0.0,0.0,0.0,0.0,0.0,0.0,0.0,0.0,0.0,0.0,0.0,0.0,0.0,0.0,0.0,0.0,0.0,0.0,0.0,0.0,-2.8698,-2.9693,-3.184,-3.3033,-3.2686,-3.2988,-3.263,-3.1254,0.0,0.0,0.0,0.0,0.0,0.0,0.0,0.0,0.0,0.0,0.0,0.0,0.0,0.0,0.0,0.0,0.0,0.0,0.0,0.0,0.0,0.0,0.0,0.0,0.0,0.0,0.0,0.0,0.0,0.0,0.0,0.0,0.0,0.0,0.0,0.0,0.0,0.0,0.0,0.0,0.0,0.0,0.0,0.0,0.0,0.0,0.0,0.0,0.0,0.0,0.0,0.0,0.0,0.0,0.0,0.0,0.0,0.0,0.0,0.0,0.0,0.0,0.0,0.0,0.0,0.0,0.0,0.0,0.0,0.0,0.0,0.0,0.0,0.0,0.0,0.0,0.0,0.0,0.0,0.0,0.0,0.0,0.0,0.0,0.0,0.0,0.0,0.0,0.0,0.0,0.0,0.0,0.0,0.0,0.0,0.0,0.0,0.0,0.0,0.0,0.0,0.0,0.0,0.0,-2.9162,-3.1455,-3.31,-3.3963,-3.3751,-3.314,-3.2417,-3.1591,0.0,0.0,0.0,0.0,0.0,0.0,0.0,0.0,0.0,0.0,0.0,0.0,0.0,0.0,0.0,0.0,0.0,0.0,0.0,0.0,0.0,0.0,0.0,0.0,0.0,0.0,0.0,0.0,0.0,0.0,0.0,0.0,0.0,0.0,0.0,0.0,0.0,0.0,0.0,0.0,0.0,0.0,0.0,0.0,0.0,0.0,0.0,0.0,0.0,0.0,0.0,0.0,0.0,0.0,0.0,0.0,0.0,0.0,0.0,0.0,0.0,0.0,0.0,0.0,0.0,0.0,0.0,0.0,0.0,0.0,0.0,0.0,0.0,0.0,0.0,0.0,0.0,0.0,0.0,0.0,0.0,0.0,0.0,0.0,0.0,0.0,0.0,0.0,0.0,0.0,0.0,0.0,0.0,0.0,0.0,0.0,0.0,0.0,0.0,0.0,0.0,0.0,0.0,-3.0589,-3.1094,-3.2651,-3.3669,-3.403,-3.3539,-3.2707,-3.206,-3.1673,-3.0785,0.0,0.0,0.0,0.0,0.0,0.0,0.0,0.0,0.0,0.0,0.0,0.0,0.0,0.0,0.0,0.0,0.0,0.0,0.0,0.0,0.0,0.0,0.0,0.0,0.0,0.0,0.0,0.0,0.0,0.0,0.0,0.0,0.0,0.0,0.0,0.0,0.0,0.0,0.0,0.0,0.0,0.0,0.0,0.0,0.0,0.0,0.0,0.0,0.0,0.0,0.0,0.0,0.0,0.0,0.0,0.0,0.0,0.0,0.0,0.0,0.0,0.0,0.0,0.0,0.0,0.0,0.0,0.0,0.0,0.0,0.0,0.0,0.0,0.0,0.0,0.0,0.0,0.0,0.0,0.0,0.0,0.0,0.0,0.0,0.0,0.0,0.0,0.0,0.0,0.0,0.0,0.0,0.0,0.0,0.0,0.0,0.0,0.0,0.0,0.0,0.0,0.0,-3.1413,-3.251,-3.3043,-3.3667,-3.3782,-3.3115,-3.2271,-3.1853,-3.1932,-3.1039,0.0,0.0,0.0,0.0,0.0,0.0,0.0,0.0,0.0,0.0,0.0,0.0,0.0,0.0,0.0,0.0,0.0,0.0,0.0,0.0,0.0,0.0,0.0,0.0,0.0,0.0,0.0,0.0,0.0,0.0,0.0,0.0,0.0,0.0,0.0,0.0,0.0,0.0,0.0,0.0,0.0,0.0,0.0,0.0,0.0,0.0,0.0,0.0,0.0,0.0,0.0,0.0,0.0,0.0,0.0,0.0,0.0,0.0,0.0,0.0,0.0,0.0,0.0,0.0,0.0,0.0,0.0,0.0,0.0,0.0,0.0,0.0,0.0,0.0,0.0,0.0,0.0,0.0,0.0,0.0,0.0,0.0,0.0,0.0,0.0,0.0,0.0,0.0,0.0,0.0,0.0,0.0,0.0,0.0,0.0,0.0,0.0,0.0,0.0,0.0,0.0,0.0,-3.1413,-3.2266,-3.221,-3.2828,-3.318,-3.2928,-3.224,-3.2055,-3.2655,-3.1315,0.0,0.0,0.0,0.0,0.0,0.0,0.0,0.0,0.0,0.0,0.0,0.0,0.0,0.0,0.0,0.0,0.0,0.0,0.0,0.0,0.0,0.0,0.0,0.0,0.0,0.0,0.0,0.0,0.0,0.0,0.0,0.0,0.0,0.0,0.0,0.0,0.0,0.0,0.0,0.0,0.0,0.0,0.0,0.0,0.0,0.0,0.0,0.0,0.0,0.0,0.0,0.0,0.0,0.0,0.0,0.0,0.0,0.0,0.0,0.0,0.0,0.0,0.0,0.0,0.0,0.0,0.0,0.0,0.0,0.0,0.0,0.0,0.0,0.0,0.0,0.0,0.0,0.0,0.0,0.0,0.0,0.0,0.0,0.0,0.0,0.0,0.0,0.0,0.0,0.0,0.0,0.0,0.0,0.0,0.0,0.0,0.0,0.0,0.0,0.0,0.0,0.0,-3.207,-3.2793,0.0,-3.2887,-3.3073,-3.2454,-3.1688,-3.1503,-3.2182,0.0,0.0,0.0,0.0,0.0,0.0,0.0,0.0,0.0,0.0,0.0,0.0,0.0,0.0,0.0,0.0,0.0,0.0,0.0,0.0,0.0,0.0,0.0,0.0,0.0,0.0,0.0,0.0,0.0,0.0,0.0,0.0,0.0,0.0,0.0,0.0,0.0,0.0,0.0,0.0,0.0,0.0,0.0,0.0,0.0,0.0,0.0,0.0,0.0,0.0,0.0,0.0,0.0,0.0,0.0,0.0,0.0,0.0,0.0,0.0,0.0,0.0,0.0,0.0,0.0,0.0,0.0,0.0,0.0,0.0,0.0,0.0,0.0,0.0,0.0,0.0,0.0,0.0,0.0,0.0,0.0,0.0,0.0,0.0,0.0,0.0,0.0,0.0,0.0,0.0,0.0,0.0,0.0,0.0,0.0,0.0,0.0,0.0,0.0,0.0,0.0,0.0,-3.1162,-3.207,-3.251,0.0,-3.2408,-3.2435,-3.1806,-3.1241,-3.1157,-3.1747,0.0,0.0,0.0,0.0,0.0,0.0,0.0,0.0,0.0,0.0,0.0,0.0,0.0,0.0,0.0,0.0,0.0,0.0,0.0,0.0,0.0,0.0,0.0,0.0,0.0,0.0,0.0,0.0,0.0,0.0,0.0,0.0,0.0,0.0,0.0,0.0,0.0,0.0,0.0,0.0,0.0,0.0,0.0,0.0,0.0,0.0,0.0,0.0,0.0,0.0,0.0,0.0,0.0,0.0,0.0,0.0,0.0,0.0,0.0,0.0,0.0,0.0,0.0,0.0,0.0,0.0,0.0,0.0,0.0,0.0,0.0,0.0,0.0,0.0,0.0,0.0,0.0,0.0,0.0,0.0,0.0,0.0,0.0,0.0,0.0,0.0,0.0,0.0,0.0,0.0,0.0,0.0,0.0,0.0,0.0,0.0,0.0,0.0,0.0,0.0,0.0,0.0,-3.119,-3.119,-3.1224,-3.119,-3.1224,-3.1185,-3.1032,-3.1012,-3.1137,0.0,0.0,0.0,0.0,0.0,0.0,0.0,0.0,0.0,0.0,0.0,0.0,0.0,0.0,0.0,0.0,0.0,0.0,0.0,0.0,0.0,0.0,0.0,0.0,0.0,0.0,0.0,0.0,0.0,0.0,0.0,0.0,0.0,0.0,0.0,0.0,0.0,0.0,0.0,0.0,0.0,0.0,0.0,0.0,0.0,0.0,0.0,0.0,0.0,0.0,0.0,0.0,0.0,0.0,0.0,0.0,0.0,0.0,0.0,0.0,0.0,0.0,0.0,0.0,0.0,0.0,0.0,0.0,0.0,0.0,0.0,0.0,0.0,0.0,0.0,0.0,0.0,0.0,0.0,0.0,0.0,0.0,0.0,0.0,0.0,0.0,0.0,0.0,0.0,0.0,0.0,0.0,0.0,0.0,0.0,0.0,0.0,0.0,0.0,0.0,0.0,0.0,0.0,-3.119,-3.2104,-3.2544,-3.2022,-3.2442,-3.2523,-3.1962,-3.1341,-3.1157,-3.1542,0.0,0.0,0.0,0.0,0.0,0.0,0.0,0.0,0.0,0.0,0.0,0.0,0.0,0.0,0.0,0.0,0.0,0.0,0.0,0.0,0.0,0.0,0.0,0.0,0.0,0.0,0.0,0.0,0.0,0.0,0.0,0.0,0.0,0.0,0.0,0.0,0.0,0.0,0.0,0.0,0.0,0.0,0.0,0.0,0.0,0.0,0.0,0.0,0.0,0.0,0.0,0.0,0.0,0.0,0.0,0.0,0.0,0.0,0.0,0.0,0.0,0.0,0.0,0.0,0.0,0.0,0.0,0.0,0.0,0.0,0.0,0.0,0.0,0.0,0.0,0.0,0.0,0.0,0.0,0.0,0.0,0.0,0.0,0.0,0.0,0.0,0.0,0.0,0.0,0.0,0.0,0.0,0.0,0.0,0.0,0.0,0.0,0.0,0.0,0.0,0.0,0.0,-3.1616,-3.2408,-3.2882,-3.2747,-3.3152,-3.3085,-3.2361,-3.1807,-3.1515,-3.1443,0.0,0.0,0.0,0.0,0.0,0.0,0.0,0.0,0.0,0.0,0.0,0.0,0.0,0.0,0.0,0.0,0.0,0.0,0.0,0.0,0.0,0.0,0.0,0.0,0.0,0.0,0.0,0.0,0.0,0.0,0.0,0.0,0.0,0.0,0.0,0.0,0.0,0.0,0.0,0.0,0.0,0.0,0.0,0.0,0.0,0.0,0.0,0.0,0.0,0.0,0.0,0.0,0.0,0.0,0.0,0.0,0.0,0.0,0.0,0.0,0.0,0.0,0.0,0.0,0.0,0.0,0.0,0.0,0.0,0.0,0.0,0.0,0.0,0.0,0.0,0.0,0.0,0.0,0.0,0.0,0.0,0.0,0.0,0.0,0.0,0.0,0.0,0.0,0.0,0.0,0.0,0.0,0.0,0.0,0.0,0.0,0.0,0.0,0.0,0.0,0.0,0.0,-3.2226,-3.2429,-3.2767,-3.3423,-3.3525,-3.322,-3.2564,-3.2395,-3.2022,-3.1326,0.0,0.0,0.0,0.0,0.0,0.0,0.0,0.0,0.0,0.0,0.0,0.0,0.0,0.0,0.0,0.0,0.0,0.0,0.0,0.0,0.0,0.0,0.0,0.0,0.0,0.0,0.0,0.0,0.0,0.0,0.0,0.0,0.0,0.0,0.0,0.0,0.0,0.0,0.0,0.0,0.0,0.0,0.0,0.0,0.0,0.0,0.0,0.0,0.0,0.0,0.0,0.0,0.0,0.0,0.0,0.0,0.0,0.0,0.0,0.0,-3.5876,-3.5876,0.0,0.0,0.0,0.0,0.0,0.0,0.0,0.0,0.0,0.0,0.0,0.0,0.0,0.0,0.0,0.0,0.0,0.0,0.0,0.0,0.0,0.0,0.0,0.0,0.0,0.0,0.0,0.0,0.0,0.0,0.0,0.0,0.0,0.0,0.0,0.0,0.0,0.0,0.0,0.0,-3.2293,-3.3309,-3.4066,-3.4235,-3.4269,-3.4201,-3.4032,-3.297,-3.2226,-3.209,-3.1554,0.0,0.0,0.0,0.0,0.0,0.0,0.0,0.0,0.0,0.0,0.0,0.0,0.0,0.0,0.0,0.0,0.0,0.0,0.0,0.0,0.0,0.0,0.0,0.0,0.0,0.0,0.0,0.0,0.0,0.0,0.0,0.0,0.0,0.0,0.0,0.0,0.0,0.0,0.0,0.0,0.0,0.0,0.0,0.0,0.0,0.0,0.0,0.0,0.0,0.0,0.0,0.0,0.0,0.0,0.0,0.0,0.0,0.0,0.0,-3.5904,-3.56,0.0,0.0,0.0,0.0,0.0,0.0,0.0,0.0,0.0,0.0,0.0,0.0,0.0,0.0,0.0,0.0,0.0,0.0,0.0,0.0,0.0,0.0,0.0,0.0,0.0,0.0,0.0,0.0,0.0,0.0,0.0,0.0,0.0,0.0,0.0,0.0,0.0,0.0,0.0,0.0,-3.3275,-3.4053,-3.4641,-3.4979,-3.5047,-3.4878,-3.4539,-3.3816,-3.3072,-3.2327,-3.1955,0.0,0.0,0.0,0.0,0.0,0.0,0.0,0.0,0.0,0.0,0.0,0.0,0.0,0.0,0.0,0.0,0.0,0.0,0.0,0.0,0.0,0.0,0.0,0.0,0.0,0.0,0.0,0.0,0.0,0.0,0.0,0.0,0.0,0.0,0.0,0.0,0.0,0.0,0.0,0.0,0.0,0.0,0.0,0.0,0.0,0.0,0.0,0.0,0.0,0.0,0.0,0.0,0.0,-3.6998,-3.7313,-3.7922,-3.7922,-3.7922,-3.7855,-3.6546,-3.5938,-3.5825,-3.5825,0.0,0.0,0.0,0.0,0.0,0.0,0.0,0.0,0.0,0.0,0.0,0.0,0.0,0.0,0.0,0.0,0.0,0.0,0.0,0.0,0.0,0.0,-3.3457,-3.2835,-3.3152,-3.3254,-3.2036,0.0,0.0,0.0,0.0,0.0,0.0,0.0,0.0,0.0,0.0,0.0,-3.4336,-3.4607,-3.4945,-3.5532,-3.56,-3.5329,-3.4742,-3.4573,-3.3986,-3.2767,-3.2429,-3.2002,0.0,0.0,0.0,0.0,0.0,0.0,0.0,0.0,0.0,0.0,0.0,0.0,0.0,0.0,0.0,0.0,0.0,0.0,0.0,0.0,0.0,0.0,0.0,0.0,0.0,0.0,0.0,0.0,0.0,0.0,0.0,0.0,-3.56,-3.56,0.0,0.0,0.0,0.0,0.0,0.0,0.0,0.0,0.0,0.0,0.0,0.0,0.0,-3.666,-3.666,-3.728,-3.7652,-3.7753,-3.7753,-3.7821,-3.7922,-3.7922,-3.7922,-3.7889,-3.7686,0.0,-3.666,-3.666,0.0,0.0,0.0,0.0,0.0,0.0,0.0,0.0,0.0,0.0,0.0,0.0,0.0,0.0,0.0,0.0,0.0,0.0,0.0,0.0,0.0,0.0,-3.4336,-3.4235,-3.4269,-3.4303,-3.41,-3.3072,-3.1989,-3.1326,-3.119,-3.119,0.0,0.0,0.0,0.0,0.0,0.0,-3.4472,-3.5081,-3.5498,-3.56,-3.56,-3.5566,-3.5464,-3.4878,-3.4404,-3.4201,-3.3004,-3.2219,-3.1995,-3.1449,0.0,0.0,0.0,0.0,0.0,0.0,0.0,0.0,0.0,0.0,0.0,0.0,0.0,0.0,0.0,0.0,0.0,0.0,0.0,0.0,0.0,0.0,0.0,0.0,0.0,0.0,0.0,0.0,0.0,-3.56,-3.56,-3.56,-3.56,-3.56,0.0,0.0,0.0,0.0,0.0,0.0,0.0,0.0,0.0,-3.6884,-3.7246,-3.7415,-3.7415,-3.7753,-3.8125,-3.8531,-3.8531,-3.8734,-3.914,-3.914,-3.914,-3.914,-3.914,-3.87,-3.798,-3.7134,-3.6569,-3.6231,0.0,0.0,0.0,0.0,-3.5893,-3.6265,-3.6265,-3.6265,-3.6265,-3.6265,0.0,0.0,0.0,0.0,0.0,0.0,0.0,-3.3897,-3.3998,-3.4573,-3.525,-3.569,-3.6096,-3.6299,-3.5859,-3.5306,-3.4358,-3.2747,-3.2442,-3.2442,-3.2442,-3.2713,0.0,0.0,0.0,-3.4641,-3.5081,-3.5397,-3.56,-3.56,-3.56,-3.56,-3.56,-3.5295,-3.4945,-3.4539,-3.3884,-3.3152,-3.2246,-3.1888,-3.1496,0.0,0.0,0.0,0.0,0.0,0.0,0.0,0.0,0.0,0.0,0.0,0.0,0.0,0.0,0.0,0.0,0.0,0.0,0.0,0.0,0.0,0.0,0.0,0.0,0.0,0.0,0.0,0.0,-3.5769,-3.5836,-3.5633,-3.5769,-3.5825,0.0,0.0,0.0,0.0,0.0,0.0,-3.7066,-3.71,-3.7313,-3.7889,-3.8091,-3.8193,-3.8193,-3.8362,-3.8734,-3.9276,-3.9276,-3.9571,-4.0113,-4.0113,-4.0113,-4.0113,-4.0113,-3.9808,-3.9174,-3.7912,-3.7269,-3.7009,-3.6434,-3.6174,-3.6174,-3.6174,-3.6569,-3.71,-3.71,-3.71,-3.71,-3.71,-3.6535,-3.5926,-3.5926,0.0,0.0,0.0,0.0,-3.4675,-3.5216,-3.5926,-3.6637,-3.7235,-3.7787,-3.8024,-3.7506,-3.7235,-3.64,-3.4134,-3.3694,-3.3626,-3.3423,-3.3558,0.0,-3.4404,-3.4641,-3.5047,-3.5825,-3.5926,-3.5926,-3.5926,-3.5926,-3.5802,-3.5633,-3.56,-3.5363,-3.481,-3.4607,-3.402,-3.2903,-3.2583,-3.2124,-3.1495,0.0,0.0,0.0,0.0,0.0,0.0,0.0,0.0,0.0,0.0,0.0,0.0,0.0,0.0,0.0,0.0,0.0,0.0,0.0,0.0,0.0,0.0,0.0,0.0,0.0,0.0,0.0,0.0,0.0,-3.5701,-3.6265,0.0,0.0,0.0,0.0,-3.6761,-3.7381,-3.7821,-3.7855,-3.7855,-3.7855,-3.7922,-3.8565,-3.8937,-3.8937,-3.9639,-4.0011,-4.0045,-4.0045,-4.0079,-4.0113,-4.0113,-4.0113,-4.0113,-4.0113,-4.0079,-3.9977,-3.9208,-3.8464,-3.7855,-3.7821,-3.7787,-3.7787,-3.7787,-3.7821,-3.7855,-3.7855,-3.7855,-3.7855,-3.7855,-3.7347,-3.6761,-3.6761,-3.6728,0.0,0.0,-3.711,-3.7686,-3.7719,-3.8294,-3.8836,-3.887,-3.8903,-3.8937,-3.8903,-3.8328,-3.7178,-3.4878,-3.4438,-3.4201,-3.3525,0.0,-3.4438,-3.4472,-3.5115,-3.5825,-3.666,-3.6761,-3.6761,-3.6761,-3.6761,-3.6434,-3.5667,-3.56,-3.5566,-3.5532,-3.4878,-3.4472,-3.437,-3.3728,-3.2983,-3.2259,-3.2103,0.0,0.0,0.0,0.0,0.0,0.0,0.0,0.0,0.0,0.0,0.0,0.0,0.0,0.0,0.0,0.0,0.0,0.0,0.0,0.0,0.0,0.0,0.0,0.0,0.0,0.0,0.0,0.0,-3.7077,-3.7347,0.0,-3.711,-3.7347,-3.7516,-3.7516,-3.7753,-3.8125,-3.8565,-3.8599,-3.8836,-3.93,-3.9571,-3.9706,-3.9706,-3.9977,-4.0113,-4.0113,-4.0113,-4.0113,-4.0113,-4.0113,-4.0113,-4.0113,-4.0113,-4.0113,-4.0079,-3.9842,-3.9276,-3.8565,-3.8091,-3.7922,-3.7922,-3.7922,-3.8193,-3.8599,-3.8599,-3.8599,-3.8531,-3.8058,-3.7719,-3.7516,-3.7516,-3.7516,-3.7516,-3.7516,-3.7686,-3.8024,-3.8497,-3.8802,-3.9106,-3.9605,-3.9706,-3.9706,-3.9706,-3.9503,-3.8962,-3.7652,-3.7009,-3.6468,-3.5723,-3.5814,-3.5983,-3.5983,-3.6197,-3.6637,-3.7415,-3.7516,-3.7516,-3.7516,-3.71,-3.6694,-3.64,-3.5926,-3.56,-3.56,-3.5329,-3.5013,-3.4506,-3.4235,-3.3761,-3.3017,-3.2942,-3.2778,0.0,0.0,0.0,0.0,0.0,0.0,0.0,0.0,0.0,0.0,0.0,0.0,0.0,0.0,0.0,0.0,0.0,0.0,0.0,0.0,0.0,0.0,0.0,0.0,0.0,0.0,-3.7618,-3.7889,-3.8125,-3.8159,-3.7922,-3.8125,-3.8261,-3.8261,-3.8497,-3.887,-3.9368,-3.9368,-3.9605,-4.0079,-4.0113,-4.0113,-4.0113,-4.0113,-4.0113,-4.0113,-4.0113,-4.0113,-4.0113,-4.0113,-4.0113,-4.0113,-4.0113,-4.0113,-4.0113,-4.0113,-3.9808,-3.9309,-3.8836,-3.8633,-3.8633,-3.8633,-3.8937,-3.9368,-3.9368,-3.9368,-3.9276,-3.8802,-3.8464,-3.8261,-3.8261,-3.8261,-3.8261,-3.8261,-3.8464,-3.8734,-3.9242,-3.9368,-3.9454,-3.9749,-3.9799,-3.9799,-3.9799,-3.9799,-3.9716,-3.942,-3.8768,-3.8024,-3.728,-3.7178,-3.7178,-3.7178,-3.7178,-3.7449,-3.8193,-3.8261,-3.8261,-3.8261,-3.7618,-3.7066,-3.6829,-3.6299,-3.5893,-3.5633,-3.5836,-3.5656,-3.4912,-3.4878,-3.4539,-3.3795,-3.3525,-3.3381,-3.3351,0.0,0.0,0.0,0.0,0.0,0.0,0.0,0.0,0.0,0.0,0.0,0.0,0.0,0.0,0.0,0.0,0.0,0.0,0.0,0.0,0.0,0.0,0.0,-3.6863,-3.8091,-3.8734,-3.8058,-3.8599,-3.8734,-3.8058,-3.8599,-3.9039,-3.9039,-3.9706,-4.0113,-4.0113,-4.0113,-4.0113,-4.0146,-4.0146,-4.0146,-4.018,-4.018,-4.018,-4.018,-4.018,-4.018,-4.018,-4.0146,-4.0146,-4.0146,-4.0113,-4.0113,-4.0113,-4.0113,-4.0113,-4.0113,-4.0113,-4.0113,-4.0113,-4.0113,-4.0113,-4.0113,-4.0113,-4.0113,-4.0113,-4.0113,-3.9639,-3.9039,-3.9039,-3.9039,-3.9039,-3.9039,-3.9571,-4.0113,-4.0113,-4.0113,-3.9927,-3.9382,-3.9249,-3.9249,-3.9249,-3.9249,-3.9408,-4.0011,-3.9512,-3.8802,-3.8058,-3.7922,-3.7922,-3.7922,-3.7922,0.0,-3.8937,-3.9039,-3.9039,-3.9039,-3.8362,-3.7652,-3.6897,-3.6829,-3.6468,-3.5633,-3.6332,-3.64,-3.5633,-3.56,-3.5261,-3.4539,-3.3829,-3.3491,-3.3491,0.0,0.0,0.0,0.0,0.0,0.0,0.0,0.0,0.0,0.0,0.0,0.0,0.0,0.0,0.0,0.0,0.0,0.0,0.0,0.0,0.0,0.0,-3.842,-3.842,-3.8734,-3.9106,-3.9469,-3.9673,-3.974,-3.9537,-3.9673,-3.9808,-3.9808,-4.0011,-4.0113,-4.0113,-4.0113,-4.035,-4.0865,-4.0899,-4.1136,-4.1677,-4.1704,-4.1704,-4.1704,-4.1704,-4.1704,-4.1704,-4.1136,-4.0899,-4.0865,-4.035,-4.0113,-4.0113,-4.0113,-4.0113,-4.0113,-4.0113,-4.0113,-4.0113,-4.0113,-4.0113,-4.0113,-4.0113,-4.0113,-4.0113,-4.0113,-3.9977,-3.9808,-3.9808,-3.9808,-3.9808,-3.9808,-3.9943,-4.0113,-4.0113,-4.0113,-4.0062,-3.9876,-3.985,-3.985,-3.985,-3.985,-3.9901,-4.0087,-3.9943,-3.9571,-3.8802,-3.87,-3.87,-3.87,-3.87,-3.8937,-3.9706,-3.9808,-3.9808,-3.9808,-3.914,-3.8396,-3.7652,-3.711,-3.6468,-3.5633,-3.5825,-3.5836,-3.56,-3.56,-3.5498,-3.5295,-3.5092,-3.4991,0.0,0.0,0.0,0.0,0.0,0.0,0.0,0.0,0.0,0.0,0.0,0.0,0.0,0.0,0.0,0.0,0.0,0.0,0.0,0.0,0.0,0.0,-3.8657,-3.9309,-4.0257,-4.0121,-4.0189,-4.0959,-4.1027,-4.1027,-4.1027,-4.1027,-4.1027,-4.1027,-4.1027,-4.1027,-4.1027,-4.1027,-4.1204,-4.1644,-4.1644,-4.188,-4.2286,-4.2286,-4.2286,-4.2286,-4.2286,-4.2286,-4.2286,-4.1847,-4.1644,-4.1644,-4.123,-4.0695,-4.0158,-4.0158,-3.9859,-3.9401,0.0,0.0,0.0,0.0,-3.9722,-3.9696,-3.9428,-3.9348,-3.9348,-3.9348,-3.9348,-3.9401,-3.9644,-3.9722,-3.9773,-4.0037,-4.0113,-4.0062,-3.9799,-3.9722,-3.967,-3.9401,-3.9348,-3.9401,-3.967,-3.9722,-3.9799,-4.0062,-4.0113,0.0,-3.9537,-3.9469,-3.9469,-3.9469,-3.9469,-3.9639,-4.0045,-4.0113,-4.0113,-4.0113,-3.9436,-3.8836,-3.8396,-3.7686,0.0,0.0,0.0,-3.596,-3.56,-3.56,0.0,0.0,0.0,-3.56,-3.56,-3.56,0.0,0.0,-3.5026,-3.5103,0.0,0.0,0.0,0.0,0.0,0.0,0.0,0.0,0.0,0.0,0.0,0.0,0.0,0.0,0.0,0.0,-3.9639,-3.9986,-4.2117,-4.1847,-4.1677,-4.2219,-4.2286,-4.2286,-4.2286,-4.2286,-4.2286,-4.2286,-4.2286,-4.2286,-4.2286,-4.2286,0.0,0.0,0.0,-4.2455,-4.2557,-4.2557,-4.2557,-4.2557,-4.2557,-4.2557,-4.2557,-4.2455,-4.2422,-4.2422,-4.232,-4.1614,-4.0519,-4.0437,-3.9654,-3.8618,-3.9599,-4.0062,-4.0062,-3.9513,-3.9242,-3.9109,-3.8618,0.0,0.0,-3.8306,-3.8306,-3.839,-3.8947,-3.9082,-3.9216,-3.9747,-3.9901,-3.9773,-3.9242,-3.9082,-3.8974,-3.8418,-3.8306,-3.8446,-3.9055,-3.9189,-3.9408,-3.9978,-4.0113,-4.0113,-4.0113,-4.0113,-4.0113,-4.0113,-4.0113,-4.0113,-4.0113,-4.0113,-4.0113,-4.0113,-3.9537,0.0,-3.9005,-3.8396,-3.7686,-3.6863,-3.6728,-3.6332,-3.5633,-3.56,-3.56,-3.56,-3.56,-3.56,-3.56,-3.56,-3.56,-3.56,-3.552,-3.5508,0.0,0.0,0.0,0.0,0.0,0.0,0.0,0.0,0.0,0.0,0.0,0.0,0.0,0.0,0.0,-3.9943,-4.046,-4.1339,-4.2963,-4.3037,-4.2828,-4.2354,-4.2286,-4.2286,-4.2286,-4.2286,-4.2286,-4.2286,-4.2286,-4.2286,-4.2286,-4.2286,-4.2557,-4.3166,-4.32,-4.3504,-4.4175,-4.4175,-4.4175,-4.4175,-4.4175,0.0,-4.4141,-4.347,-4.32,-4.3166,-4.2557,-4.2132,-4.1863,-4.1339,-4.0648,-3.9865,-3.9517,-3.967,-4.0087,-3.9952,-3.9618,-3.9162,-3.9055,-3.8728,-3.8306,-3.8306,-3.8306,-3.8306,-3.8418,-3.8474,0.0,-3.8613,-3.864,-3.8613,-3.8502,-3.8474,-3.8446,-3.8334,-3.8306,-3.8446,-3.9055,-3.9189,-3.9408,-3.9978,-4.0113,-4.0113,-4.0113,-4.0113,-4.0113,-4.0113,-4.0113,-4.0113,-4.0113,-4.0113,-4.0113,-4.0113,-3.9977,-3.9673,-3.9039,-3.887,-3.8227,-3.6897,-3.6197,-3.5769,-3.56,-3.56,-3.56,-3.56,-3.56,-3.56,-3.56,-3.56,-3.56,-3.56,-3.552,-3.5508,0.0,0.0,0.0,0.0,0.0,0.0,0.0,0.0,0.0,0.0,0.0,-3.8125,0.0,0.0,-4.002,-4.1508,-4.1745,-4.2286,-4.3775,-4.3673,-4.3436,-4.3464,-4.3464,-4.3464,-4.3464,-4.3464,-4.3464,-4.3464,-4.3464,-4.3464,-4.3464,-4.3464,-4.3606,-4.3978,-4.4012,-4.4181,-4.4615,-4.4615,-4.4615,-4.4615,-4.4615,-4.4615,-4.4581,-4.4181,-4.4012,-4.3978,-4.3606,-4.3063,-4.2295,-4.1304,-4.0885,-4.0791,-4.007,-3.9775,-3.9632,-3.8997,-3.8562,-3.8311,-3.8311,-3.8112,-3.7911,-3.8193,-3.8306,-3.8306,-3.8306,-3.8306,-3.8362,-3.8673,-3.853,-3.8306,-3.8306,-3.8084,-3.7854,-3.7854,-3.7854,-3.8026,-3.8645,-3.8756,-3.8947,-3.954,-3.9644,-3.9747,-4.0062,-4.0113,-4.0113,-4.0113,-4.0113,-4.0113,-4.0113,-4.0113,-4.0113,-4.0113,-4.0113,-3.9943,-3.9605,-3.9208,-3.8531,-3.7415,-3.6975,-3.6749,-3.6749,-3.64,-3.6197,-3.6197,-3.5825,-3.56,-3.56,-3.56,-3.56,-3.56,-3.596,-3.5937,0.0,0.0,0.0,0.0,0.0,0.0,0.0,0.0,-3.7642,-3.8396,-3.8667,-3.914,-4.0324,-4.0502,-4.1144,-4.3071,-4.2895,-4.2997,-4.4412,-4.4045,-4.3876,-4.4513,-4.4615,-4.4615,-4.4615,-4.4615,-4.4615,-4.4615,-4.4615,-4.4615,-4.4615,-4.4615,-4.4615,-4.4615,-4.4615,-4.4615,-4.4615,-4.4615,-4.4615,-4.4615,-4.4615,-4.4615,-4.4615,-4.444,-4.4384,-4.4384,-4.4236,-4.3465,-4.2216,-4.1154,-4.0894,-4.1161,-4.0615,-4.0077,-3.9406,-3.8348,-3.7822,-3.7577,-3.7577,-3.7454,-3.7298,-3.7796,-3.7937,-3.7937,-3.7937,-3.7937,-3.808,-3.8673,-3.8507,-3.8137,-3.825,-3.7854,-3.7417,-3.7417,-3.7298,-3.7387,-3.7966,-3.8108,-3.8278,-3.892,-3.9028,-3.9216,-3.9825,-3.9927,-3.9952,-4.0087,-4.0113,-4.0113,-4.0113,-4.0113,-4.0113,-4.0113,-4.0113,-4.0113,-4.0113,-3.9436,-3.8734,-3.8159,-3.799,-3.7922,-3.7922,-3.7178,-3.6795,-3.6795,-3.6028,-3.5667,-3.5836,-3.5836,-3.5904,-3.6039,-3.6705,-3.6569,-3.7686,-3.7719,-3.7753,-3.7686,-3.7719,-3.8125,0.0,0.0,-3.9943,-4.0696,-4.1339,-4.1847,-4.2016,-4.2049,-4.2354,-4.324,-4.3308,-4.3606,-4.4479,-4.4513,-4.4513,-4.4581,-4.4615,-4.4615,-4.4615,-4.4615,-4.4615,-4.4615,-4.4615,-4.4615,-4.4615,-4.4615,-4.4615,-4.4615,-4.4615,-4.4615,-4.4615,-4.4615,-4.4615,-4.4615,-4.4615,-4.4615,-4.4587,-4.3914,-4.3617,-4.3588,-4.2984,-4.2331,-4.1595,-4.1435,-4.1074,-4.0575,-4.0544,-4.0452,-4.0325,-4.0055,-3.9265,-3.8303,-3.8303,-3.7559,-3.66,-3.6693,-3.6693,-3.6693,-3.6693,-3.6693,-3.6846,-3.7447,-3.7565,-3.7621,-3.8137,-3.7854,-3.7417,-3.7417,-3.6967,-3.6785,-3.7387,-3.7506,-3.7679,-3.8278,-3.839,-3.8585,-3.9189,-3.9295,-3.9487,-4.0037,-4.0113,-4.0113,-4.0113,-4.0113,-4.0113,-4.0113,-4.0113,-4.0113,-4.0113,-3.9436,-3.8937,-3.887,-3.8261,-3.7922,-3.7922,-3.7178,-3.6795,-3.6795,-3.6028,-3.596,-3.666,-3.666,-3.7009,-3.7628,-3.7753,-3.7381,-3.8531,-3.8531,-3.843,-3.8024,-3.8565,-3.9343,-3.9952,-4.0426,-4.0933,-4.1677,-4.2083,-4.2422,-4.2861,-4.2963,-4.32,0.0,-4.4079,-4.4215,-4.4547,-4.4615,-4.4615,-4.4615,-4.4615,-4.444,-4.4001,-4.3972,-4.3972,-4.3972,-4.4384,-4.4615,-4.4615,-4.4615,-4.4615,-4.4615,-4.4615,-4.4615,-4.4615,-4.4615,-4.4615,-4.4615,-4.4615,-4.4615,-4.4615,-4.4265,-4.415,-4.4121,-4.3827,-4.332,-4.2676,-4.2676,-4.2269,-4.1625,-4.1242,-4.131,-4.1564,-4.0714,-3.9832,-3.909,-3.9457,-3.8962,-3.8185,-3.8142,-3.8136,-3.8013,-3.7244,-3.6997,-3.7058,-3.7328,-3.7148,-3.6997,-3.7621,-3.7562,-3.7417,-3.7417,-3.7474,-3.7621,-3.7883,-3.794,-3.7998,-3.825,-3.8306,-3.8362,-3.8613,-3.8701,-3.8892,-3.9513,-3.9876,-4.0113,-4.0113,-4.0113,-4.0113,-4.0113,-4.0113,-4.0113,-4.0113,-3.9842,-3.9639,-3.9639,-3.9368,-3.9174,-3.9174,-3.8464,-3.8058,-3.8058,-3.7347,-3.711,-3.7449,-3.7449,-3.7584,-3.7922,-3.8328,-3.8362,-3.9242,-3.9445,-3.9478,-3.8937,-3.9783,-4.073,-4.073,-4.1305,-4.1982,-4.2489,-4.276,-4.3098,-4.3639,-4.3741,-4.391,-4.4513,-4.4615,-4.4615,-4.4615,-4.4412,-4.435,-4.4581,-4.4243,-4.3858,-4.3525,-4.3676,-4.3794,-4.3794,-4.4293,-4.4615,-4.4615,-4.4615,-4.4615,-4.4615,-4.4615,-4.4615,-4.4615,-4.4615,-4.4615,-4.4615,-4.4615,-4.4615,-4.4615,-4.4384,-4.4179,-4.4035,-4.4035,-4.3739,-4.3227,-4.3227,-4.2831,-4.2205,-4.1885,-4.1949,-4.2108,-4.1324,-4.0505,-3.9849,-4.0496,-4.0124,-3.9439,-3.9564,-3.9638,-3.9392,-3.81,-3.7701,-3.7638,-3.748,-3.7088,-3.6907,-3.7474,-3.7535,-3.7447,-3.7592,-3.7738,-3.7879,-3.8222,-3.8165,-3.808,-3.825,-3.8306,-3.8334,-3.8502,-3.853,-3.8723,-3.9382,-3.9825,-4.0113,-4.0113,-4.0113,-4.0113,-4.0113,-4.0113,-4.0113,-4.0113,-4.0113,-4.0113,-4.0113,-4.0113,-4.0113,-4.0113,-3.9402,-3.9005,-3.9005,-3.8294,-3.799,-3.8193,-3.8193,-3.8294,-3.8531,-3.9039,-3.9276,0.0,0.0,-4.1136,-4.1102,-4.1677,-4.2219,-4.2219,-4.2794,-4.3341,-4.3341,-4.3978,-4.4547,-4.4581,-4.4581,-4.4581,-4.4615,-4.4615,-4.4615,-4.4615,-4.3944,-4.3741,-4.4513,-4.3342,-4.2738,0.0,-4.415,-4.4587,-4.4587,-4.4587,-4.4615,-4.4615,-4.4615,-4.4615,-4.4615,-4.4615,-4.4615,-4.4615,-4.4615,-4.4615,-4.4615,-4.4615,-4.4615,-4.4587,-4.3885,-4.3166,-4.2552,-4.2552,-4.2552,-4.2552,-4.2552,-4.2141,-4.1591,-4.2237,-4.2078,-4.1592,-4.2204,-4.1597,-4.0579,-4.1236,-4.057,-3.9595,-4.0264,-4.044,-4.0192,-3.886,-3.8488,-3.8299,-3.7607,-3.7387,-3.7504,-3.8141,-3.7854,-3.7565,-3.8108,-3.7385,-3.6876,-3.8051,-3.7854,-3.7592,-3.8165,-3.8306,-3.8474,-3.9055,-3.9162,-3.9408,-3.9978,-4.0087,-4.0113,-4.0113,-4.0113,-4.0113,-4.0113,-4.0113,-4.0113,-4.0113,-4.0113,-4.0113,-4.0113,-4.0113,-4.0113,-4.0113,-3.9402,-3.9005,-3.9005,-3.8294,-3.8261,-3.8971,-3.8971,-3.9309,-4.0045,-4.0079,-4.0079,0.0,0.0,-4.1914,-4.1914,-4.2489,-4.3031,-4.3031,-4.3639,-4.4181,-4.4181,-4.3978,-4.3809,-4.3809,-4.3809,-4.3809,-4.3809,-4.4248,-4.4784,-4.5263,-4.5094,-4.4884,-4.4679,-4.5031,0.0,0.0,0.0,0.0,-4.3885,-4.4293,-4.4615,-4.4615,-4.4615,-4.4615,-4.4615,-4.415,-4.3885,-4.3885,-4.3439,-4.3439,-4.3885,-4.4384,-4.4615,-4.4615,-4.4355,-4.4121,-4.3885,-4.3885,-4.3617,-4.3166,-4.3166,-4.2769,-4.2173,-4.2426,-4.2645,-4.2862,-4.3075,-4.2881,-4.2411,-4.1725,-4.1214,-4.0734,-4.0036,-4.045,-4.0906,-3.9592,-3.9491,-3.9661,-3.8926,-3.8734,-3.8547,-3.7894,-3.7854,-3.7969,-3.7738,-3.7709,-3.7825,-3.8193,-3.8137,-3.8084,-3.825,-3.8306,-3.8362,-3.8557,-3.8585,-3.881,-3.9401,-3.9825,-4.0113,-4.0113,-4.0113,-4.0113,-4.0113,-4.0113,-4.0113,-4.0113,-4.0113,-4.0113,-4.0113,-4.0113,-4.0113,-4.0113,-3.9876,-3.974,-3.974,-3.9503,-3.9503,-3.974,-3.974,-3.9876,-4.0113,-4.0113,-4.0113,0.0,-4.232,-4.276,-4.3031,-4.347,-4.3842,-4.3842,-4.4215,-4.4615,-4.4615,-4.3944,-4.3504,-4.3775,-4.3403,-4.32,-4.3741,-4.4012,-4.4519,-4.5568,-4.5466,-4.5356,-4.5444,-4.601,-4.5865,0.0,0.0,0.0,-4.3894,-4.4324,-4.4597,-4.4597,-4.4597,-4.4497,-4.426,-4.3776,-4.3399,-4.3136,-4.2707,-4.2707,-4.3136,-4.3617,-4.3856,-4.3856,-4.3856,-4.3856,-4.3856,-4.3856,-4.3558,-4.3166,-4.3406,-4.3106,-4.252,-4.2769,-4.2984,-4.3136,-4.3136,-4.3136,-4.3045,-4.2426,-4.2046,-4.1724,-4.0856,-4.1183,-4.1649,-4.054,-4.05,-4.0732,-3.9988,-3.9794,-3.9544,-3.843,-3.838,-3.8574,-3.8148,-3.8165,-3.8362,-3.8557,-3.8446,-3.8306,-3.8306,-3.8306,-3.8306,-3.8306,-3.8474,-3.8838,-3.9428,-3.985,-4.0113,-4.0113,-4.0113,-4.0113,-4.0113,-4.0113,-4.0113,-4.0113,-4.0113,-4.0113,-4.0113,-4.0113,-4.0113,-4.0113,-4.0113,-4.0113,-4.0113,-4.0113,-4.0113,-4.0113,-4.0113,-4.0113,-4.0113,-4.0113,-4.0113,-4.2834,-4.3409,-4.3639,-4.4412,-4.4615,-4.4615,-4.4615,-4.4615,-4.4615,-4.4615,-4.3944,-4.3639,0.0,0.0,-4.2828,-4.431,-4.3978,-4.4018,-4.5568,-4.5196,-4.5263,0.0,0.0,0.0,0.0,0.0,0.0,-4.4787,0.0,-4.4591,-4.4591,-4.4591,-4.4301,-4.3654,-4.359,-4.3234,-4.2554,-4.252,-4.2489,-4.2458,-4.2489,-4.252,-4.252,-4.252,-4.252,-4.252,-4.252,-4.252,-4.2552,-4.3196,-4.3075,-4.2552,-4.3196,-4.3075,-4.2552,-4.2552,-4.2583,-4.2707,-4.3287,-4.3075,-4.2552,-4.2489,-4.2489,-4.2422,-4.1711,-4.1517,-4.1415,-4.0732,-4.0567,-4.0404,-3.9664,-3.9469,-3.9451,-3.9259,-3.8761,-3.8511,-3.9028,-3.8728,-3.8306,-3.8334,-3.8334,-3.8334,-3.8334,-3.8838,-3.9375,-4.0037,-4.0113,-4.0113,-4.0113,-4.0113,-4.0113,-4.0113,-4.0113,-4.0113,-4.0113,-4.0113,-4.0113,-4.0113,-4.0113,-4.0113,-4.0113,-4.0113,-4.0113,-4.0113,-4.0113,-4.0113,-4.0113,-4.0113,-4.0113,-4.0113,-4.0113,-4.0113,-4.324,-4.3842,-4.4316,-4.4547,-4.4615,-4.4615,-4.4615,-4.4615,-4.4615,-4.4615,-4.3944,-4.3443,0.0,0.0,0.0,-4.3639,-4.4519,0.0,-4.638,-4.6819,0.0,-4.6886,0.0,-4.7541,-4.593,-4.6716,0.0,0.0,-4.5239,-4.4591,-4.4591,-4.4591,-4.4527,-4.4333,-4.3388,-4.3004,-4.3331,-4.2748,-4.2237,-4.1755,-4.2269,-4.252,-4.252,-4.252,-4.252,-4.252,-4.252,-4.252,-4.252,-4.2676,-4.2645,-4.252,-4.2707,-4.2953,-4.3257,-4.3257,-4.3588,-4.4035,-4.3647,-4.3376,-4.3075,-4.2078,-4.2426,-4.3043,-4.1853,-4.1853,-4.2099,-4.1357,-4.1523,-4.1625,-4.0437,-4.0508,-4.063,-3.9564,-3.9231,-3.8983,-3.8604,-3.839,-3.8418,-3.8892,-3.8974,-3.8974,-3.8974,-3.9082,-3.9375,-4.0037,-4.0113,-4.0113,-4.0113,-4.0113,-4.0113,-4.0113,-4.0113,-4.0113,-4.0113,-4.0113,-4.0113,-4.0113,-4.0113,-4.0113,-4.0113,-4.0113,-4.0113,-4.0113,-4.0113,-4.0113,-4.0113,-4.0113,-4.0113,-4.0113,-4.0113,-4.0113,-4.3842,-4.4248,-4.4615,-4.4615,-4.4615,-4.4513,-4.4147,-4.4378,-4.4412,-4.3735,-4.3504,-4.3375,-4.3375,-4.3166,-4.3267,0.0,0.0,0.0,-4.709,-4.7665,-4.7852,0.0,-4.8498,0.0,-4.6447,-4.7243,-4.7439,0.0,-4.5844,-4.5562,-4.5562,-4.5562,-4.5433,-4.5143,-4.4388,-4.3875,-4.3654,-4.2912,-4.2204,-4.1492,-4.1591,-4.1624,-4.1624,-4.1624,-4.1624,-4.1624,-4.1624,-4.1624,-4.1656,-4.1917,-4.2046,-4.2078,-4.2395,-4.2738,-4.3106,-4.3376,-4.3588,-4.371,-4.3914,-4.3764,-4.3317,-4.2269,-4.2458,-4.2923,-4.2173,-4.2426,-4.2764,-4.2066,-4.2607,-4.306,-4.1661,-4.1782,-4.2011,-4.0912,-4.0662,-4.0408,-3.9373,-3.9187,-3.9116,-3.8843,-3.881,-3.8892,-3.9135,-3.9189,-3.9375,-4.0037,-4.0113,-4.0113,-4.0113,-4.0113,-4.0113,-4.0113,-4.0113,-4.0113,-4.0113,-4.0113,-4.0113,-4.0113,-4.0113,-4.0113,-4.0113,-4.0113,-4.0113,-4.0113,-4.0113,-4.0113,-4.0113,-4.0113,-4.0113,-4.0113,-4.0113,-4.0113,-4.4384,-4.4615,-4.4615,-4.4615,-4.4513,-4.4248,-4.3572,-4.3842,-4.3938,-4.2557,-4.2895,-4.3375,-4.3375,-4.2963,-4.3267,-4.5365,0.0,-4.5602,-4.7601,-4.7973,-4.8277,-4.8917,-4.9018,-4.8482,-4.7237,-4.7572,-4.7372,-4.6092,-4.6483,-4.6828,-4.6828,-4.6828,-4.6471,-4.5825,-4.5893,-4.5244,-4.388,-4.336,-4.2679,-4.1783,-4.1112,-4.0739,-4.0612,-4.0509,-4.0505,-4.0505,-4.0505,-4.0505,-4.0574,-4.1125,-4.136,-4.1426,-4.2013,-4.23,-4.2458,-4.3015,-4.2923,-4.2676,-4.3885,-4.3943,-4.3406,-4.2831,-4.2645,-4.2614,-4.252,-4.2923,-4.3257,-4.2676,-4.3439,-4.4158,-4.2883,-4.3064,-4.3341,-4.2517,-4.2368,-4.2085,-4.0745,-4.0497,-4.0155,-3.8823,-3.8581,-3.8716,-3.9142,-3.9189,-3.9375,-4.0037,-4.0113,-4.0113,-4.0113,-4.0113,-4.0113,-4.0113,-4.0113,-4.0113,-4.0113,-4.0113,-4.0113,-4.0113,-4.0113,-4.0113,-4.0113,-4.0113,-4.0113,-4.0113,-4.0113,-4.0113,-4.0113,-4.0113,-4.0113,-4.0113,-4.0113,-4.0113,-4.4581,-4.4615,-4.4615,-4.4615,-4.4079,-4.3544,-4.3409,-4.3031,0.0,-4.2354,-4.2895,-4.3375,-4.3375,-4.3842,-4.4519,-4.5534,-4.6109,-4.6752,-4.7736,-4.8443,-4.8849,0.0,-4.9018,-4.8892,-4.8642,-4.8161,0.0,0.0,-4.7069,-4.6828,-4.6828,-4.6828,-4.6471,-4.5825,-4.6323,-4.5995,-4.4626,-4.5046,-4.4589,-4.3299,-4.2644,-4.196,-4.1294,-4.0749,-4.0505,-4.0505,-4.0505,-4.0505,-4.0505,-4.0612,-4.0681,-4.0681,-4.0817,-4.1192,-4.1689,-4.1788,-4.2109,-4.2552,-4.2769,-4.3136,-4.3466,-4.3347,-4.3317,-4.3227,-4.2676,-4.2583,-4.2645,-4.2552,-4.3075,-4.3643,-4.3393,-4.3863,-4.4069,-4.2694,-4.2814,-4.2833,-4.1421,-4.1565,-4.1554,-4.0216,-3.9941,-3.9803,-3.9288,-3.9189,-3.9375,-4.0037,-4.0113,-4.0113,-4.0113,-4.0113,-4.0113,-4.0113,-4.0113,-4.0113,-4.0113,-4.0113,-4.0113,-4.0113,-4.0113,-4.0113,-4.0113,-4.0113,-4.0113,-4.0113,-4.0113,-4.0113,-4.0113,-4.0113,-4.0113,-4.0113,-4.0113,-4.0113,-4.506,-4.5162,-4.5162,-4.5162,-4.4891,-4.4282,-4.3098,0.0,0.0,-4.1373,-4.2049,-4.2828,-4.2828,-4.347,0.0,-4.55,-4.6007,-4.6616,-4.7736,-4.8176,-4.8578,-4.8951,-4.9018,-4.8861,-4.8482,-4.845,-4.8289,-4.7934,-4.7934,-4.7605,-4.6862,-4.6828,-4.6666,-4.6309,-4.6647,-4.6289,-4.5274,-4.5241,-4.4685,-4.3644,-4.2962,-4.2636,-4.26,-4.1912,-4.1619,-4.1622,-4.1213,-4.0817,-4.0505,-4.0505,-4.0505,-4.0505,-4.0505,-4.0681,-4.1024,-4.136,-4.1492,-4.1558,-4.2269,-4.2489,-4.252,-4.2862,-4.3469,-4.3943,-4.3227,-4.329,-4.3439,-4.2707,-4.3259,-4.3972,-4.3617,-4.403,-4.4429,-4.3714,-4.3452,-4.3109,-4.209,-4.2088,-4.2025,-4.1023,-4.1121,-4.1111,-4.0373,-4.0239,-4.0184,-4.0096,-4.0113,-4.0113,-4.0113,-4.0113,-4.0113,-4.0113,-4.0113,-4.0113,-4.0113,-4.0113,-4.0113,-4.0113,-4.0113,-4.0113,-4.0113,-4.0113,-4.0113,-4.0113,-4.0113,-4.0113,-4.0113,-4.0113,-4.0113,-4.0113,-4.0113,-4.0113,-4.5534,-4.5838,-4.5906,-4.5737,-4.5568,-4.4925,-4.276,-4.2625,0.0,-4.0485,-4.1162,-4.2117,-4.2252,-4.2895,-4.3882,0.0,-4.5703,-4.621,-4.7669,-4.7906,-4.8142,0.0,-4.9018,0.0,-4.8193,-4.8513,0.0,-4.7967,-4.829,-4.8064,-4.7101,-4.7067,-4.6932,-4.6795,-4.6932,-4.6673,-4.5919,-4.5437,-4.4773,-4.4037,-4.3368,-4.327,-4.3646,-4.2934,-4.2614,-4.2619,-4.1859,-4.1239,-4.072,-4.0566,-4.0505,-4.0505,-4.0505,-4.0505,-4.0543,-4.1091,-4.0956,-4.0646,-4.1722,-4.182,-4.1591,-4.2109,-4.3229,-4.4236,-4.3676,-4.4001,-4.4384,-4.3259,-4.3739,-4.4468,-4.3885,-4.4179,-4.4615,-4.4615,-4.3996,-4.3334,-4.296,-4.2724,-4.2366,-4.1664,-4.1972,-4.2099,-4.1358,-4.1362,-4.117,-4.0451,-4.035,-4.0282,-4.0113,-4.0113,-4.0113,-4.0113,-4.0113,-4.0113,-4.0113,-4.0113,-4.0113,-4.0113,-4.0113,-4.0113,-4.0113,-4.0113,-4.0113,-4.0113,-4.0113,-4.0113,-4.0113,-4.0113,-4.0113,-4.0113,-4.0113,-4.0113,-4.5703,-4.6177,-4.6549,-4.5872,-4.5196,-4.4276,-4.2658,0.0,-4.1136,-4.0282,-4.073,-4.1508,-4.2185,-4.2895,-4.3882,-4.5466,0.0,-4.621,-4.7669,-4.7906,-4.8142,-4.8917,0.0,0.0,-4.8892,-4.8354,-4.7999,-4.7934,-4.7339,-4.7271,-4.777,-4.7803,-4.7473,-4.6828,-4.7439,-4.744,-4.673,-4.6662,-4.6239,-4.5495,-4.484,-4.4173,-4.3573,-4.2905,-4.2618,-4.2587,-4.1908,-4.1564,-4.1463,-4.0751,-4.0505,-4.0505,-4.0505,-4.0505,-4.0505,-4.0543,-4.0543,-4.0539,-4.0646,-4.1057,-4.1525,-4.1591,-4.252,-4.3588,-4.3495,-4.4001,-4.4587,-4.444,-4.4497,-4.4587,-4.4497,-4.4559,-4.4615,-4.4615,-4.4026,-4.3664,-4.4282,-4.3896,-4.319,-4.244,-4.2336,-4.2133,-4.1404,-4.1802,-4.1948,-4.1204,-4.1102,-4.0865,-4.018,-4.0113,-4.0113,-4.0113,-4.0113,-4.0113,-4.0113,-4.0113,-4.0113,-4.0113,-4.0113,-4.0113,-4.0113,-4.0113,-4.0113,-4.0113,-4.0113,-4.0113,-4.0113,-4.0113,-4.0113,-4.0113,-4.0113,-4.0113,-4.5974,-4.6583,-4.6718,-4.6447,-4.6143,-4.5263,-4.2828,0.0,-4.1508,-4.035,-4.035,-4.0899,-4.2083,-4.2523,-4.3234,0.0,0.0,0.0,-4.6447,-4.6583,-4.7022,-4.8206,-4.8342,0.0,0.0,0.0,-4.8545,-4.8545,-4.7869,-4.7572,-4.7868,-4.7473,-4.7103,-4.6828,-4.7069,-4.7069,-4.6828,-4.6375,-4.5968,-4.5681,-4.4961,-4.4726,-4.4839,-4.4141,-4.3845,-4.3818,-4.3126,-4.2563,-4.214,-4.1463,-4.1186,-4.1124,-4.0659,-4.0505,-4.0505,-4.0505,-4.0505,-4.0505,-4.0505,-4.0681,-4.0888,-4.0888,-4.1525,-4.2363,-4.2769,-4.341,-4.3943,-4.3943,-4.4236,-4.4615,-4.4615,-4.4615,-4.4615,-4.4615,-4.4384,-4.4121,-4.3972,-4.4059,-4.3814,-4.2684,-4.2769,-4.2837,-4.208,-4.2176,-4.2256,-4.1895,-4.1847,-4.161,-4.0865,-4.0764,-4.0595,-4.0146,-4.0113,-4.0113,-4.0113,-4.0113,-4.0113,-4.0113,-4.0113,-4.0113,-4.0113,-4.0113,-4.0113,-4.0113,-4.0113,-4.0113,-4.0113,-4.0113,-4.0113,-4.0113,-4.0113,-4.0113,-4.5703,-4.6447,-4.6752,-4.6515,-4.6312,-4.5466,0.0,0.0,-4.161,-4.0383,-4.0113,-4.0553,-4.2016,-4.2286,-4.2794,0.0,0.0,-4.4886,-4.5602,-4.5703,-4.6177,-4.7428,0.0,-4.7777,-4.8301,-4.8348,-4.8354,-4.8354,-4.7869,-4.7638,-4.7901,-4.7406,-4.7033,-4.6828,-4.7001,-4.7001,-4.6828,-4.6304,-4.602,-4.602,-4.529,-4.5216,-4.5665,-4.4934,-4.4642,-4.4616,-4.3921,-4.3318,-4.2848,-4.2171,-4.1894,-4.1832,-4.1124,-4.0951,-4.1096,-4.0879,-4.0817,-4.0817,-4.0817,-4.0681,-4.0505,-4.0505,-4.0817,-4.1294,-4.1787,-4.252,-4.3196,-4.3196,-4.3706,-4.4293,-4.4525,-4.4615,-4.4615,-4.4615,-4.4615,-4.4468,-4.3943,-4.4059,-4.3972,-4.2984,-4.3166,-4.3271,-4.2538,-4.2767,-4.2912,-4.2393,-4.2517,-4.2354,-4.161,-4.1542,-4.1339,-4.0823,-4.0553,-4.035,-4.0113,-4.0113,-4.0113,-4.0113,-4.0113,-4.0113,-4.0113,-4.0113,-4.0113,-4.0113,-4.0113,-4.0113,-4.0113,-4.0113,-4.0113,-4.0113,-4.0113,-4.0113,-4.4615,-4.5698,-4.6616,-4.5906,-4.5162,-4.4209,0.0,-4.1745,-4.1001,-4.0248,-4.0113,-4.0553,-4.2016,-4.2286,-4.2794,-4.4344,0.0,0.0,-4.5602,-4.5703,-4.5974,0.0,0.0,-4.6787,-4.6839,-4.6812,-4.6828,-4.6828,-4.6828,0.0,-4.7836,-4.7868,-4.7539,-4.6795,-4.7506,-4.7539,-4.6828,-4.6793,-4.6793,-4.6793,-4.6056,-4.5697,-4.566,-4.4918,-4.461,-4.4579,-4.3901,-4.3593,-4.3562,-4.2879,-4.2602,-4.254,-4.1863,-4.2011,-4.2503,-4.1745,-4.1492,-4.1492,-4.1492,-4.1057,-4.0505,-4.0505,-4.0474,-4.0539,-4.0539,-4.1459,-4.252,-4.252,-4.2984,-4.3676,-4.4412,-4.4615,-4.4615,-4.4615,-4.4615,-4.4615,-4.4615,-4.4001,-4.3495,-4.3466,-4.3529,-4.3287,-4.2582,-4.3647,-4.4086,-4.2626,-4.2953,-4.3132,-4.2388,-4.2286,-4.2286,-4.2286,-4.161,-4.0899,-4.018,-4.0113,-4.0113,-4.0113,-4.0113,-4.0113,-4.0113,-4.0113,-4.0113,-4.0113,-4.0113,-4.0113,-4.0113,-4.0113,-4.0113,-4.0113,-4.0113,-4.0113,-4.3504,-4.4113,-4.4418,-4.4215,-4.3978,-4.3403,-4.188,-4.1373,-4.1001,-4.0248,-4.0113,-4.0553,-4.2016,-4.2286,-4.2794,-4.4344,-4.4615,0.0,0.0,0.0,0.0,-4.6021,-4.6482,-4.6815,0.0,0.0,-4.6828,-4.6828,-4.6828,-4.6898,-4.7137,-4.7137,-4.7505,-4.829,-4.8032,-4.777,-4.7539,-4.6553,-4.6304,-4.6793,-4.6056,-4.5985,-4.6445,-4.6234,-4.5841,-4.5332,-4.5112,-4.4756,-4.424,-4.3562,-4.3248,-4.3187,-4.254,-4.2407,-4.2625,-4.2902,-4.2663,-4.2351,-4.2847,-4.2201,-4.116,-4.116,-4.0854,-4.0505,-4.0505,-4.1125,-4.1917,-4.2363,-4.2645,-4.2862,-4.3075,-4.3499,-4.3856,-4.3856,-4.4236,-4.4615,-4.4615,-4.4412,-4.4121,-4.3617,-4.3495,-4.3436,-4.3227,-4.3166,-4.3161,-4.3138,-4.2957,-4.2664,-4.2404,-4.236,-4.2362,-4.2327,-4.2083,-4.1644,-4.0899,-4.0383,-4.0113,-4.0113,-4.0113,-4.0113,-4.0113,-4.0113,-4.0113,-4.0113,-4.0113,-4.0113,-4.0113,-4.0113,-4.0113,-4.0113,-4.0113,-4.0113,0.0,-4.2794,-4.2997,-4.2997,-4.2794,0.0,-4.1407,-4.0967,-4.0629,-4.018,-4.0113,-4.0553,-4.2016,-4.2286,-4.2794,-4.4344,-4.4615,0.0,0.0,0.0,0.0,-4.5711,0.0,0.0,0.0,-4.5968,-4.5985,-4.5985,-4.5985,-4.6092,-4.6375,-4.6378,-4.6932,-4.8129,-4.7737,-4.7473,-4.7473,-4.6553,-4.6375,-4.6793,-4.634,-4.6375,-4.6828,-4.6828,-4.655,-4.6127,-4.6127,-4.5841,0.0,-4.4674,-4.4408,-4.4309,-4.3364,-4.3154,-4.3381,-4.3563,-4.3563,-4.3417,-4.3617,-4.3097,-4.225,-4.1695,-4.1069,-4.0505,-4.0505,-4.0817,-4.126,-4.1917,-4.2109,-4.2173,-4.2426,-4.28,-4.3106,-4.3106,-4.3469,-4.3856,-4.415,-4.4179,-4.415,-4.3943,-4.3914,-4.3856,-4.3558,-4.341,-4.335,-4.3466,-4.3136,-4.2851,-4.2811,-4.2598,-4.2521,-4.2719,-4.2473,-4.2246,-4.2057,-4.1339,-4.0925,-4.0925,-4.0925,-4.0925,-4.0925,-4.0925,-4.0925,-4.0925,-4.0654,-4.0519,-4.0493,-4.0248,-4.0113,-4.0113,-4.0113,-4.0113,0.0,-4.161,-4.2117,-4.2117,-4.1644,-4.1136,-4.1136,-4.0595,0.0,-4.018,-4.018,-4.0654,-4.2117,-4.2388,-4.2861,-4.4378,-4.4615,0.0,0.0,-4.5177,0.0,0.0,-4.5032,0.0,-4.4508,-4.4583,-4.461,-4.461,-4.461,-4.4911,-4.5588,-4.5624,-4.5949,-4.662,-4.6655,-4.6689,-4.6724,-4.6689,-4.6689,-4.6724,-4.6724,-4.6759,-4.6828,-4.6862,-4.6862,-4.6828,-4.6862,-4.6862,-4.6726,-4.602,-4.5697,-4.5561,-4.4198,-4.406,-4.4508,-4.3983,-4.415,-4.459,-4.3947,-4.3709,-4.3479,-4.2151,-4.1256,-4.067,-4.067,-4.057,-4.0612,-4.1227,-4.1426,-4.1591,-4.2205,-4.2395,-4.2426,-4.2426,-4.2458,-4.2676,-4.3287,-4.3466,-4.3706,-4.4384,-4.4587,-4.4384,-4.3706,-4.4121,-4.4293,-4.3617,-4.3436,-4.3436,-4.3466,-4.2923,-4.2769,-4.3529,-4.2932,-4.2737,-4.3449,-4.276,-4.2286,-4.2286,-4.2286,-4.2286,-4.2286,-4.2286,-4.2286,-4.2286,-4.1644,-4.1271,-4.1271,-4.0527,-4.018,-4.018,-4.0113,-4.0113,-4.0316,0.0,-4.062,-4.062,-4.0485,-4.0383,0.0,0.0,0.0,0.0,-4.0933,-4.1407,-4.2861,-4.3139,-4.347,-4.4445,-4.4615,-4.4615,-4.4615,-4.4749,0.0,-4.493,-4.471,-4.4372,-4.3876,-4.4284,-4.461,-4.461,-4.461,-4.4685,-4.4874,-4.4874,-4.4918,-4.5104,-4.5104,-4.5369,-4.5949,-4.54,-4.54,-4.5985,-4.5985,-4.6237,-4.6828,-4.7372,-4.7305,-4.6862,-4.7372,-4.7305,-4.6726,-4.602,-4.5697,-4.5624,-4.4725,-4.4439,-4.4632,-4.507,-4.4946,-4.4678,-4.506,-4.4503,-4.3576,-4.328,-4.2708,-4.2108,-4.2145,-4.1392,-4.0509,-4.0681,-4.0749,-4.0783,-4.0922,-4.136,-4.1754,-4.1754,-4.2141,-4.2552,-4.2707,-4.3136,-4.3558,-4.3735,-4.4207,-4.4525,-4.4384,-4.4001,-4.3706,-4.3525,-4.3075,-4.2923,-4.3436,-4.2923,-4.2953,-4.4207,-4.3689,-4.3531,-4.4254,-4.3064,-4.2286,-4.2286,-4.2286,-4.2286,-4.2286,-4.2286,-4.2286,-4.2286,-4.2117,-4.2049,-4.2049,-4.1305,-4.0933,-4.0933,-4.0383,-4.0113,-4.1027,-4.0857,-4.0595,-4.0595,-4.0857,-4.1128,-4.1128,0.0,0.0,0.0,-4.1711,-4.2049,-4.3172,-4.3375,-4.3673,-4.4479,-4.4615,0.0,0.0,0.0,-4.4395,-4.5085,-4.4533,-4.4148,0.0,-4.4394,-4.461,-4.461,-4.461,-4.461,-4.461,-4.461,-4.461,-4.461,-4.461,-4.4799,-4.5179,-4.4799,-4.4799,-4.5216,-4.5515,-4.5913,-4.634,-4.7035,-4.7171,-4.6828,-4.7204,-4.7171,-4.6793,-4.6375,-4.602,-4.566,-4.5253,-4.4911,-4.4648,-4.503,-4.5149,-4.5124,-4.5164,-4.4508,-4.3617,-4.3622,-4.3185,-4.2618,-4.2622,-4.2124,-4.1304,-4.0659,-4.0505,-4.0505,-4.0505,-4.0783,-4.1057,-4.1057,-4.1327,-4.1689,-4.1981,-4.2332,-4.2769,-4.3376,-4.3558,-4.3827,-4.4468,-4.3972,-4.3617,-4.3943,-4.341,-4.3075,-4.3436,-4.2923,-4.2892,-4.3972,-4.3735,-4.3794,-4.4559,-4.3836,-4.3362,-4.3362,-4.3362,-4.3362,-4.3362,-4.3362,-4.3166,-4.2828,-4.2794,-4.2625,-4.2286,-4.1576,-4.1204,-4.1204,-4.0798,-4.0595,-4.2117,-4.1914,-4.1508,-4.1407,-4.1847,-4.2286,-4.2286,0.0,0.0,0.0,0.0,0.0,0.0,-4.3606,-4.3809,-4.4513,0.0,0.0,-4.5433,-4.452,-4.4136,-4.5259,-4.4423,0.0,-4.4425,-4.4548,-4.461,-4.461,-4.461,-4.461,-4.461,-4.461,-4.461,-4.461,-4.461,-4.461,-4.461,-4.461,-4.461,-4.461,-4.5253,-4.5515,-4.5551,-4.6304,-4.6622,-4.6655,-4.6759,-4.6828,-4.6828,-4.6828,-4.6445,-4.5877,-4.5733,-4.5326,-4.4761,-4.4648,-4.5067,-4.5588,-4.4993,-4.4315,-4.3747,-4.3895,-4.3463,-4.2901,-4.2937,-4.2844,-4.2499,-4.1186,-4.0751,-4.0659,-4.0659,-4.0566,-4.0505,-4.0505,-4.0505,-4.0646,-4.1194,-4.1426,-4.1852,-4.2984,-4.2831,-4.2862,-4.4064,-4.3856,-4.3706,-4.4355,-4.4001,-4.3676,-4.3676,-4.3075,-4.2923,-4.3588,-4.3588,-4.3794,-4.4559,-4.4615,-4.4615,-4.4615,-4.4615,-4.4615,-4.4615,-4.4615,-4.4282,-4.3606,-4.3606,-4.3301,-4.2625,-4.1914,-4.1542,-4.1542,-4.1407,-4.1373,-4.2252,-4.2658,-4.2902,-4.2286,-4.2219,-4.2286,-4.2286,0.0,0.0,0.0,0.0,0.0,0.0,-4.4445,-4.4479,-4.4581,0.0,-4.4644,0.0,0.0,-4.4323,-4.3967,0.0,-4.4271,-4.3809,-4.4271,-4.461,-4.461,-4.461,-4.461,-4.461,-4.461,-4.461,-4.461,-4.461,-4.461,-4.461,-4.461,-4.461,-4.461,-4.4723,-4.4761,-4.4799,-4.5515,-4.5877,-4.5913,-4.655,-4.6828,-4.6828,-4.6828,-4.6759,-4.6585,-4.5949,-4.5624,-4.5473,-4.4836,-4.5067,-4.5697,-4.5551,-4.5079,-4.4569,-4.5138,-4.4881,-4.4279,-4.435,-4.3941,-4.3294,-4.2504,-4.1894,-4.1432,-4.1432,-4.097,-4.0505,-4.0505,-4.0505,-4.0539,-4.0612,-4.1091,-4.1558,-4.1787,-4.2173,-4.2583,-4.2769,-4.3196,-4.3558,-4.3647,-4.4121,-4.444,-4.444,-4.3798,-4.3617,-4.4355,-4.3885,-4.3794,-4.4559,-4.4615,-4.4615,-4.4615,-4.4615,-4.4615,-4.4615,-4.4615,-4.4547,-4.4445,-4.4445,-4.4378,-4.4242,-4.347,-4.3037,-4.3037,-4.2422,-4.2117,-4.3403,-4.3775,-4.3978,-4.3606,-4.3565,-4.3565,-4.3565,0.0,0.0,0.0,0.0,0.0,0.0,0.0,-4.5183,-4.5169,0.0,-4.5514,-4.4709,-4.4603,-4.4522,0.0,-4.4093,-4.4086,-4.4148,-4.4425,-4.461,-4.461,-4.461,-4.461,-4.461,-4.461,-4.461,-4.461,-4.461,-4.461,-4.461,-4.461,-4.461,-4.461,-4.461,-4.461,-4.461,-4.4955,-4.5104,-4.5104,-4.5442,-4.5588,-4.5624,-4.6056,-4.5985,-4.5624,-4.566,-4.5697,-4.566,-4.5326,-4.5405,-4.5624,-4.5253,-4.488,-4.4648,-4.4993,-4.4849,-4.46,-4.4637,-4.4419,-4.4091,-4.3791,-4.294,-4.214,-4.214,-4.1894,-4.1648,-4.1648,-4.137,-4.1093,-4.1093,-4.1028,-4.1057,-4.1426,-4.1459,-4.1656,-4.2363,-4.2769,-4.3075,-4.3436,-4.3764,-4.415,-4.4559,-4.3943,-4.3764,-4.4497,-4.4293,-4.4236,-4.4587,-4.4615,-4.4615,-4.4615,-4.4615,-4.4615,-4.4615,-4.4615,-4.4615,-4.4615,-4.4615,-4.4615,-4.4615,-4.3809,-4.3375,-4.3375,-4.3064,-4.2895,-4.4418,-4.4615,-4.4615,-4.4615,-4.4615,-4.4649,-4.4818,-4.4886,-4.4919,0.0,0.0,0.0,0.0,-4.5331,0.0,-4.5491,-4.6067,-4.6078,-4.4773,-4.4637,-4.4655,-4.4625,-4.4173,-4.4055,-4.4579,-4.461,-4.461,-4.461,-4.461,-4.461,-4.461,-4.461,-4.461,-4.461,-4.461,-4.461,-4.461,-4.461,-4.461,-4.461,-4.461,-4.461,-4.461,-4.461,-4.461,-4.461,-4.461,-4.461,-4.4648,-4.54,-4.54,-4.4918,-4.5478,-4.5588,-4.5478,-4.5841,-4.5841,-4.5624,-4.5253,-4.4993,-4.4836,-4.4648,-4.461,-4.461,-4.461,-4.461,-4.461,-4.461,-4.3864,-4.3069,-4.3066,-4.287,-4.2638,-4.2788,-4.2345,-4.1832,-4.1832,-4.1401,-4.1079,-4.1473,-4.1134,-4.1038,-4.1884,-4.2173,-4.2458,-4.2953,-4.3166,-4.3529,-4.4236,-4.3856,-4.3764,-4.4497,-4.4615,-4.4615,-4.4615,-4.4615,-4.4615,-4.4615,-4.4615,-4.4615,-4.4615,-4.4615,-4.4615,-4.4615,-4.4615,-4.4615,-4.4615,-4.3978,-4.3673,-4.3673,-4.3673,-4.3673,-4.4581,-4.4615,-4.4615,-4.4615,-4.4615,-4.4784,-4.5466,-4.5635,-4.5838,-4.6481,0.0,0.0,0.0,-4.5669,-4.5466,-4.4789,-4.5307,-4.5514,-4.4738,-4.4606,-4.46,-4.4624,-4.4548,-4.4579,-4.461,-4.461,-4.461,-4.461,-4.461,-4.461,-4.461,-4.461,-4.461,-4.461,-4.461,-4.461,-4.461,-4.461,-4.461,-4.461,-4.461,-4.461,-4.461,-4.461,-4.461,-4.461,-4.461,-4.461,-4.4648,-4.54,-4.566,-4.5624,-4.566,-4.529,-4.4874,-4.6234,-4.6304,-4.5805,-4.6445,-4.6198,-4.5515,-4.4836,-4.461,-4.461,-4.461,-4.461,-4.461,-4.461,-4.4548,-4.4483,-4.4531,-4.3577,-4.2752,-4.3469,-4.3047,-4.254,-4.254,-4.2509,-4.2263,-4.1718,-4.156,-4.1344,-4.0735,-4.1158,-4.1591,-4.1656,-4.2173,-4.2831,-4.3466,-4.3525,-4.3764,-4.4497,-4.4615,-4.4615,-4.4615,-4.4615,-4.4615,-4.4615,-4.4615,-4.4615,-4.4615,-4.4615,-4.4615,-4.4615,-4.4615,-4.4615,-4.4615,-4.4547,-4.4513,-4.4513,-4.4513,-4.4513,-4.4615,-4.4615,-4.4615,-4.4615,-4.4615,-4.4818,-4.5534,-4.5703,-4.5771,-4.6075,-4.6244,0.0,0.0,0.0,-4.63,-4.5994,-4.6222,-4.6124,-4.5374,-4.529,-4.5104,-4.4648,-4.461,-4.461,-4.461,-4.461,-4.461,-4.461,-4.461,-4.461,-4.461,-4.461,-4.461,-4.461,-4.461,-4.461,-4.461,-4.461,-4.461,-4.461,-4.461,-4.461,-4.461,-4.461,-4.461,-4.461,-4.461,-4.461,-4.461,-4.488,-4.503,-4.5067,-4.5515,-4.5515,-4.5363,-4.5913,-4.5949,-4.566,-4.5478,-4.5551,-4.566,-4.5369,-4.529,-4.529,-4.529,-4.4955,-4.461,-4.461,-4.461,-4.4586,-4.4645,-4.4248,-4.3908,-4.421,-4.3753,-4.3217,-4.3217,-4.2879,-4.254,-4.2263,-4.2232,-4.2017,-4.1309,-4.1744,-4.2029,-4.1555,-4.1722,-4.2109,-4.28,-4.2892,-4.3136,-4.3856,-4.4355,-4.4615,-4.4615,-4.4615,-4.4615,-4.4615,-4.4615,-4.4615,-4.4615,-4.4615,-4.4615,-4.4615,-4.4615,-4.4615,-4.4615,-4.4615,-4.4615,-4.4615,-4.4615,-4.4615,-4.4615,-4.4615,-4.4615,-4.4615,-4.4615,-4.4852,-4.5838,-4.6041,-4.6177,-4.665,-4.6604,-4.6578,-4.6756,0.0,0.0,-4.6421,-4.6444,-4.6198,-4.5442,-4.5363,-4.5179,-4.4648,-4.461,-4.461,-4.461,-4.461,-4.461,-4.461,-4.461,-4.461,-4.461,-4.461,-4.461,-4.461,-4.461,-4.461,-4.461,-4.461,-4.461,-4.461,-4.461,-4.461,-4.461,-4.461,-4.461,-4.461,-4.461,-4.461,-4.461,-4.461,-4.461,-4.4648,-4.5179,-4.5363,-4.5369,-4.5624,-4.5697,-4.5624,-4.5104,-4.529,-4.566,-4.5437,-4.5363,-4.54,-4.5624,-4.5179,-4.4648,-4.488,-4.4799,-4.461,-4.461,-4.461,-4.4648,-4.488,-4.4427,-4.4007,-4.4198,-4.371,-4.3229,-4.3268,-4.3092,-4.2694,-4.2017,-4.2319,-4.2413,-4.1912,-4.1849,-4.2025,-4.2462,-4.2527,-4.278,-4.3439,-4.4179,-4.4615,-4.4615,-4.4615,-4.4615,-4.4615,-4.4615,-4.4615,-4.4615,-4.4615,-4.4615,-4.4615,-4.4615,-4.4615,-4.4615,-4.4615,-4.4615,-4.4615,-4.4615,-4.4615,-4.4615,-4.4615,-4.4615,-4.4615,-4.4615,-4.4987,-4.6447,-4.6786,-4.7192,-4.868,-4.7278,-4.6029,-4.6667,-4.5654,0.0,-4.5596,-4.5684,-4.5442,-4.4723,-4.461,-4.461,-4.461,-4.461,-4.461,-4.461,-4.461,-4.461,-4.461,-4.461,-4.461,-4.461,-4.461,-4.461,-4.461,-4.461,-4.461,-4.461,-4.461,-4.461,-4.461,-4.461,-4.461,-4.461,-4.461,-4.461,-4.461,-4.461,-4.461,-4.461,-4.461,-4.461,-4.461,-4.461,-4.461,-4.4685,-4.5405,-4.5697,-4.5697,-4.5697,-4.5697,-4.5588,-4.4874,-4.461,-4.4761,-4.5478,-4.5179,-4.4761,-4.5478,-4.5179,-4.461,-4.461,-4.461,-4.4799,-4.5515,-4.5142,-4.4799,-4.5515,-4.5104,-4.462,-4.4705,-4.4107,-4.3408,-4.2725,-4.2633,-4.2633,-4.2602,-4.2602,-4.2576,-4.259,-4.2631,-4.2845,-4.3446,-4.4179,-4.4615,-4.4615,-4.4615,-4.4615,-4.4615,-4.4615,-4.4615,-4.4615,-4.4615,-4.4615,-4.4615,-4.4615,-4.4615,-4.4615,-4.4615,-4.4615,-4.4615,-4.4615,-4.4615,-4.4615,-4.4615,-4.4615,-4.4615,-4.4993,-4.5602,0.0,-4.638,0.0,0.0,-4.7717,-4.72,-4.6855,-4.6454,-4.6083,-4.5758,-4.5258,-4.503,-4.5326,-4.4918,-4.461,-4.461,-4.461,-4.461,-4.461,-4.461,-4.461,-4.461,-4.461,-4.461,-4.461,-4.461,-4.461,-4.461,-4.461,-4.461,-4.461,-4.461,-4.461,-4.461,-4.461,-4.461,-4.461,-4.461,-4.461,-4.461,-4.461,-4.461,-4.461,-4.461,-4.461,-4.461,-4.461,-4.461,-4.461,-4.4874,-4.4949,-4.4949,-4.4949,-4.529,-4.566,-4.5442,-4.5369,-4.5405,-4.5624,-4.5179,-4.4648,-4.4843,-4.4761,-4.461,-4.461,-4.461,-4.4648,-4.4843,-4.4761,-4.4648,-4.488,-4.4761,-4.4586,-4.4632,-4.4452,-4.4117,-4.3439,-4.3316,-4.3125,-4.2663,-4.2602,-4.2762,-4.3252,-4.3769,-4.4334,-4.4993,-4.5693,-4.6172,-4.6172,-4.6172,-4.5906,-4.5399,-4.5365,-4.5128,-4.4615,-4.4615,-4.4615,-4.4615,-4.4615,-4.4615,-4.4615,-4.4615,-4.4615,-4.4615,-4.4615,-4.4615,-4.4497,-4.4525,-4.4682,-4.4959,-4.5365,-4.5906,-4.6616,0.0,0.0,0.0,-4.7642,-4.71,-4.7238,-4.6311,-4.5578,-4.5664,-4.5081,-4.4761,-4.5216,-4.488,-4.461,-4.461,-4.461,-4.461,-4.461,-4.461,-4.461,-4.461,-4.461,-4.461,-4.461,-4.461,-4.461,-4.461,-4.461,-4.461,-4.461,-4.461,-4.461,-4.461,-4.461,-4.461,-4.461,-4.461,-4.461,-4.461,-4.461,-4.461,-4.461,-4.461,-4.461,-4.461,-4.461,-4.461,-4.461,-4.461,-4.461,-4.461,-4.461,-4.488,-4.5253,-4.5253,-4.5253,-4.5326,-4.5588,-4.5179,-4.4648,-4.4955,-4.4836,-4.461,-4.461,-4.4836,-4.4955,-4.4685,-4.461,-4.4685,-4.4955,-4.4836,-4.4685,-4.4955,-4.4799,-4.4486,-4.4086,-4.4254,-4.4173,-4.3507,-4.3156,-4.3154,-4.3555,-4.3974,-4.4525,-4.5241,-4.5934,-4.6484,-4.6786,-4.6786,-4.6616,-4.6177,-4.6143,-4.594,-4.5495,-4.4919,-4.4615,-4.4615,-4.4615,-4.4615,-4.4615,-4.4615,-4.4615,-4.4615,-4.4615,-4.4615,-4.4384,-4.4468,-4.4784,-4.5534,-4.5805,-4.6109,-4.6819,-4.8037,-4.8984,-4.8917,0.0,-4.6353,-4.7572,-4.562,-4.4167,-4.5384,-4.503,-4.461,-4.461,-4.461,-4.461,-4.461,-4.461,-4.461,-4.461,-4.461,-4.461,-4.461,-4.461,-4.461,-4.461,-4.461,-4.461,-4.461,-4.461,-4.461,-4.461,-4.4548,-4.4548,-4.461,-4.4548,-4.4548,-4.461,-4.461,-4.461,-4.461,-4.461,-4.461,-4.461,-4.461,-4.461,-4.461,-4.461,-4.461,-4.461,-4.461,-4.461,-4.461,-4.461,-4.461,-4.461,-4.461,-4.461,-4.4723,-4.54,-4.5142,-4.4761,-4.5405,-4.5104,-4.461,-4.461,-4.5104,-4.5442,-4.4836,-4.4685,-4.488,-4.5551,-4.5104,-4.4799,-4.5442,-4.5067,-4.461,-4.461,-4.5179,-4.54,-4.4799,-4.4236,-4.3871,-4.3797,-4.3925,-4.4213,-4.4851,-4.5566,-4.6288,-4.6959,-4.6989,-4.6955,-4.6887,-4.6887,-4.6853,-4.6786,-4.5529,-4.4784,-4.4716,-4.4716,-4.4682,-4.4615,-4.4615,-4.4615,-4.4615,-4.4615,-4.4615,-4.4497,-4.4587,-4.4784,-4.5534,-4.6583,-4.7601,-4.8376,-4.8781,-4.8849,-4.8274,-4.7756,-4.7375,-4.7103,-4.6071,-4.5138,-4.488,-4.4685,-4.461,-4.461,-4.461,-4.461,-4.461,-4.461,-4.461,-4.461,-4.461,-4.461,-4.461,-4.461,-4.461,-4.461,-4.461,-4.461,-4.461,-4.461,-4.461,-4.461,-4.4086,-4.4086,-4.461,-4.4086,-4.4086,-4.461,-4.461,-4.461,-4.461,-4.461,-4.461,-4.461,-4.461,-4.461,-4.461,-4.461,-4.461,-4.461,-4.461,-4.461,-4.461,-4.461,-4.461,-4.461,-4.461,-4.461,-4.461,-4.4799,-4.4723,-4.4648,-4.4799,-4.4723,-4.461,-4.461,-4.4723,-4.4918,-4.5332,-4.5442,-4.5515,-4.566,-4.5104,-4.4648,-4.4836,-4.4723,-4.461,-4.461,-4.4723,-4.4955,-4.54,-4.5822,-4.5904,-4.5331,-4.6267,-4.6814,-4.6376,-4.7502,-4.8357,-4.8511,-4.8545,-4.8274,-4.7699,-4.7665,-4.7394,-4.6819,-4.6481,-4.6041,-4.5466,-4.5466,-4.5162,-4.4615,-4.4615,-4.4615,-4.4615,-4.4615,-4.4615,-4.4355,-4.4502,-4.4784,-4.5534,0.0,-4.8443,-4.8477,-4.8748,-4.879,-4.8075,-4.7604,-4.7137,-4.6378,-4.566,-4.503,-4.4648,-4.461,-4.461,-4.461,-4.461,-4.461,-4.461,-4.461,-4.461,-4.461,-4.461,-4.461,-4.461,-4.461,-4.461,-4.461,-4.461,-4.461,-4.461,-4.4302,-4.4148,-4.4148,-4.3778,-4.3778,-4.4148,-4.4086,-4.4271,-4.461,-4.461,-4.461,-4.461,-4.461,-4.461,-4.461,-4.461,-4.461,-4.461,-4.461,-4.461,-4.461,-4.461,-4.461,-4.461,-4.461,-4.461,-4.461,-4.461,-4.461,-4.461,-4.461,-4.461,-4.461,-4.461,-4.461,-4.461,-4.461,-4.4874,-4.5216,-4.5588,-4.5697,-4.5697,-4.5697,-4.54,-4.503,-4.4685,-4.461,-4.461,-4.461,-4.461,-4.4874,-4.5588,-4.602,-4.6127,-4.5733,-4.6692,-4.7339,-4.7305,-4.7999,-4.8608,-4.8954,-4.9018,-4.8849,-4.8477,-4.8443,-4.8274,-4.7868,-4.7834,-4.7327,-4.6244,-4.6244,-4.6041,-4.5664,-4.5297,-4.5128,-4.5128,-4.4784,-4.4615,-4.4126,-4.4399,-4.4897,-4.5476,-4.7162,0.0,-4.8007,-4.8376,-4.863,-4.8031,-4.7305,-4.6585,-4.5841,-4.5104,-4.461,-4.461,-4.461,-4.461,-4.461,-4.461,-4.461,-4.461,-4.461,-4.461,-4.461,-4.461,-4.461,-4.461,-4.461,-4.461,-4.461,-4.461,-4.461,-4.461,-4.3963,-4.3655,-4.3778,-4.3439,-4.3377,-4.3624,-4.4178,-4.4456,-4.4456,-4.4579,-4.461,-4.461,-4.4486,-4.4517,-4.461,-4.4486,-4.4517,-4.461,-4.461,-4.461,-4.461,-4.461,-4.461,-4.461,-4.461,-4.461,-4.461,-4.461,-4.461,-4.461,-4.461,-4.461,-4.461,-4.461,-4.461,-4.461,-4.461,-4.5067,-4.5515,-4.566,-4.5697,-4.5697,-4.5697,-4.5697,-4.5478,-4.4761,-4.461,-4.4648,-4.4761,-4.4799,-4.4993,-4.5588,-4.5805,-4.5913,-4.5913,-4.6518,-4.7204,-4.7803,-4.8032,-4.8354,-4.8956,-4.9018,-4.9018,-4.9018,-4.9018,-4.9018,-4.9018,-4.9018,-4.8443,-4.7192,-4.7056,-4.6921,-4.6786,-4.6177,-4.5906,-4.5872,-4.5128,-4.4818,-4.4068,0.0,-4.5303,0.0,-4.6262,-4.7225,0.0,0.0,-4.8023,0.0,-4.7305,-4.6585,-4.5841,-4.5104,-4.461,-4.461,-4.461,-4.461,-4.461,-4.461,-4.461,-4.461,-4.461,-4.461,-4.461,-4.461,-4.461,-4.461,-4.461,-4.461,-4.461,-4.461,-4.461,-4.461,-4.3963,-4.3901,-4.4486,-4.2725,-4.2448,-4.3593,-4.3685,-4.3747,-4.3747,-4.4363,-4.461,-4.4579,-4.3994,-4.4086,-4.4579,-4.3994,-4.4086,-4.461,-4.461,-4.461,-4.461,-4.461,-4.461,-4.461,-4.461,-4.461,-4.461,-4.461,-4.461,-4.461,-4.461,-4.461,-4.461,-4.461,-4.461,-4.461,-4.461,-4.4685,-4.488,-4.5551,-4.5697,-4.5697,-4.5697,-4.5697,-4.5478,-4.4761,-4.461,-4.4799,-4.5442,-4.5551,-4.5588,-4.5697,-4.6269,-4.6622,-4.6622,-4.7272,-4.777,-4.7901,-4.8482,-4.8892,-4.8984,-4.9018,-4.9018,-4.9018,-4.9018,-4.9018,-4.9018,-4.9018,-4.8917,-4.8714,-4.8105,-4.7462,-4.6786,-4.6684,-4.665,-4.6616,-4.5906,-4.5568,-4.4068,-4.4749,-4.5303,0.0,-4.579,-4.6786,-4.6684,-4.6989,-4.7181,-4.6736,-4.6388,-4.6102,-4.5778,-4.5405,-4.5067,-4.4685,-4.461,-4.461,-4.461,-4.461,-4.461,-4.461,-4.461,-4.461,-4.461,-4.461,-4.461,-4.461,-4.4271,-4.4209,-4.4579,-4.4271,-4.4209,-4.461,-4.3587,-4.3187,-4.3464,-4.2232,-4.2078,-4.3033,-4.3033,-4.3033,-4.3033,-4.334,-4.3895,-4.4579,-4.3901,-4.3778,-4.4024,-4.3716,-4.3778,-4.4086,-4.4456,-4.461,-4.461,-4.461,-4.461,-4.461,-4.461,-4.461,-4.461,-4.461,-4.461,-4.461,-4.461,-4.461,-4.461,-4.461,-4.461,-4.461,-4.461,-4.461,-4.4685,-4.4993,-4.5067,-4.5067,-4.5067,-4.5733,-4.6234,-4.5913,-4.5841,-4.5949,-4.6269,-4.634,-4.634,-4.634,-4.6932,-4.7272,-4.6862,-4.7803,-4.8386,-4.7967,-4.8545,-4.9018,-4.9018,-4.9018,-4.9018,-4.9018,-4.9018,-4.9018,-4.9018,-4.9018,-4.9018,-4.9018,-4.868,-4.8376,-4.8037,-4.7631,-4.7428,-4.7394,-4.665,-4.6312,-4.3952,0.0,-4.4913,-4.4404,-4.5192,-4.6051,0.0,0.0,-4.6431,0.0,-4.5828,-4.5663,-4.5489,-4.5439,-4.519,-4.4439,-4.4517,-4.461,-4.461,-4.461,-4.461,-4.461,-4.4456,-4.4425,-4.461,-4.4456,-4.4363,-4.4363,-4.3901,-4.3747,-4.4048,-4.3624,-4.3593,-4.4079,-4.2971,-4.2509,-4.2848,-4.2355,-4.2263,-4.2602,-4.2602,-4.2602,-4.2602,-4.2602,-4.3156,-4.4048,-4.3408,-4.3285,-4.3593,-4.3439,-4.3562,-4.3901,-4.4425,-4.461,-4.461,-4.461,-4.461,-4.461,-4.461,-4.461,-4.461,-4.461,-4.461,-4.461,-4.461,-4.461,-4.461,-4.461,-4.461,-4.461,-4.461,-4.461,-4.461,-4.461,-4.461,-4.4648,-4.4836,-4.5588,-4.641,-4.6967,-4.6761,-4.6655,-4.7001,-4.6898,-4.6828,-4.6828,-4.7272,-4.7473,-4.7135,-4.8032,-4.8576,-4.8225,-4.8639,-4.9018,-4.9018,-4.9018,-4.9018,-4.9018,-4.9018,-4.9018,-4.9018,-4.9018,-4.9018,-4.9018,-4.9018,-4.9018,-4.9018,-4.8477,-4.8206,-4.8173,-4.7428,-4.709,0.0,-4.378,0.0,-4.4102,-4.4246,-4.4653,0.0,0.0,-4.5911,-4.6621,-4.6246,-4.5561,-4.4886,-4.4705,-4.4432,-4.3778,-4.4209,-4.461,-4.461,-4.461,-4.461,-4.461,-4.4055,-4.3901,-4.4548,-4.4024,-4.3655,-4.3655,-4.3624,-4.3347,-4.2756,-4.2663,-4.2663,-4.2694,-4.2017,-4.2263,-4.3531,-4.3531,-4.3187,-4.2602,-4.2602,-4.2602,-4.2602,-4.2602,-4.2633,-4.2663,-4.1986,-4.2417,-4.3562,-4.291,-4.3402,-4.4579,-4.461,-4.461,-4.461,-4.461,-4.461,-4.461,-4.461,-4.461,-4.461,-4.461,-4.461,-4.461,-4.461,-4.461,-4.461,-4.461,-4.461,-4.461,-4.461,-4.461,-4.461,-4.461,-4.461,-4.4799,-4.5478,-4.5142,-4.5332,-4.7439,-4.6726,-4.6202,-4.7605,-4.7238,-4.6828,-4.6828,-4.6862,-4.7069,-4.7737,-4.7934,-4.8193,-4.8861,-4.8987,-4.9018,-4.9018,-4.9018,-4.9018,-4.9018,-4.9018,-4.9018,-4.9018,-4.9018,-4.9018,-4.9018,-4.9018,-4.9018,-4.9018,-4.8951,-4.8951,-4.8951,-4.8206,-4.7838,0.0,0.0,0.0,-4.3956,-4.4126,-4.4394,-4.4721,-4.4902,-4.506,-4.5331,-4.5206,-4.4671,-4.3522,-4.3663,-4.3774,-4.3081,-4.3156,-4.3464,-4.3901,-4.3587,-4.3464,-4.3932,-4.334,-4.3217,-4.3901,-4.334,-4.3125,-4.3562,-4.2823,-4.2386,-4.2602,-4.2602,-4.2786,-4.3217,-4.3039,-4.2879,-4.294,-4.294,-4.2848,-4.2602,-4.2602,-4.2602,-4.2602,-4.2602,-4.2602,-4.2602,-4.2355,-4.2263,-4.2325,-4.2509,-4.2879,-4.3402,-4.4233,-4.461,-4.461,-4.461,-4.461,-4.461,-4.461,-4.461,-4.461,-4.461,-4.461,-4.461,-4.461,-4.461,-4.461,-4.461,-4.461,-4.461,-4.461,-4.461,-4.461,-4.461,-4.4949,-4.5295,-4.557,-4.5453,-4.5697,-4.6932,-4.7137,-4.7272,-4.7803,-4.8064,-4.8226,-4.8226,-4.8226,-4.8129,-4.7934,-4.8289,-4.8513,-4.8322,-4.8736,-4.9018,-4.9018,-4.9018,-4.9018,-4.9018,-4.9018,-4.9018,-4.9018,-4.9018,-4.9018,-4.9018,-4.9018,-4.9018,-4.9018,-4.9018,-4.9018,-4.8984,-4.8748,-4.8612,-4.4059,0.0,0.0,0.0,-4.401,-4.4212,-4.4265,-4.4412,-4.4497,-4.4587,-4.4374,-4.3943,-4.3021,-4.2879,-4.2805,-4.2345,-4.2448,-4.2756,-4.3187,-4.2879,-4.2786,-4.3187,-4.2663,-4.254,-4.3187,-4.2663,-4.2448,-4.2915,-4.2294,-4.2048,-4.2263,-4.2479,-4.2786,-4.3248,-4.3501,-4.3408,-4.294,-4.3156,-4.3279,-4.3279,-4.3033,-4.294,-4.291,-4.2694,-4.2602,-4.2602,-4.2602,-4.2479,-4.2294,-4.2756,-4.3063,-4.3371,-4.4233,-4.461,-4.461,-4.461,-4.461,-4.461,-4.461,-4.461,-4.4641,-4.4849,-4.4949,-4.501,-4.5187,-4.5249,-4.5249,-4.5249,-4.5249,-4.5249,-4.5249,-4.5249,-4.5249,-4.5249,-4.5588,-4.5926,-4.5926,-4.5981,-4.6207,-4.6973,-4.7508,-4.7923,-4.8162,-4.8828,-4.9248,-4.8979,-4.92,-4.9099,-4.8354,-4.8704,-4.8829,-4.8322,-4.8704,-4.9018,-4.9018,-4.9018,-4.9018,-4.9018,-4.9018,-4.9018,-4.9018,-4.9018,-4.9018,-4.9018,-4.9018,-4.9018,-4.9018,-4.9018,-4.9018,-4.9018,-4.9018,-4.9018,0.0,0.0,0.0,0.0,0.0,0.0,-4.4241,0.0,-4.4384,-4.4559,-4.403,-4.3525,-4.3495,-4.2426,-4.1578,-4.1608,-4.2145,-4.2571,-4.2571,-4.2571,-4.2571,-4.2571,-4.1986,-4.1832,-4.2509,-4.1955,-4.1586,-4.1617,-4.2202,-4.2294,-4.1648,-4.2263,-4.2633,-4.2663,-4.3279,-4.3624,-4.3624,-4.4271,-4.461,-4.461,-4.3963,-4.3624,-4.3624,-4.294,-4.2663,-4.2663,-4.2663,-4.3033,-4.3624,-4.3624,-4.3994,-4.4579,-4.461,-4.461,-4.461,-4.461,-4.461,-4.461,-4.4641,-4.4641,-4.4764,-4.5372,-4.5588,-4.5741,-4.6357,-4.6573,-4.6603,-4.6573,-4.6573,-4.6603,-4.6603,-4.6603,-4.6603,-4.6603,-4.6603,-4.6634,-4.6634,-4.6634,-4.6872,-4.7516,-4.7707,-4.7902,-4.8643,-4.9431,-4.9721,-4.8993,-4.9587,-4.9833,-4.9089,-4.9021,-4.9018,-4.9018,-4.9018,-4.9018,-4.9018,-4.9018,-4.9018,-4.9018,-4.9018,-4.9018,-4.9018,-4.9018,-4.9018,-4.9018,-4.9018,-4.9018,-4.9018,-4.9018,-4.9018,-4.9018,-4.9018,-4.9018,-4.5549,0.0,0.0,0.0,0.0,0.0,0.0,0.0,-4.4293,-4.4384,-4.4355,-4.415,-4.3617,-4.3139,-4.268,-4.2301,-4.1562,-4.1243,-4.1801,-4.1432,-4.1274,-4.1832,-4.1247,-4.1093,-4.1801,-4.1247,-4.1247,-4.2263,-4.2048,-4.2017,-4.2325,-4.294,-4.3562,-4.4018,-4.424,-4.4332,-4.4332,-4.4517,-4.461,-4.461,-4.4425,-4.4332,-4.4332,-4.411,-4.4048,-4.4048,-4.4048,-4.4141,-4.4302,-4.3809,-4.3716,-4.3932,-4.4425,-4.461,-4.461,-4.461,-4.461,-4.4702,-4.5164,-4.5311,-4.5341,-4.5526,-4.5926,-4.6172,-4.5372,-4.5803,-4.648,-4.5988,-4.6234,-4.6603,-4.6603,-4.6603,-4.6603,-4.6603,-4.6973,-4.7311,-4.7311,-4.7711,-4.7814,-4.7035,-4.7324,-4.7751,-4.7977,-4.8643,-4.9082,-4.8887,-4.9518,-4.9759,-4.8994,-4.9446,-4.9593,-4.9052,-4.9018,-4.9018,-4.9018,-4.9018,-4.9018,-4.9018,-4.9018,-4.9018,-4.9018,-4.9018,-4.9018,-4.9018,-4.9018,-4.9018,-4.9018,-4.9018,-4.9018,-4.9018,-4.9018,-4.9018,0.0,0.0,0.0,0.0,0.0,0.0,-4.4556,-4.4566,-4.4639,-4.4479,-4.4497,-4.4468,-4.403,-4.3617,-4.329,-4.2984,-4.2013,-4.1484,-4.1924,-4.1341,-4.1078,-4.1513,-4.0928,-4.0782,-4.1524,-4.1217,-4.1432,-4.254,-4.2479,-4.2725,-4.3402,-4.3771,-4.4209,-4.461,-4.461,-4.461,-4.461,-4.461,-4.461,-4.461,-4.461,-4.461,-4.461,-4.461,-4.461,-4.461,-4.461,-4.461,-4.4579,-4.4178,-4.4024,-4.4055,-4.4456,-4.461,-4.461,-4.461,-4.4795,-4.5003,-4.5126,-4.5526,-4.6018,-4.6018,-4.648,-4.688,-4.608,-4.6388,-4.6942,-4.6542,-4.6911,-4.7434,-4.7434,-4.7434,-4.7434,-4.7434,-4.7742,-4.8019,-4.8019,-4.8327,-4.8389,-4.7588,-4.7765,-4.8082,-4.8082,-4.8751,-4.9117,-4.8792,-4.9426,-4.97,-4.8944,-4.9559,-4.9888,-4.9453,-4.9439,-4.9458,-4.9458,-4.9187,-4.9018,-4.9018,-4.9018,-4.9018,-4.9018,-4.9018,-4.9018,-4.9018,-4.9018,-4.9018,-4.9018,-4.9018,-4.9018,-4.9018,-4.9018,-4.9018,0.0,0.0,0.0,0.0,0.0,0.0,-4.5384,-4.5276,-4.5131,-4.4744,-4.4632,-4.466,-4.4559,-4.3972,-4.3558,-4.3588,-4.3075,-4.2645,-4.252,-4.1917,-4.1492,-4.1492,-4.0982,-4.0874,-4.1524,-4.1678,-4.1986,-4.2663,-4.331,-4.3994,-4.4579,-4.461,-4.461,-4.461,-4.461,-4.461,-4.461,-4.461,-4.461,-4.461,-4.461,-4.461,-4.461,-4.461,-4.461,-4.461,-4.461,-4.461,-4.461,-4.461,-4.461,-4.461,-4.461,-4.461,-4.461,-4.461,-4.501,-4.5403,-4.4918,-4.5464,-4.648,-4.6573,-4.7004,-4.7496,-4.7404,-4.7434,-4.7496,-4.7496,-4.7989,-4.8512,-4.8512,-4.8543,-4.8604,-4.8604,-4.8604,-4.8604,-4.8604,-4.8604,-4.8604,-4.8604,-4.8604,-4.8604,-4.8728,-4.939,-4.9686,-4.9054,-4.9652,-4.9913,-4.9131,-4.9739,-5.0222,-5.0156,-5.0188,-5.0202,-5.0202,-4.9627,-4.9255,-4.9255,-4.9187,-4.912,-4.912,-4.9052,-4.9018,-4.9018,-4.9018,-4.9018,-4.9018,-4.9018,-4.9018,-4.9018,-4.9018,-4.9018,0.0,0.0,0.0,0.0,-4.6676,0.0,-4.5841,-4.5768,-4.5657,-4.4987,-4.4972,-4.4888,-4.4318,-4.3981,-4.3894,-4.4121,-4.3948,-4.3502,-4.2614,-4.1917,-4.1492,-4.1492,-4.1417,-4.1432,-4.1586,-4.2078,-4.2663,-4.3377,-4.4055,-4.4486,-4.461,-4.461,-4.461,-4.461,-4.461,-4.461,-4.461,-4.461,-4.461,-4.461,-4.461,-4.461,-4.461,-4.461,-4.461,-4.461,-4.461,-4.461,-4.461,-4.461,-4.461,-4.461,-4.461,-4.461,-4.461,-4.461,-4.4664,-4.4856,-4.5249,-4.5557,-4.5865,-4.6419,-4.6696,-4.6696,-4.6142,-4.6357,-4.6788,-4.6788,-4.7281,-4.7804,-4.7804,-4.8204,-4.8604,-4.8604,-4.8604,-4.8604,-4.8604,-4.8604,-4.8604,-4.8604,-4.8604,-4.8811,-4.951,-4.9789,-5.0041,-5.0536,-5.132,-5.1529,-5.077,-5.1361,-5.1596,-5.1024,-5.0985,-5.1014,-5.1014,-5.0879,-5.0745,-5.0745,-5.0202,-4.9864,-4.9864,-4.9323,-4.9018,-4.9018,-4.9018,-4.9018,-4.9018,-4.9018,-4.9018,-4.9018,-4.9018,-4.9018,0.0,0.0,0.0,-4.7537,-4.7438,0.0,0.0,-4.65,-4.6362,-4.5724,-4.538,-4.5072,-4.4733,-4.4307,-4.4039,-4.4184,-4.4212,-4.414,-4.3995,-4.2841,-4.2141,-4.2493,-4.2,-4.1863,-4.2509,-4.2879,-4.3371,-4.4055,-4.4425,-4.461,-4.461,-4.461,-4.461,-4.461,-4.461,-4.461,-4.461,-4.461,-4.461,-4.461,-4.461,-4.461,-4.461,-4.461,-4.461,-4.461,-4.461,-4.461,-4.461,-4.461,-4.461,-4.461,-4.461,-4.461,-4.461,-4.461,-4.4825,-4.5095,-4.5095,-4.5526,-4.608,-4.608,-4.6326,-4.648,-4.5803,-4.5834,-4.608,-4.608,-4.6819,-4.7619,-4.7619,-4.8112,-4.8604,-4.8604,-4.8604,-4.8604,-4.8604,-4.8604,-4.8604,-4.8604,-4.8604,-4.8893,-4.9749,-4.9908,-5.0182,-5.0995,-5.1443,-5.1565,-5.1172,-5.1816,-5.2167,-5.1764,-5.1731,-5.1758,-5.1758,-5.1388,-5.1185,-5.1185,-5.0845,-5.0642,-5.0642,-5.0304,-5.0101,-5.0101,-5.0101,-4.9932,-4.956,-4.956,-4.9357,-4.9018,-4.9018,-4.9018,0.0,0.0,-4.8001,-4.8001,-4.8001,-4.7868,0.0,0.0,0.0,-4.6522,-4.5951,0.0,0.0,0.0,0.0,-4.4106,0.0,0.0,0.0,-4.3943,0.0,-4.3976,-4.2811,-4.2458,-4.3691,-4.3791,-4.4024,-4.4579,-4.461,-4.461,-4.461,-4.461,-4.461,-4.461,-4.461,-4.461,-4.461,-4.461,-4.461,-4.461,-4.461,-4.461,-4.461,-4.461,-4.461,-4.461,-4.461,-4.461,-4.461,-4.461,-4.461,-4.461,-4.461,-4.461,-4.461,-4.461,-4.4949,-4.5311,-4.4795,-4.5311,-4.6142,-4.5711,-4.5957,-4.6265,-4.5588,-4.5403,-4.5403,-4.5403,-4.6357,-4.7404,-4.7404,-4.8019,-4.8604,-4.8604,-4.8604,-4.8604,-4.8604,-4.8604,-4.8646,-4.8811,-4.8852,-4.9097,-4.9789,-4.9908,-5.0221,-5.1182,-5.1331,-5.1369,-5.1516,-5.2131,-5.252,-5.252,-5.2505,-5.2536,-5.2536,-5.1995,-5.1657,-5.1657,-5.1522,-5.1388,-5.1388,-5.1285,-5.1185,-5.1185,-5.1185,-5.0913,-5.0304,-5.0304,-4.9864,-4.9018,-4.9018,-4.9018,0.0,-4.8001,-4.8001,-4.8001,-4.8001,-4.7968,-4.7934,0.0,-4.7702,-4.7005,0.0,0.0,0.0,0.0,0.0,0.0,0.0,0.0,-4.4398,-4.4752,-4.5233,-4.5522,-4.4262,-4.3665,-4.4512,-4.4526,-4.4517,-4.4572,-4.461,-4.461,-4.461,-4.461,-4.461,-4.461,-4.461,-4.461,-4.461,-4.461,-4.461,-4.461,-4.461,-4.461,-4.461,-4.461,-4.461,-4.461,-4.461,-4.461,-4.461,-4.461,-4.461,-4.461,-4.461,-4.461,-4.461,-4.461,-4.4671,-4.4702,-4.4641,-4.4702,-4.488,-4.5434,-4.5649,-4.5588,-4.4949,-4.4733,-4.4733,-4.4733,-4.568,-4.6696,-4.6696,-4.765,-4.8604,-4.8604,-4.8604,-4.8604,-4.8604,-4.8604,-4.8852,-4.959,-4.9749,-4.9789,-4.9868,-4.9908,-5.0416,-5.1948,-5.2164,-5.2414,-5.3144,-5.3314,-5.3348,-5.3348,-5.3349,-5.3382,-5.3382,-5.3281,-5.3247,-5.3247,-5.257,-5.2198,-5.2198,-5.1555,-5.1185,-5.1185,-5.1185,-5.1183,-5.1082,-5.1082,-5.0371,-4.9018,-4.9018,-4.9018,0.0,0.0,-4.7404,-4.7902,-4.8001,-4.8001,-4.8001,-4.8001,-4.7901,-4.7603,0.0,0.0,0.0,0.0,0.0,0.0,-4.5568,0.0,0.0,0.0,-4.5994,-4.6186,-4.5056,-4.4341,-4.46,-4.4991,-4.5067,-4.4648,-4.461,-4.461,-4.461,-4.461,-4.461,-4.461,-4.461,-4.461,-4.461,-4.461,-4.461,-4.461,-4.461,-4.461,-4.461,-4.461,-4.461,-4.461,-4.461,-4.461,-4.461,-4.461,-4.461,-4.461,-4.461,-4.461,-4.461,-4.461,-4.461,-4.461,-4.461,-4.461,-4.4671,-4.4949,-4.528,-4.5464,-4.4825,-4.4849,-4.5095,-4.4733,-4.5557,-4.6603,-4.6603,-4.7588,-4.8604,-4.8604,-4.8604,-4.8604,-4.8604,-4.8604,-4.8852,-4.971,-4.9908,-5.0065,-5.0499,-5.0957,-5.1696,-5.2834,-5.2972,-5.3144,-5.3484,-5.3518,-5.3518,-5.3518,-5.3518,-5.3518,-5.3518,-5.3518,-5.3518,-5.3518,-5.3179,-5.301,-5.301,-5.2706,-5.2536,-5.2536,-5.2536,-5.23,-5.186,-5.186,-5.1319,-5.0304,-5.0304,-5.0304,-4.7202,-4.71,-4.6896,-4.727,-4.7538,-4.7638,-4.7437,-4.7538,-4.7671,-4.7671,-4.744,0.0,0.0,0.0,0.0,0.0,0.0,-4.6633,0.0,-4.6811,0.0,0.0,0.0,-4.5124,-4.4624,-4.5067,-4.5179,-4.4648,-4.461,-4.461,-4.461,-4.461,-4.461,-4.461,-4.461,-4.461,-4.461,-4.461,-4.461,-4.461,-4.461,-4.461,-4.461,-4.461,-4.461,-4.461,-4.461,-4.461,-4.461,-4.461,-4.461,-4.461,-4.461,-4.461,-4.461,-4.461,-4.461,-4.461,-4.461,-4.461,-4.461,-4.461,-4.4949,-4.5249,-4.4979,-4.5187,-4.5526,-4.5218,-4.5988,-4.688,-4.688,-4.7742,-4.8604,-4.8604,-4.8604,-4.8604,-4.8604,-4.8604,-4.8852,-4.971,-4.9908,-5.0221,-5.1257,-5.1733,-5.2272,-5.3041,-5.3178,-5.3246,-5.345,-5.3518,-5.3518,-5.3518,-5.3518,-5.3518,-5.3518,-5.3518,-5.3518,-5.3518,-5.3518,-5.3518,-5.3518,-5.3518,-5.3518,-5.3518,-5.3518,-5.3213,-5.2638,-5.2638,-5.2367,-5.1826,-5.142,-5.1185,-4.5769,-4.6304,-4.6622,-4.5949,-4.6304,-4.6655,-4.5949,-4.634,-4.6862,-4.6862,-4.7438,-4.7968,0.0,0.0,0.0,0.0,0.0,0.0,0.0,0.0,0.0,0.0,0.0,-4.6166,-4.4761,-4.461,-4.461,-4.461,-4.461,-4.461,-4.461,-4.461,-4.461,-4.461,-4.461,-4.461,-4.461,-4.461,-4.461,-4.461,-4.461,-4.461,-4.461,-4.461,-4.461,-4.461,-4.461,-4.461,-4.461,-4.461,-4.461,-4.461,-4.461,-4.461,-4.461,-4.461,-4.461,-4.461,-4.461,-4.461,-4.461,-4.461,-4.4641,-4.4764,-4.5372,-4.5557,-4.5711,-4.6357,-4.7034,-4.7558,-4.7558,-4.8081,-4.8604,-4.8604,-4.8604,-4.8604,-4.8604,-4.8604,-4.8852,-4.971,-4.9908,-5.0416,-5.1987,-5.1659,-5.1406,-5.2236,-5.2343,-5.2624,-5.3382,-5.3518,-5.3518,-5.3518,-5.3518,-5.3518,-5.3518,-5.3518,-5.3518,-5.3518,-5.3518,-5.3518,-5.3518,-5.3518,-5.3518,-5.3518,-5.3518,-5.3484,-5.345,-5.345,-5.345,-5.3382,-5.1928,-5.1185,-4.5551,-4.5483,-4.5337,-4.5624,-4.6237,-4.662,-4.5877,-4.6269,-4.6828,-4.6828,-4.662,-4.6791,0.0,0.0,0.0,0.0,0.0,0.0,0.0,0.0,0.0,0.0,0.0,-4.7671,-4.6198,-4.6483,-4.6378,-4.5405,-4.5326,-4.5104,-4.461,-4.461,-4.461,-4.461,-4.461,-4.461,-4.461,-4.461,-4.461,-4.461,-4.461,-4.461,-4.461,-4.461,-4.461,-4.461,-4.461,-4.461,-4.461,-4.461,-4.461,-4.461,-4.461,-4.461,-4.461,-4.461,-4.461,-4.461,-4.461,-4.461,-4.461,-4.461,-4.4918,-4.5218,-4.4972,-4.5557,-4.6203,-4.5988,-4.6726,-4.7619,-4.7619,-4.8112,-4.8604,-4.8604,-4.8604,-4.8604,-4.8604,-4.8604,-4.8852,-4.971,-4.9908,-5.0416,-5.2023,-5.2059,-5.22,-5.2972,-5.3076,-5.3212,-5.345,-5.3518,-5.3518,-5.3518,-5.3518,-5.3518,-5.3518,-5.3518,-5.3518,-5.3518,-5.3518,-5.3518,-5.3518,-5.3518,-5.3518,-5.3518,-5.3518,-5.3518,-5.3518,-5.3518,-5.3518,-5.3484,-5.2976,-5.2739,-4.4699,-4.4662,-4.4548,-4.4774,-4.541,-4.5773,-4.5036,-4.541,-4.5989,-4.5989,-4.6024,-4.641,0.0,0.0,0.0,0.0,0.0,0.0,0.0,-4.8131,0.0,0.0,0.0,0.0,0.0,-4.7204,-4.7103,-4.6163,-4.5841,-4.5478,-4.503,-4.4761,-4.461,-4.461,-4.461,-4.461,-4.461,-4.461,-4.461,-4.461,-4.461,-4.461,-4.461,-4.461,-4.461,-4.461,-4.461,-4.461,-4.461,-4.461,-4.461,-4.461,-4.461,-4.461,-4.461,-4.461,-4.461,-4.461,-4.461,-4.461,-4.461,-4.461,-4.4918,-4.5187,-4.5003,-4.5711,-4.6449,-4.5772,-4.6726,-4.7865,-4.7373,-4.7927,-4.8604,-4.8604,-4.8604,-4.8604,-4.8604,-4.8604,-4.8769,-4.9309,-4.943,-4.9868,-5.1215,-5.1696,-5.2272,-5.3348,-5.3518,-5.3518,-5.3518,-5.3518,-5.3518,-5.3518,-5.3518,-5.3518,-5.3518,-5.3518,-5.3518,-5.3518,-5.3518,-5.3518,-5.3518,-5.3518,-5.3518,-5.3518,-5.3518,-5.3518,-5.3518,-5.3518,-5.3518,-5.3518,-5.3518,-5.3518]},{"header":{"parameterUnit":"m.s-1","parameterCategory":1,"la1":30.6,"la2":29.2853,"lo1":-89.7004,"lo2":-87.6739,"dy":0.0162,"dx":0.0183,"nx":112,"ny":82,"refTime":"2023-03-20T00:00:00:Z","depth":0,"parameterNumber":3,"parameterNumberName":"V-component_of_WINDS"},"data":[0.0,0.0,0.0,0.0,0.0,0.0,0.0,0.0,0.0,0.0,0.0,0.0,0.0,0.0,0.0,0.0,0.0,0.0,0.0,0.0,0.0,0.0,0.0,0.0,0.0,0.0,0.0,0.0,0.0,0.0,0.0,0.0,0.0,0.0,0.0,0.0,0.0,0.0,0.0,0.0,0.0,0.0,0.0,0.0,0.0,0.0,0.0,0.0,0.0,0.0,0.0,0.0,0.0,0.0,0.0,0.0,0.0,0.0,0.0,0.0,0.0,0.0,0.0,0.0,0.0,0.0,0.0,0.0,0.0,0.0,0.0,0.0,0.0,0.0,0.0,0.0,0.0,0.0,0.0,0.0,0.0,0.0,0.0,0.0,0.0,0.0,0.0,0.0,0.0,0.0,1.542,1.6206,1.8522,1.9653,1.8776,1.919,1.8321,1.5668,0.0,0.0,0.0,0.0,0.0,0.0,0.0,0.0,0.0,0.0,0.0,0.0,0.0,0.0,0.0,0.0,0.0,0.0,0.0,0.0,0.0,0.0,0.0,0.0,0.0,0.0,0.0,0.0,0.0,0.0,0.0,0.0,0.0,0.0,0.0,0.0,0.0,0.0,0.0,0.0,0.0,0.0,0.0,0.0,0.0,0.0,0.0,0.0,0.0,0.0,0.0,0.0,0.0,0.0,0.0,0.0,0.0,0.0,0.0,0.0,0.0,0.0,0.0,0.0,0.0,0.0,0.0,0.0,0.0,0.0,0.0,0.0,0.0,0.0,0.0,0.0,0.0,0.0,0.0,0.0,0.0,0.0,0.0,0.0,0.0,0.0,0.0,0.0,0.0,0.0,0.0,0.0,0.0,0.0,0.0,0.0,0.0,0.0,0.0,0.0,0.0,0.0,0.0,0.0,1.5957,1.8252,1.9693,2.0457,2.043,2.0308,1.9238,1.6886,0.0,0.0,0.0,0.0,0.0,0.0,0.0,0.0,0.0,0.0,0.0,0.0,0.0,0.0,0.0,0.0,0.0,0.0,0.0,0.0,0.0,0.0,0.0,0.0,0.0,0.0,0.0,0.0,0.0,0.0,0.0,0.0,0.0,0.0,0.0,0.0,0.0,0.0,0.0,0.0,0.0,0.0,0.0,0.0,0.0,0.0,0.0,0.0,0.0,0.0,0.0,0.0,0.0,0.0,0.0,0.0,0.0,0.0,0.0,0.0,0.0,0.0,0.0,0.0,0.0,0.0,0.0,0.0,0.0,0.0,0.0,0.0,0.0,0.0,0.0,0.0,0.0,0.0,0.0,0.0,0.0,0.0,0.0,0.0,0.0,0.0,0.0,0.0,0.0,0.0,0.0,0.0,0.0,0.0,0.0,0.0,0.0,0.0,0.0,0.0,0.0,0.0,0.0,1.6522,1.7547,1.8994,1.9882,2.0346,2.0252,2.0043,1.9074,1.7063,1.6068,0.0,0.0,0.0,0.0,0.0,0.0,0.0,0.0,0.0,0.0,0.0,0.0,0.0,0.0,0.0,0.0,0.0,0.0,0.0,0.0,0.0,0.0,0.0,0.0,0.0,0.0,0.0,0.0,0.0,0.0,0.0,0.0,0.0,0.0,0.0,0.0,0.0,0.0,0.0,0.0,0.0,0.0,0.0,0.0,0.0,0.0,0.0,0.0,0.0,0.0,0.0,0.0,0.0,0.0,0.0,0.0,0.0,0.0,0.0,0.0,0.0,0.0,0.0,0.0,0.0,0.0,0.0,0.0,0.0,0.0,0.0,0.0,0.0,0.0,0.0,0.0,0.0,0.0,0.0,0.0,0.0,0.0,0.0,0.0,0.0,0.0,0.0,0.0,0.0,0.0,0.0,0.0,0.0,0.0,0.0,0.0,0.0,0.0,0.0,0.0,0.0,0.0,1.8091,1.8769,1.9174,1.9732,1.9999,1.9897,1.9631,1.881,1.7158,1.6591,0.0,0.0,0.0,0.0,0.0,0.0,0.0,0.0,0.0,0.0,0.0,0.0,0.0,0.0,0.0,0.0,0.0,0.0,0.0,0.0,0.0,0.0,0.0,0.0,0.0,0.0,0.0,0.0,0.0,0.0,0.0,0.0,0.0,0.0,0.0,0.0,0.0,0.0,0.0,0.0,0.0,0.0,0.0,0.0,0.0,0.0,0.0,0.0,0.0,0.0,0.0,0.0,0.0,0.0,0.0,0.0,0.0,0.0,0.0,0.0,0.0,0.0,0.0,0.0,0.0,0.0,0.0,0.0,0.0,0.0,0.0,0.0,0.0,0.0,0.0,0.0,0.0,0.0,0.0,0.0,0.0,0.0,0.0,0.0,0.0,0.0,0.0,0.0,0.0,0.0,0.0,0.0,0.0,0.0,0.0,0.0,0.0,0.0,0.0,0.0,0.0,0.0,1.8091,1.8723,1.8973,1.9386,1.9789,2.0129,1.9757,1.8929,1.7546,1.6738,0.0,0.0,0.0,0.0,0.0,0.0,0.0,0.0,0.0,0.0,0.0,0.0,0.0,0.0,0.0,0.0,0.0,0.0,0.0,0.0,0.0,0.0,0.0,0.0,0.0,0.0,0.0,0.0,0.0,0.0,0.0,0.0,0.0,0.0,0.0,0.0,0.0,0.0,0.0,0.0,0.0,0.0,0.0,0.0,0.0,0.0,0.0,0.0,0.0,0.0,0.0,0.0,0.0,0.0,0.0,0.0,0.0,0.0,0.0,0.0,0.0,0.0,0.0,0.0,0.0,0.0,0.0,0.0,0.0,0.0,0.0,0.0,0.0,0.0,0.0,0.0,0.0,0.0,0.0,0.0,0.0,0.0,0.0,0.0,0.0,0.0,0.0,0.0,0.0,0.0,0.0,0.0,0.0,0.0,0.0,0.0,0.0,0.0,0.0,0.0,0.0,0.0,1.8516,1.8981,0.0,1.9131,1.9433,1.9404,1.9087,1.8326,1.7021,0.0,0.0,0.0,0.0,0.0,0.0,0.0,0.0,0.0,0.0,0.0,0.0,0.0,0.0,0.0,0.0,0.0,0.0,0.0,0.0,0.0,0.0,0.0,0.0,0.0,0.0,0.0,0.0,0.0,0.0,0.0,0.0,0.0,0.0,0.0,0.0,0.0,0.0,0.0,0.0,0.0,0.0,0.0,0.0,0.0,0.0,0.0,0.0,0.0,0.0,0.0,0.0,0.0,0.0,0.0,0.0,0.0,0.0,0.0,0.0,0.0,0.0,0.0,0.0,0.0,0.0,0.0,0.0,0.0,0.0,0.0,0.0,0.0,0.0,0.0,0.0,0.0,0.0,0.0,0.0,0.0,0.0,0.0,0.0,0.0,0.0,0.0,0.0,0.0,0.0,0.0,0.0,0.0,0.0,0.0,0.0,0.0,0.0,0.0,0.0,0.0,0.0,1.7901,1.8516,1.8769,0.0,1.8711,1.8821,1.8735,1.854,1.7988,1.6925,0.0,0.0,0.0,0.0,0.0,0.0,0.0,0.0,0.0,0.0,0.0,0.0,0.0,0.0,0.0,0.0,0.0,0.0,0.0,0.0,0.0,0.0,0.0,0.0,0.0,0.0,0.0,0.0,0.0,0.0,0.0,0.0,0.0,0.0,0.0,0.0,0.0,0.0,0.0,0.0,0.0,0.0,0.0,0.0,0.0,0.0,0.0,0.0,0.0,0.0,0.0,0.0,0.0,0.0,0.0,0.0,0.0,0.0,0.0,0.0,0.0,0.0,0.0,0.0,0.0,0.0,0.0,0.0,0.0,0.0,0.0,0.0,0.0,0.0,0.0,0.0,0.0,0.0,0.0,0.0,0.0,0.0,0.0,0.0,0.0,0.0,0.0,0.0,0.0,0.0,0.0,0.0,0.0,0.0,0.0,0.0,0.0,0.0,0.0,0.0,0.0,0.0,1.8008,1.8008,1.8027,1.8008,1.8027,1.8095,1.8279,1.8313,1.8022,0.0,0.0,0.0,0.0,0.0,0.0,0.0,0.0,0.0,0.0,0.0,0.0,0.0,0.0,0.0,0.0,0.0,0.0,0.0,0.0,0.0,0.0,0.0,0.0,0.0,0.0,0.0,0.0,0.0,0.0,0.0,0.0,0.0,0.0,0.0,0.0,0.0,0.0,0.0,0.0,0.0,0.0,0.0,0.0,0.0,0.0,0.0,0.0,0.0,0.0,0.0,0.0,0.0,0.0,0.0,0.0,0.0,0.0,0.0,0.0,0.0,0.0,0.0,0.0,0.0,0.0,0.0,0.0,0.0,0.0,0.0,0.0,0.0,0.0,0.0,0.0,0.0,0.0,0.0,0.0,0.0,0.0,0.0,0.0,0.0,0.0,0.0,0.0,0.0,0.0,0.0,0.0,0.0,0.0,0.0,0.0,0.0,0.0,0.0,0.0,0.0,0.0,0.0,1.8008,1.8535,1.8789,1.8442,1.873,1.8825,1.8546,1.837,1.7988,1.7304,0.0,0.0,0.0,0.0,0.0,0.0,0.0,0.0,0.0,0.0,0.0,0.0,0.0,0.0,0.0,0.0,0.0,0.0,0.0,0.0,0.0,0.0,0.0,0.0,0.0,0.0,0.0,0.0,0.0,0.0,0.0,0.0,0.0,0.0,0.0,0.0,0.0,0.0,0.0,0.0,0.0,0.0,0.0,0.0,0.0,0.0,0.0,0.0,0.0,0.0,0.0,0.0,0.0,0.0,0.0,0.0,0.0,0.0,0.0,0.0,0.0,0.0,0.0,0.0,0.0,0.0,0.0,0.0,0.0,0.0,0.0,0.0,0.0,0.0,0.0,0.0,0.0,0.0,0.0,0.0,0.0,0.0,0.0,0.0,0.0,0.0,0.0,0.0,0.0,0.0,0.0,0.0,0.0,0.0,0.0,0.0,0.0,0.0,0.0,0.0,0.0,0.0,1.8208,1.8711,1.8984,1.8906,1.9141,1.9102,1.8637,1.8503,1.8149,1.7564,0.0,0.0,0.0,0.0,0.0,0.0,0.0,0.0,0.0,0.0,0.0,0.0,0.0,0.0,0.0,0.0,0.0,0.0,0.0,0.0,0.0,0.0,0.0,0.0,0.0,0.0,0.0,0.0,0.0,0.0,0.0,0.0,0.0,0.0,0.0,0.0,0.0,0.0,0.0,0.0,0.0,0.0,0.0,0.0,0.0,0.0,0.0,0.0,0.0,0.0,0.0,0.0,0.0,0.0,0.0,0.0,0.0,0.0,0.0,0.0,0.0,0.0,0.0,0.0,0.0,0.0,0.0,0.0,0.0,0.0,0.0,0.0,0.0,0.0,0.0,0.0,0.0,0.0,0.0,0.0,0.0,0.0,0.0,0.0,0.0,0.0,0.0,0.0,0.0,0.0,0.0,0.0,0.0,0.0,0.0,0.0,0.0,0.0,0.0,0.0,0.0,0.0,1.8559,1.8676,1.887,1.9297,1.9355,1.918,1.8754,1.8656,1.8442,1.8086,0.0,0.0,0.0,0.0,0.0,0.0,0.0,0.0,0.0,0.0,0.0,0.0,0.0,0.0,0.0,0.0,0.0,0.0,0.0,0.0,0.0,0.0,0.0,0.0,0.0,0.0,0.0,0.0,0.0,0.0,0.0,0.0,0.0,0.0,0.0,0.0,0.0,0.0,0.0,0.0,0.0,0.0,0.0,0.0,0.0,0.0,0.0,0.0,0.0,0.0,0.0,0.0,0.0,0.0,0.0,0.0,0.0,0.0,0.0,0.0,2.004,2.004,0.0,0.0,0.0,0.0,0.0,0.0,0.0,0.0,0.0,0.0,0.0,0.0,0.0,0.0,0.0,0.0,0.0,0.0,0.0,0.0,0.0,0.0,0.0,0.0,0.0,0.0,0.0,0.0,0.0,0.0,0.0,0.0,0.0,0.0,0.0,0.0,0.0,0.0,0.0,0.0,1.8598,1.9182,1.9668,1.9766,1.9785,1.9746,1.9648,1.8987,1.8559,1.8481,1.808,0.0,0.0,0.0,0.0,0.0,0.0,0.0,0.0,0.0,0.0,0.0,0.0,0.0,0.0,0.0,0.0,0.0,0.0,0.0,0.0,0.0,0.0,0.0,0.0,0.0,0.0,0.0,0.0,0.0,0.0,0.0,0.0,0.0,0.0,0.0,0.0,0.0,0.0,0.0,0.0,0.0,0.0,0.0,0.0,0.0,0.0,0.0,0.0,0.0,0.0,0.0,0.0,0.0,0.0,0.0,0.0,0.0,0.0,0.0,2.0781,2.0605,0.0,0.0,0.0,0.0,0.0,0.0,0.0,0.0,0.0,0.0,0.0,0.0,0.0,0.0,0.0,0.0,0.0,0.0,0.0,0.0,0.0,0.0,0.0,0.0,0.0,0.0,0.0,0.0,0.0,0.0,0.0,0.0,0.0,0.0,0.0,0.0,0.0,0.0,0.0,0.0,1.9163,1.9611,2.0,2.0195,2.0234,2.0137,1.9941,1.9475,1.9046,1.8617,1.8403,0.0,0.0,0.0,0.0,0.0,0.0,0.0,0.0,0.0,0.0,0.0,0.0,0.0,0.0,0.0,0.0,0.0,0.0,0.0,0.0,0.0,0.0,0.0,0.0,0.0,0.0,0.0,0.0,0.0,0.0,0.0,0.0,0.0,0.0,0.0,0.0,0.0,0.0,0.0,0.0,0.0,0.0,0.0,0.0,0.0,0.0,0.0,0.0,0.0,0.0,0.0,0.0,0.0,2.1307,2.1543,2.1894,2.1894,2.1894,2.1855,2.1153,2.0801,2.0684,2.0684,0.0,0.0,0.0,0.0,0.0,0.0,0.0,0.0,0.0,0.0,0.0,0.0,0.0,0.0,0.0,0.0,0.0,0.0,0.0,0.0,0.0,0.0,1.9316,1.8909,1.9141,1.9199,1.8496,0.0,0.0,0.0,0.0,0.0,0.0,0.0,0.0,0.0,0.0,0.0,1.9824,1.998,2.0176,2.0566,2.0605,2.0449,2.0059,1.9961,1.9572,1.887,1.8676,1.8477,0.0,0.0,0.0,0.0,0.0,0.0,0.0,0.0,0.0,0.0,0.0,0.0,0.0,0.0,0.0,0.0,0.0,0.0,0.0,0.0,0.0,0.0,0.0,0.0,0.0,0.0,0.0,0.0,0.0,0.0,0.0,0.0,2.0605,2.0605,0.0,0.0,0.0,0.0,0.0,0.0,0.0,0.0,0.0,0.0,0.0,0.0,0.0,2.1112,2.1112,2.1523,2.1738,2.1797,2.1797,2.1836,2.1894,2.1894,2.1894,2.1875,2.1758,0.0,2.1112,2.1112,0.0,0.0,0.0,0.0,0.0,0.0,0.0,0.0,0.0,0.0,0.0,0.0,0.0,0.0,0.0,0.0,0.0,0.0,0.0,0.0,0.0,0.0,1.9824,1.9766,1.9785,1.9805,1.9687,1.9046,1.8422,1.8086,1.8008,1.8008,0.0,0.0,0.0,0.0,0.0,0.0,1.9902,2.0254,2.0546,2.0605,2.0605,2.0586,2.0527,2.0137,1.9863,1.9746,1.9007,1.8648,1.8799,1.834,0.0,0.0,0.0,0.0,0.0,0.0,0.0,0.0,0.0,0.0,0.0,0.0,0.0,0.0,0.0,0.0,0.0,0.0,0.0,0.0,0.0,0.0,0.0,0.0,0.0,0.0,0.0,0.0,0.0,2.0605,2.0605,2.0605,2.0605,2.0605,0.0,0.0,0.0,0.0,0.0,0.0,0.0,0.0,0.0,2.1349,2.1504,2.1602,2.1602,2.1797,2.2012,2.2246,2.2246,2.2363,2.2598,2.2598,2.2598,2.2598,2.2598,2.2344,2.1873,2.1385,2.1113,2.0918,0.0,0.0,0.0,0.0,2.0723,2.0937,2.0937,2.0937,2.0937,2.0937,0.0,0.0,0.0,0.0,0.0,0.0,0.0,1.957,1.9629,1.9961,2.0352,2.0605,2.084,2.0957,2.0703,2.0333,1.9787,1.8906,1.873,1.873,1.873,1.8887,0.0,0.0,0.0,2.0,2.0254,2.0488,2.0605,2.0605,2.0605,2.0605,2.0605,2.0429,2.0176,1.9941,1.9514,1.9141,1.8758,1.8596,1.8414,0.0,0.0,0.0,0.0,0.0,0.0,0.0,0.0,0.0,0.0,0.0,0.0,0.0,0.0,0.0,0.0,0.0,0.0,0.0,0.0,0.0,0.0,0.0,0.0,0.0,0.0,0.0,0.0,2.0703,2.0742,2.0625,2.0703,2.0684,0.0,0.0,0.0,0.0,0.0,0.0,2.1346,2.1366,2.1543,2.1875,2.1992,2.2051,2.2051,2.2148,2.2363,2.2676,2.2676,2.2789,2.3101,2.3101,2.3101,2.3101,2.3101,2.2925,2.2617,2.1834,2.1463,2.1367,2.1035,2.0938,2.0938,2.0938,2.1113,2.1366,2.1366,2.1366,2.1366,2.1366,2.1094,2.0742,2.0742,0.0,0.0,0.0,0.0,2.0019,2.0332,2.0742,2.1152,2.1444,2.1816,2.1953,2.16,2.1444,2.1016,1.9707,1.9453,1.9414,1.9297,1.9375,0.0,1.9863,2.0,2.0234,2.0684,2.0742,2.0742,2.0742,2.0742,2.0723,2.0625,2.0605,2.0468,2.0098,1.998,1.9592,1.8948,1.8954,1.8734,1.8184,0.0,0.0,0.0,0.0,0.0,0.0,0.0,0.0,0.0,0.0,0.0,0.0,0.0,0.0,0.0,0.0,0.0,0.0,0.0,0.0,0.0,0.0,0.0,0.0,0.0,0.0,0.0,0.0,0.0,2.0664,2.0937,0.0,0.0,0.0,0.0,2.1171,2.1582,2.1836,2.1855,2.1855,2.1855,2.1894,2.2266,2.248,2.248,2.2828,2.3042,2.3062,2.3062,2.3081,2.3101,2.3101,2.3101,2.3101,2.3101,2.3081,2.3023,2.2637,2.2207,2.1855,2.1836,2.1816,2.1816,2.1816,2.1836,2.1855,2.1855,2.1855,2.1855,2.1855,2.1562,2.1171,2.1171,2.1151,0.0,0.0,2.1426,2.1758,2.1777,2.2109,2.2422,2.2441,2.2461,2.248,2.2461,2.2129,2.1465,2.0137,1.9883,1.9746,1.9355,0.0,1.9883,1.9902,2.0273,2.0684,2.1112,2.1171,2.1171,2.1171,2.1171,2.1035,2.0644,2.0605,2.0586,2.0566,2.0137,1.9902,1.9844,1.9473,1.9043,1.8578,1.8769,0.0,0.0,0.0,0.0,0.0,0.0,0.0,0.0,0.0,0.0,0.0,0.0,0.0,0.0,0.0,0.0,0.0,0.0,0.0,0.0,0.0,0.0,0.0,0.0,0.0,0.0,0.0,0.0,2.1406,2.1562,0.0,2.1426,2.1562,2.166,2.166,2.1797,2.2012,2.2266,2.2285,2.2422,2.2633,2.2789,2.2867,2.2867,2.3023,2.3101,2.3101,2.3101,2.3101,2.3101,2.3101,2.3101,2.3101,2.3101,2.3101,2.3081,2.2945,2.2676,2.2266,2.1992,2.1894,2.1894,2.1894,2.2051,2.2285,2.2285,2.2285,2.2246,2.1973,2.1777,2.166,2.166,2.166,2.166,2.166,2.1758,2.1953,2.2227,2.2402,2.2578,2.2808,2.2867,2.2867,2.2867,2.275,2.2438,2.1738,2.1367,2.1055,2.0625,2.0625,2.0722,2.0722,2.0898,2.1152,2.1602,2.166,2.166,2.166,2.1366,2.1132,2.1016,2.0742,2.0605,2.0605,2.0449,2.0215,1.9922,1.9766,1.9492,1.9062,1.9115,1.9163,0.0,0.0,0.0,0.0,0.0,0.0,0.0,0.0,0.0,0.0,0.0,0.0,0.0,0.0,0.0,0.0,0.0,0.0,0.0,0.0,0.0,0.0,0.0,0.0,0.0,0.0,2.1719,2.1875,2.2012,2.2031,2.1894,2.2012,2.209,2.209,2.2227,2.2441,2.2672,2.2672,2.2808,2.3081,2.3101,2.3101,2.3101,2.3101,2.3101,2.3101,2.3101,2.3101,2.3101,2.3101,2.3101,2.3101,2.3101,2.3101,2.3101,2.3101,2.2925,2.2695,2.2422,2.2305,2.2305,2.2305,2.248,2.2672,2.2672,2.2672,2.2676,2.2402,2.2207,2.209,2.209,2.209,2.209,2.209,2.2207,2.2363,2.2656,2.2672,2.2836,2.3414,2.356,2.356,2.356,2.356,2.3394,2.2816,2.2383,2.1953,2.1523,2.1465,2.1465,2.1465,2.1465,2.1621,2.2051,2.209,2.209,2.209,2.1719,2.1346,2.121,2.0957,2.0723,2.0625,2.0742,2.0586,2.0156,2.0137,1.9941,1.9512,1.9355,1.937,1.9499,0.0,0.0,0.0,0.0,0.0,0.0,0.0,0.0,0.0,0.0,0.0,0.0,0.0,0.0,0.0,0.0,0.0,0.0,0.0,0.0,0.0,0.0,0.0,2.1229,2.1992,2.2363,2.1973,2.2285,2.2363,2.1973,2.2285,2.2539,2.2539,2.2867,2.3101,2.3101,2.3101,2.3101,2.312,2.312,2.312,2.314,2.314,2.314,2.314,2.314,2.314,2.314,2.312,2.312,2.312,2.3101,2.3101,2.3101,2.3101,2.3101,2.3101,2.3101,2.3101,2.3101,2.3101,2.3101,2.3101,2.3101,2.3101,2.3101,2.3101,2.2828,2.2539,2.2539,2.2539,2.2539,2.2539,2.2789,2.3101,2.3101,2.3101,2.3343,2.4251,2.4466,2.4466,2.4466,2.4466,2.4209,2.3276,2.2812,2.2402,2.1973,2.1894,2.1894,2.1894,2.1894,0.0,2.248,2.2539,2.2539,2.2539,2.2148,2.1738,2.1249,2.121,2.1055,2.0625,2.0977,2.1016,2.0625,2.0605,2.041,1.9941,1.9531,1.9336,1.9336,0.0,0.0,0.0,0.0,0.0,0.0,0.0,0.0,0.0,0.0,0.0,0.0,0.0,0.0,0.0,0.0,0.0,0.0,0.0,0.0,0.0,0.0,2.2126,2.2126,2.2363,2.2578,2.273,2.2847,2.2886,2.2769,2.2847,2.2925,2.2925,2.3042,2.3101,2.3101,2.3101,2.3237,2.3594,2.3613,2.375,2.4062,2.4017,2.4017,2.4017,2.4017,2.4017,2.4017,2.375,2.3613,2.3594,2.3237,2.3101,2.3101,2.3101,2.3101,2.3101,2.3101,2.3101,2.3101,2.3101,2.3101,2.3101,2.3101,2.3101,2.3101,2.3101,2.3023,2.2925,2.2925,2.2925,2.2925,2.2925,2.3003,2.3101,2.3101,2.3101,2.3188,2.343,2.3474,2.3474,2.3474,2.3474,2.3387,2.3144,2.3003,2.2789,2.2402,2.2344,2.2344,2.2344,2.2344,2.248,2.2867,2.2925,2.2925,2.2925,2.2598,2.2168,2.1738,2.1426,2.1055,2.0625,2.0684,2.0742,2.0605,2.0605,2.0546,2.0429,2.0312,2.0253,0.0,0.0,0.0,0.0,0.0,0.0,0.0,0.0,0.0,0.0,0.0,0.0,0.0,0.0,0.0,0.0,0.0,0.0,0.0,0.0,0.0,0.0,2.2262,2.2695,2.3242,2.3164,2.3203,2.3588,2.3627,2.3627,2.3627,2.3627,2.3627,2.3627,2.3627,2.3627,2.3627,2.3627,2.3789,2.4043,2.4043,2.418,2.4414,2.4414,2.4414,2.4414,2.4414,2.4414,2.4414,2.416,2.4043,2.4043,2.3744,2.3732,2.3951,2.3951,2.4068,2.4145,0.0,0.0,0.0,0.0,2.3691,2.3734,2.4102,2.4231,2.4231,2.4231,2.4231,2.4145,2.382,2.3691,2.3604,2.3232,2.3101,2.3188,2.356,2.3691,2.3777,2.4145,2.4231,2.4145,2.3777,2.3691,2.356,2.3188,2.3101,0.0,2.2769,2.273,2.273,2.273,2.273,2.2828,2.3062,2.3101,2.3101,2.3101,2.2711,2.2422,2.2168,2.1758,0.0,0.0,0.0,2.0762,2.0605,2.0605,0.0,0.0,0.0,2.0605,2.0605,2.0605,0.0,0.0,2.0735,2.0988,0.0,0.0,0.0,0.0,0.0,0.0,0.0,0.0,0.0,0.0,0.0,0.0,0.0,0.0,0.0,0.0,2.2828,2.3086,2.4316,2.416,2.4062,2.4375,2.4414,2.4414,2.4414,2.4414,2.4414,2.4414,2.4414,2.4414,2.4414,2.4414,0.0,0.0,0.0,2.4512,2.457,2.457,2.457,2.457,2.457,2.457,2.457,2.4512,2.4492,2.4492,2.4434,2.4635,2.5013,2.5145,2.5506,2.5804,2.397,2.3188,2.3188,2.4036,2.4402,2.4616,2.5379,0.0,0.0,2.5777,2.5777,2.5652,2.4872,2.4659,2.4445,2.3647,2.3387,2.3604,2.4402,2.4659,2.4829,2.561,2.5777,2.5568,2.4701,2.4488,2.4209,2.3256,2.3101,2.3101,2.3101,2.3101,2.3101,2.3101,2.3101,2.3101,2.3101,2.3101,2.3101,2.3101,2.2769,0.0,2.2519,2.2168,2.1758,2.1229,2.1151,2.0977,2.0625,2.0605,2.0605,2.0605,2.0605,2.0605,2.0605,2.0605,2.0605,2.0605,2.0819,2.0916,0.0,0.0,0.0,0.0,0.0,0.0,0.0,0.0,0.0,0.0,0.0,0.0,0.0,0.0,0.0,2.3003,2.3359,2.3867,2.4805,2.491,2.4727,2.4453,2.4414,2.4414,2.4414,2.4414,2.4414,2.4414,2.4414,2.4414,2.4414,2.4414,2.457,2.4922,2.4941,2.5117,2.544,2.544,2.544,2.544,2.544,0.0,2.5421,2.5098,2.4941,2.4922,2.457,2.4447,2.4598,2.5394,2.6271,2.6889,2.4994,2.3777,2.3144,2.3299,2.3864,2.4531,2.4701,2.521,2.5777,2.5777,2.5777,2.5777,2.561,2.5526,0.0,2.5316,2.5274,2.5316,2.5484,2.5526,2.5568,2.5735,2.5777,2.5568,2.4701,2.4488,2.4209,2.3256,2.3101,2.3101,2.3101,2.3101,2.3101,2.3101,2.3101,2.3101,2.3101,2.3101,2.3101,2.3101,2.3023,2.2847,2.2539,2.2441,2.207,2.1249,2.0898,2.0703,2.0605,2.0605,2.0605,2.0605,2.0605,2.0605,2.0605,2.0605,2.0605,2.0605,2.0819,2.0916,0.0,0.0,0.0,0.0,0.0,0.0,0.0,0.0,0.0,0.0,0.0,2.2012,0.0,0.0,2.3105,2.3965,2.4102,2.4414,2.5273,2.5215,2.5078,2.5031,2.5031,2.5031,2.5031,2.5031,2.5031,2.5031,2.5031,2.5031,2.5031,2.5031,2.5176,2.5391,2.541,2.5508,2.5693,2.5693,2.5693,2.5693,2.5693,2.5693,2.5674,2.5508,2.541,2.5391,2.5176,2.5177,2.5476,2.6187,2.6551,2.6553,2.6084,2.5462,2.4885,2.5083,2.5463,2.5841,2.5841,2.6133,2.6423,2.5944,2.5777,2.5777,2.5777,2.5777,2.5694,2.5295,2.5442,2.5777,2.5777,2.6174,2.6505,2.6505,2.6505,2.6257,2.5337,2.5168,2.4872,2.3993,2.382,2.3647,2.3188,2.3101,2.3101,2.3101,2.3101,2.3101,2.3101,2.3101,2.3101,2.3101,2.3101,2.3003,2.2808,2.2637,2.2246,2.1602,2.1348,2.1271,2.1271,2.1016,2.0898,2.0898,2.0684,2.0605,2.0605,2.0605,2.0605,2.0605,2.0919,2.0958,0.0,0.0,0.0,0.0,0.0,0.0,0.0,0.0,2.1678,2.2168,2.2324,2.2598,2.3281,2.3443,2.3814,2.493,2.4766,2.4824,2.5577,2.543,2.5332,2.5635,2.5693,2.5693,2.5693,2.5693,2.5693,2.5693,2.5693,2.5693,2.5693,2.5693,2.5693,2.5693,2.5693,2.5693,2.5693,2.5693,2.5693,2.5693,2.5693,2.5693,2.5693,2.5917,2.6014,2.6014,2.6187,2.6635,2.7154,2.7563,2.7389,2.6986,2.7524,2.748,2.7146,2.7228,2.7291,2.7364,2.7364,2.74,2.7348,2.6588,2.6318,2.6318,2.6318,2.6318,2.611,2.5295,2.5547,2.6027,2.5861,2.6505,2.7185,2.7185,2.7348,2.7226,2.6276,2.6069,2.5819,2.4914,2.4744,2.4445,2.3517,2.3343,2.3299,2.3144,2.3101,2.3101,2.3101,2.3101,2.3101,2.3101,2.3101,2.3101,2.3101,2.2711,2.2363,2.2031,2.1934,2.1894,2.1894,2.1465,2.119,2.119,2.0801,2.0644,2.0742,2.0742,2.0781,2.086,2.1191,2.1113,2.1758,2.1777,2.1797,2.1758,2.1777,2.2012,0.0,0.0,2.3003,2.3496,2.3867,2.416,2.4258,2.4277,2.4453,2.5028,2.5067,2.5176,2.5615,2.5635,2.5635,2.5674,2.5693,2.5693,2.5693,2.5693,2.5693,2.5693,2.5693,2.5693,2.5693,2.5693,2.5693,2.5693,2.5693,2.5693,2.5693,2.5693,2.5693,2.5693,2.5693,2.5693,2.5742,2.6648,2.7057,2.7105,2.7981,2.889,2.9806,2.9829,3.0324,3.0924,2.966,2.9121,2.8963,2.7787,2.7622,2.7893,2.7893,2.8111,2.8339,2.8219,2.8219,2.8219,2.8219,2.8219,2.8018,2.7144,2.6981,2.6835,2.6027,2.6505,2.7185,2.7185,2.7794,2.8099,2.7226,2.7062,2.6753,2.5819,2.5652,2.5358,2.4488,2.4317,2.4079,2.3232,2.3101,2.3101,2.3101,2.3101,2.3101,2.3101,2.3101,2.3101,2.3101,2.2711,2.248,2.2441,2.209,2.1894,2.1894,2.1465,2.119,2.119,2.0801,2.0762,2.1112,2.1112,2.1367,2.1779,2.1797,2.1582,2.2246,2.2246,2.2187,2.1953,2.2266,2.2715,2.3066,2.334,2.3633,2.4062,2.4297,2.4492,2.4746,2.4805,2.4941,0.0,2.5449,2.5527,2.5654,2.5693,2.5693,2.5693,2.5693,2.5917,2.6504,2.6552,2.6552,2.6552,2.6014,2.5693,2.5693,2.5693,2.5693,2.5693,2.5693,2.5693,2.5693,2.5693,2.5693,2.5693,2.5693,2.5693,2.5693,2.6139,2.6332,2.638,2.6791,2.7531,2.8448,2.8448,2.905,2.9966,2.9895,2.9534,2.8834,2.7656,2.7697,2.8271,2.7757,2.8048,2.8514,2.7649,2.7391,2.7428,2.7685,2.7753,2.7672,2.7307,2.7551,2.7753,2.6835,2.6917,2.7185,2.7185,2.704,2.6835,2.6464,2.6381,2.6299,2.5861,2.5777,2.5694,2.5316,2.5253,2.4956,2.4036,2.343,2.3101,2.3101,2.3101,2.3101,2.3101,2.3101,2.3101,2.3101,2.2945,2.2828,2.2828,2.2672,2.2617,2.2617,2.2207,2.1973,2.1973,2.1562,2.1426,2.1621,2.1621,2.1699,2.1894,2.2129,2.2148,2.2656,2.2773,2.2793,2.248,2.2969,2.3516,2.3516,2.3848,2.4238,2.4531,2.4687,2.4883,2.5195,2.5254,2.5352,2.5635,2.5693,2.5693,2.5693,2.5577,2.5605,2.5674,2.5867,2.6287,2.7132,2.6962,2.6771,2.6771,2.6091,2.5693,2.5693,2.5693,2.5693,2.5693,2.5693,2.5693,2.5693,2.5693,2.5693,2.5693,2.5693,2.5693,2.5693,2.6014,2.6284,2.6524,2.6524,2.6935,2.7605,2.7605,2.8215,2.9143,2.9601,2.951,2.9008,2.7939,2.8099,2.8688,2.7767,2.803,2.8523,2.7192,2.6736,2.6821,2.7239,2.7392,2.7346,2.7231,2.7632,2.7938,2.704,2.7021,2.7144,2.6876,2.667,2.64,2.5902,2.5986,2.611,2.5861,2.5777,2.5735,2.5484,2.5442,2.5147,2.4251,2.3517,2.3101,2.3101,2.3101,2.3101,2.3101,2.3101,2.3101,2.3101,2.3101,2.3101,2.3101,2.3101,2.3101,2.3101,2.2691,2.2519,2.2519,2.2109,2.1934,2.2051,2.2051,2.2109,2.2246,2.2539,2.2676,0.0,0.0,2.375,2.373,2.4062,2.4375,2.4375,2.4707,2.5086,2.5086,2.5391,2.5654,2.5674,2.5674,2.5674,2.5693,2.5693,2.5693,2.5693,2.5371,2.5254,2.5635,2.6236,2.677,0.0,2.6332,2.5742,2.5742,2.5742,2.5693,2.5693,2.5693,2.5693,2.5693,2.5693,2.5693,2.5693,2.5693,2.5693,2.5693,2.5693,2.5693,2.5742,2.6696,2.7699,2.8634,2.8634,2.8634,2.8634,2.8634,2.9235,3.0079,2.9096,2.9326,3.0011,2.9006,2.8991,2.9212,2.8208,2.821,2.8439,2.7415,2.7085,2.7173,2.7654,2.7771,2.7698,2.7323,2.7226,2.6999,2.6091,2.6505,2.6981,2.6069,2.7162,2.7914,2.6152,2.6505,2.6876,2.5986,2.5777,2.5526,2.4701,2.4531,2.4209,2.3256,2.3144,2.3101,2.3101,2.3101,2.3101,2.3101,2.3101,2.3101,2.3101,2.3101,2.3101,2.3101,2.3101,2.3101,2.3101,2.2691,2.2519,2.2519,2.2109,2.209,2.25,2.25,2.2695,2.3062,2.3081,2.3081,0.0,0.0,2.4199,2.4199,2.4531,2.4844,2.4844,2.5195,2.5508,2.5508,2.5391,2.5293,2.5293,2.5293,2.5293,2.5293,2.5547,2.5791,2.6133,2.6035,2.6241,2.7045,2.699,0.0,0.0,0.0,0.0,2.6696,2.6091,2.5693,2.5693,2.5693,2.5693,2.5693,2.6332,2.6696,2.6696,2.7342,2.7342,2.6696,2.6014,2.5693,2.5693,2.6062,2.638,2.6696,2.6696,2.7057,2.7699,2.7699,2.8308,2.9189,2.8819,2.8495,2.8168,2.784,2.7781,2.8071,2.9081,2.9533,2.9663,2.9625,2.872,2.7721,2.8175,2.7845,2.7258,2.6879,2.6745,2.6741,2.6719,2.6505,2.634,2.667,2.6712,2.6547,2.5944,2.6027,2.6174,2.5861,2.5777,2.5694,2.54,2.5358,2.5084,2.4145,2.3517,2.3101,2.3101,2.3101,2.3101,2.3101,2.3101,2.3101,2.3101,2.3101,2.3101,2.3101,2.3101,2.3101,2.3101,2.2964,2.2886,2.2886,2.275,2.275,2.2886,2.2886,2.2964,2.3101,2.3101,2.3101,0.0,2.4434,2.4687,2.4844,2.5098,2.5312,2.5312,2.5527,2.5693,2.5693,2.5371,2.5117,2.5273,2.5059,2.4941,2.5254,2.541,2.5703,2.6309,2.625,2.6517,2.744,2.7102,2.7422,0.0,0.0,0.0,2.8301,2.7696,2.7329,2.7329,2.7329,2.7268,2.7056,2.7687,2.7915,2.7746,2.8402,2.8402,2.7746,2.7057,2.6744,2.6744,2.6744,2.6744,2.6744,2.6744,2.7152,2.7699,2.7321,2.7793,2.868,2.8308,2.7981,2.7746,2.7746,2.7746,2.7887,2.8819,2.9372,2.9693,3.0026,2.924,2.8225,2.8321,2.79,2.728,2.6846,2.6715,2.6736,2.6909,2.6501,2.6079,2.6218,2.5986,2.5694,2.54,2.5568,2.5777,2.5777,2.5777,2.5777,2.5777,2.5526,2.5041,2.4102,2.3474,2.3101,2.3101,2.3101,2.3101,2.3101,2.3101,2.3101,2.3101,2.3101,2.3101,2.3101,2.3101,2.3101,2.3101,2.3101,2.3101,2.3101,2.3101,2.3101,2.3101,2.3101,2.3101,2.3101,2.3101,2.3101,2.4793,2.5125,2.5195,2.5577,2.5693,2.5693,2.5693,2.5693,2.5693,2.5693,2.5371,2.5195,0.0,0.0,2.4727,2.5518,2.5391,2.5478,2.6309,2.6094,2.6133,0.0,0.0,0.0,0.0,0.0,0.0,3.028,0.0,3.029,3.029,3.029,3.0092,2.9584,2.954,2.9299,2.8771,2.868,2.8727,2.8773,2.8727,2.868,2.868,2.868,2.868,2.868,2.868,2.868,2.8634,2.7652,2.784,2.8634,2.7652,2.784,2.8634,2.8634,2.8588,2.8402,2.751,2.784,2.8634,2.8727,2.8727,2.8547,2.8134,2.8003,2.7804,2.728,2.7106,2.6997,2.6628,2.6497,2.6174,2.489,2.5232,2.5611,2.4744,2.521,2.5777,2.5735,2.5735,2.5735,2.5735,2.5041,2.4188,2.3232,2.3101,2.3101,2.3101,2.3101,2.3101,2.3101,2.3101,2.3101,2.3101,2.3101,2.3101,2.3101,2.3101,2.3101,2.3101,2.3101,2.3101,2.3101,2.3101,2.3101,2.3101,2.3101,2.3101,2.3101,2.3101,2.3101,2.5028,2.5312,2.5586,2.5654,2.5693,2.5693,2.5693,2.5693,2.5693,2.5693,2.5371,2.5145,0.0,0.0,0.0,2.5195,2.5703,0.0,2.6777,2.7031,0.0,2.8451,0.0,2.8425,3.0113,2.9833,0.0,0.0,3.0658,3.029,3.029,3.029,3.0246,3.0114,3.0451,3.0182,2.9296,2.8902,2.9096,2.9784,2.905,2.868,2.868,2.868,2.868,2.868,2.868,2.868,2.868,2.8448,2.8495,2.868,2.8402,2.8028,2.7558,2.7558,2.7105,2.6524,2.701,2.7369,2.784,2.9326,2.8819,2.7819,2.917,2.9102,2.8396,2.7961,2.7289,2.6774,2.7019,2.6558,2.6009,2.6001,2.6151,2.6171,2.5612,2.5652,2.561,2.4956,2.4829,2.4829,2.4829,2.4659,2.4188,2.3232,2.3101,2.3101,2.3101,2.3101,2.3101,2.3101,2.3101,2.3101,2.3101,2.3101,2.3101,2.3101,2.3101,2.3101,2.3101,2.3101,2.3101,2.3101,2.3101,2.3101,2.3101,2.3101,2.3101,2.3101,2.3101,2.3101,2.5312,2.5547,2.5693,2.5693,2.5693,2.5635,2.5488,2.5557,2.5577,2.5187,2.5117,2.5106,2.5106,2.4922,2.498,0.0,0.0,0.0,2.7187,2.7519,2.7976,0.0,2.8496,0.0,3.0961,3.0387,3.0587,0.0,3.1434,3.0877,3.0877,3.0877,3.0789,3.0521,3.0793,3.0437,2.9445,2.9562,2.9827,3.0215,3.0079,3.0034,3.0034,3.0034,3.0034,3.0034,3.0034,3.0034,2.9988,2.9555,2.9372,2.9326,2.8866,2.8355,2.7793,2.7369,2.7105,2.6982,2.6648,2.6819,2.7463,2.905,2.8773,2.8075,2.9189,2.8819,2.8104,2.8307,2.734,2.6323,2.6862,2.6235,2.5493,2.5564,2.5594,2.5557,2.5508,2.5509,2.5402,2.5105,2.5084,2.4956,2.4573,2.4488,2.4188,2.3232,2.3101,2.3101,2.3101,2.3101,2.3101,2.3101,2.3101,2.3101,2.3101,2.3101,2.3101,2.3101,2.3101,2.3101,2.3101,2.3101,2.3101,2.3101,2.3101,2.3101,2.3101,2.3101,2.3101,2.3101,2.3101,2.3101,2.5625,2.5693,2.5693,2.5693,2.5635,2.5547,2.5156,2.5312,2.5304,2.457,2.4766,2.5106,2.5106,2.4805,2.498,2.6191,0.0,2.6328,2.7552,2.7767,2.7943,2.8242,2.8301,2.9059,3.097,3.038,3.0691,3.265,3.2022,3.1586,3.1586,3.1586,3.1345,3.0837,3.0665,3.0231,2.9389,3.015,3.0372,3.008,3.1121,3.1543,3.1516,3.1649,3.1717,3.1717,3.1717,3.1717,3.1629,3.0779,3.0396,3.0306,2.9418,2.9004,2.8773,2.7934,2.8075,2.8448,2.6696,2.66,2.7321,2.8215,2.8495,2.8541,2.868,2.8075,2.7558,2.8448,2.7342,2.6011,2.6537,2.594,2.5086,2.4795,2.4585,2.4605,2.5091,2.5122,2.5153,2.5636,2.5718,2.5444,2.4637,2.4488,2.4188,2.3232,2.3101,2.3101,2.3101,2.3101,2.3101,2.3101,2.3101,2.3101,2.3101,2.3101,2.3101,2.3101,2.3101,2.3101,2.3101,2.3101,2.3101,2.3101,2.3101,2.3101,2.3101,2.3101,2.3101,2.3101,2.3101,2.3101,2.5674,2.5693,2.5693,2.5693,2.5449,2.5204,2.5125,2.4844,0.0,2.4453,2.4766,2.5106,2.5106,2.5312,2.5703,2.6289,2.6621,2.6992,2.763,2.7969,2.8203,0.0,2.8301,2.8441,2.8867,2.9513,0.0,0.0,3.1154,3.1586,3.1586,3.1586,3.1345,3.0837,3.0011,2.9656,2.9889,2.9253,2.9095,2.9481,3.0488,3.0767,3.0486,3.1339,3.1717,3.1717,3.1717,3.1717,3.1717,3.1516,3.1427,3.1427,3.125,3.0689,2.9943,2.9738,2.928,2.8634,2.8308,2.7746,2.7226,2.7416,2.7463,2.7605,2.8448,2.8588,2.8495,2.8634,2.784,2.6941,2.7049,2.6355,2.57,2.6099,2.5598,2.5105,2.5632,2.5098,2.466,2.513,2.5201,2.5053,2.455,2.4488,2.4188,2.3232,2.3101,2.3101,2.3101,2.3101,2.3101,2.3101,2.3101,2.3101,2.3101,2.3101,2.3101,2.3101,2.3101,2.3101,2.3101,2.3101,2.3101,2.3101,2.3101,2.3101,2.3101,2.3101,2.3101,2.3101,2.3101,2.3101,2.6016,2.6074,2.6074,2.6074,2.5918,2.5566,2.4883,0.0,0.0,2.3887,2.4277,2.4727,2.4727,2.5098,0.0,2.6269,2.6562,2.6914,2.763,2.7885,2.8047,2.8262,2.8301,2.8495,2.9059,2.9112,2.9303,2.988,2.988,3.0401,3.1534,3.1586,3.1476,3.1236,3.0729,3.0493,3.0466,3.0515,3.0568,3.0631,3.1646,3.1693,3.095,3.1226,3.1291,3.1222,3.0986,3.125,3.1717,3.1717,3.1717,3.1717,3.1717,3.1427,3.0913,3.0396,3.0215,3.0125,2.905,2.8727,2.868,2.8168,2.7295,2.66,2.7605,2.7579,2.7342,2.8402,2.7626,2.6552,2.7057,2.6456,2.5781,2.6072,2.5595,2.533,2.611,2.5289,2.4631,2.5386,2.5076,2.4641,2.4199,2.4119,2.3907,2.3208,2.3101,2.3101,2.3101,2.3101,2.3101,2.3101,2.3101,2.3101,2.3101,2.3101,2.3101,2.3101,2.3101,2.3101,2.3101,2.3101,2.3101,2.3101,2.3101,2.3101,2.3101,2.3101,2.3101,2.3101,2.3101,2.3101,2.6289,2.6465,2.6504,2.6406,2.6309,2.5937,2.4687,2.4609,0.0,2.3315,2.3705,2.4316,2.4394,2.4766,2.5399,0.0,2.6387,2.668,2.7591,2.7728,2.7865,0.0,2.8301,0.0,2.946,2.9006,0.0,2.9828,2.9375,2.967,3.1176,3.1227,3.1359,3.1564,3.1359,3.1186,3.1046,3.1815,3.201,3.1629,3.2606,3.2606,3.1638,3.1552,3.146,3.1321,3.0904,3.1147,3.1886,3.1765,3.1717,3.1717,3.1717,3.1717,3.1605,3.0824,3.1003,3.1472,2.9897,2.9692,3.0079,2.928,2.7673,2.6187,2.6962,2.6504,2.6014,2.7626,2.6935,2.5868,2.6696,2.6284,2.5693,2.5693,2.5593,2.5717,2.6262,2.5671,2.5205,2.5908,2.5406,2.4736,2.4301,2.4061,2.3769,2.3296,2.3237,2.3198,2.3101,2.3101,2.3101,2.3101,2.3101,2.3101,2.3101,2.3101,2.3101,2.3101,2.3101,2.3101,2.3101,2.3101,2.3101,2.3101,2.3101,2.3101,2.3101,2.3101,2.3101,2.3101,2.3101,2.3101,2.6387,2.666,2.6875,2.6484,2.6094,2.5499,2.4629,0.0,2.375,2.3198,2.3516,2.3965,2.4355,2.4766,2.5399,2.625,0.0,2.668,2.7591,2.7728,2.7865,2.8242,0.0,0.0,2.8441,2.927,2.9775,2.988,3.0742,3.0918,3.0068,3.0089,3.0535,3.1586,3.0587,3.0514,3.152,3.1622,3.1409,3.0976,3.1984,3.2241,3.1803,3.27,3.3073,3.3049,3.2522,3.2328,3.2394,3.191,3.1717,3.1717,3.1717,3.1717,3.1717,3.1605,3.1605,3.1673,3.1472,3.0869,3.017,3.0079,2.868,2.7105,2.7179,2.6504,2.5742,2.5917,2.582,2.5742,2.582,2.5791,2.5693,2.5693,2.6388,2.6758,2.5954,2.6376,2.6857,2.6584,2.6455,2.6264,2.5809,2.4931,2.4219,2.3789,2.373,2.3594,2.314,2.3101,2.3101,2.3101,2.3101,2.3101,2.3101,2.3101,2.3101,2.3101,2.3101,2.3101,2.3101,2.3101,2.3101,2.3101,2.3101,2.3101,2.3101,2.3101,2.3101,2.3101,2.3101,2.3101,2.6543,2.6894,2.6973,2.6816,2.6641,2.6133,2.4727,0.0,2.3965,2.3237,2.3237,2.3613,2.4297,2.4551,2.4961,0.0,0.0,0.0,2.6816,2.6894,2.7148,2.7832,2.791,0.0,0.0,0.0,2.8953,2.8953,2.9984,3.038,2.9911,3.0535,3.1103,3.1586,3.1154,3.1154,3.1586,3.2246,3.2487,3.2284,3.3345,3.3399,3.2653,3.2812,3.2815,3.2721,3.2277,3.2439,3.2923,3.2394,3.2178,3.213,3.1837,3.1717,3.1717,3.1717,3.1717,3.1717,3.1717,3.1427,3.1092,3.1092,3.017,2.8912,2.8308,2.7389,2.66,2.66,2.6187,2.5693,2.5693,2.5693,2.5693,2.5693,2.6014,2.638,2.6552,2.6408,2.6587,2.7653,2.7378,2.6832,2.6422,2.5972,2.539,2.431,2.416,2.4023,2.3594,2.3535,2.3437,2.312,2.3101,2.3101,2.3101,2.3101,2.3101,2.3101,2.3101,2.3101,2.3101,2.3101,2.3101,2.3101,2.3101,2.3101,2.3101,2.3101,2.3101,2.3101,2.3101,2.3101,2.6387,2.6816,2.6992,2.6855,2.6738,2.625,0.0,0.0,2.4023,2.3257,2.3101,2.3354,2.4258,2.4414,2.4707,0.0,0.0,2.5849,2.6328,2.6387,2.666,2.7383,0.0,2.7793,2.8522,2.8978,2.927,2.927,2.9984,3.0276,2.9932,3.0639,3.1278,3.1586,3.1257,3.1257,3.1586,3.2348,3.275,3.275,3.3819,3.3918,3.3178,3.325,3.3184,3.3089,3.2648,3.2866,3.3477,3.2947,3.2731,3.2683,3.213,3.1779,3.1463,3.1297,3.125,3.125,3.125,3.1427,3.1717,3.1717,3.125,3.0486,2.9806,2.868,2.7652,2.7652,2.6914,2.6091,2.5771,2.5693,2.5693,2.5693,2.5693,2.5868,2.66,2.6408,2.6552,2.7981,2.7699,2.717,2.7231,2.6724,2.604,2.5159,2.4795,2.4453,2.4023,2.3984,2.3867,2.351,2.3354,2.3237,2.3101,2.3101,2.3101,2.3101,2.3101,2.3101,2.3101,2.3101,2.3101,2.3101,2.3101,2.3101,2.3101,2.3101,2.3101,2.3101,2.3101,2.3101,2.5693,2.6317,2.6914,2.6504,2.6074,2.546,0.0,2.4102,2.3672,2.3179,2.3101,2.3354,2.4258,2.4414,2.4707,2.5538,0.0,0.0,2.6328,2.6387,2.6543,0.0,0.0,2.7629,2.9126,3.0691,3.1586,3.1586,3.1586,0.0,2.9964,2.9911,3.0432,3.1564,3.0484,3.0432,3.1586,3.1637,3.1637,3.1637,3.27,3.3201,3.325,3.4311,3.4775,3.4751,3.4222,3.3982,3.3958,3.3501,3.3284,3.3236,3.2707,3.1874,3.0951,3.0399,3.0215,3.0215,3.0215,3.0869,3.1717,3.1717,3.1693,3.1673,3.1673,3.026,2.868,2.868,2.7981,2.6962,2.5965,2.5693,2.5693,2.5693,2.5693,2.5693,2.5693,2.6504,2.7179,2.7226,2.72,2.751,2.8519,2.701,2.5904,2.6506,2.5745,2.4902,2.4473,2.4414,2.4414,2.4414,2.4023,2.3613,2.314,2.3101,2.3101,2.3101,2.3101,2.3101,2.3101,2.3101,2.3101,2.3101,2.3101,2.3101,2.3101,2.3101,2.3101,2.3101,2.3101,2.3101,2.5117,2.5469,2.5644,2.5527,2.5391,2.5059,2.418,2.3887,2.3672,2.3179,2.3101,2.3354,2.4258,2.4414,2.4707,2.5538,2.5693,0.0,0.0,0.0,0.0,2.7995,2.9328,3.033,0.0,0.0,3.1586,3.1586,3.1586,3.141,3.1051,3.1051,3.0557,2.9375,2.9723,3.0068,3.0432,3.192,3.2348,3.1637,3.27,3.2801,3.2145,3.2448,3.3001,3.3697,3.3534,3.3879,3.4486,3.3958,3.3789,3.3741,3.3236,3.2835,3.2486,3.1529,3.0996,3.0629,2.9862,3.0033,3.0666,3.0666,3.1137,3.1717,3.1717,3.0779,2.9555,2.8912,2.8495,2.8168,2.784,2.7247,2.6744,2.6744,2.6187,2.5693,2.5693,2.5965,2.638,2.7057,2.7179,2.7274,2.7605,2.7699,2.7563,2.7087,2.7301,2.718,2.6049,2.5895,2.5516,2.4499,2.4297,2.4043,2.3613,2.3257,2.3101,2.3101,2.3101,2.3101,2.3101,2.3101,2.3101,2.3101,2.3101,2.3101,2.3101,2.3101,2.3101,2.3101,2.3101,2.3101,0.0,2.4707,2.4824,2.4824,2.4707,0.0,2.3906,2.3652,2.3457,2.314,2.3101,2.3354,2.4258,2.4414,2.4707,2.5538,2.5693,0.0,0.0,0.0,0.0,2.8425,0.0,0.0,0.0,3.2487,3.2801,3.2801,3.2801,3.265,3.2246,3.2174,3.1359,2.9565,3.0193,3.0535,3.0535,3.192,3.2246,3.1637,3.2297,3.2246,3.1586,3.1586,3.1993,3.26,3.26,3.3001,0.0,3.3664,3.3692,3.3693,3.3576,3.3338,3.2913,3.2015,3.1217,3.0613,3.0329,3.0458,3.0767,3.0994,3.1371,3.1717,3.1717,3.125,3.0531,2.9555,2.928,2.9189,2.8819,2.8262,2.7793,2.7793,2.7295,2.6744,2.6332,2.6284,2.6332,2.66,2.6648,2.6744,2.7152,2.7389,2.7484,2.7226,2.7746,2.7828,2.6947,2.7138,2.6894,2.5605,2.5331,2.4947,2.4343,2.3867,2.3569,2.3569,2.3569,2.3569,2.3569,2.3569,2.3569,2.3569,2.3413,2.3335,2.3379,2.3179,2.3101,2.3101,2.3101,2.3101,0.0,2.4023,2.4316,2.4316,2.4043,2.375,2.375,2.3437,0.0,2.314,2.314,2.3413,2.4316,2.4473,2.4746,2.5557,2.5693,0.0,0.0,2.6281,0.0,0.0,3.1167,0.0,3.2709,3.3978,3.4775,3.4775,3.4775,3.4384,3.335,3.33,3.2851,3.1891,3.1841,3.179,3.1739,3.179,3.179,3.1739,3.1739,3.1688,3.1586,3.1534,3.1534,3.1586,3.1534,3.1534,3.1666,3.275,3.3201,3.3254,3.3838,3.3504,3.2709,3.2103,3.1202,3.0431,3.1419,3.1683,3.1734,3.2271,3.2088,3.1632,3.1632,3.1697,3.1516,3.0576,3.0306,3.0079,2.9143,2.8866,2.8819,2.8819,2.8773,2.8448,2.751,2.7226,2.6914,2.6014,2.5742,2.6014,2.6914,2.638,2.6091,2.7057,2.7274,2.7274,2.7226,2.8075,2.8308,2.72,2.6827,2.6253,2.5212,2.4687,2.4414,2.4414,2.4414,2.4414,2.4414,2.4414,2.4414,2.4414,2.4043,2.3828,2.3828,2.3398,2.314,2.314,2.3101,2.3101,2.3218,0.0,2.3393,2.3393,2.3315,2.3257,0.0,0.0,0.0,0.0,2.3633,2.3906,2.4746,2.4969,2.5098,2.5596,2.5693,2.5693,2.5693,2.7827,0.0,3.1314,3.3159,3.4125,3.3744,3.4366,3.4775,3.4775,3.4775,3.4677,3.4433,3.4433,3.4311,3.4066,3.4066,3.3648,3.2851,3.3671,3.3671,3.2801,3.2801,3.2376,3.1586,3.0691,3.0794,3.1534,3.0691,3.0794,3.1666,3.275,3.3201,3.33,3.4242,3.4486,3.417,3.3198,3.2506,3.1942,3.1332,3.1379,3.1733,3.1807,3.153,3.1158,3.1043,3.1333,3.1649,3.1427,3.1339,3.1294,3.1048,3.0396,2.9852,2.9852,2.9235,2.8634,2.8402,2.7746,2.7152,2.6867,2.6235,2.5771,2.6014,2.6504,2.6914,2.7132,2.784,2.8075,2.7274,2.8075,2.8028,2.6235,2.6642,2.6676,2.5615,2.4863,2.4414,2.4414,2.4414,2.4414,2.4414,2.4414,2.4414,2.4414,2.4316,2.4277,2.4277,2.3848,2.3633,2.3633,2.3257,2.3101,2.3627,2.353,2.3437,2.3437,2.353,2.3686,2.3686,0.0,0.0,0.0,2.4082,2.4277,2.4988,2.5106,2.5215,2.5615,2.5693,0.0,0.0,0.0,3.037,3.1569,3.333,3.4414,0.0,3.4607,3.4775,3.4775,3.4775,3.4775,3.4775,3.4775,3.4775,3.4775,3.4775,3.4531,3.3967,3.4531,3.4531,3.3918,3.3449,3.2901,3.2297,3.1206,3.1,3.1586,3.0949,3.1,3.1637,3.2246,3.275,3.325,3.3869,3.4384,3.4726,3.4164,3.3485,3.286,3.2738,3.2709,3.2794,3.2723,3.2394,3.2042,3.1972,3.2177,3.2343,3.1837,3.1717,3.1717,3.1717,3.1294,3.0869,3.0869,3.0441,2.9943,2.9464,2.8958,2.8308,2.7369,2.7152,2.6791,2.5868,2.6552,2.7057,2.66,2.7389,2.784,2.7274,2.8075,2.8121,2.6552,2.6867,2.6771,2.5791,2.5245,2.4972,2.4972,2.4972,2.4972,2.4972,2.4972,2.4922,2.4727,2.4707,2.4609,2.4414,2.4004,2.3789,2.3789,2.3555,2.3437,2.4316,2.4199,2.3965,2.3906,2.416,2.4414,2.4414,0.0,0.0,0.0,0.0,0.0,0.0,2.5176,2.5293,2.5635,0.0,0.0,2.7231,2.8843,3.0334,3.1251,3.3021,0.0,3.4631,3.4727,3.4775,3.4775,3.4775,3.4775,3.4775,3.4775,3.4775,3.4775,3.4775,3.4775,3.4775,3.4775,3.4775,3.4775,3.3869,3.3449,3.34,3.2348,3.1819,3.1841,3.1688,3.1586,3.1586,3.1586,3.2145,3.2951,3.3151,3.377,3.458,3.4726,3.4115,3.335,3.4213,3.439,3.4102,3.3911,3.3577,3.3217,3.3171,3.3099,3.2907,3.2178,3.191,3.1837,3.1837,3.1765,3.1717,3.1717,3.1717,3.1472,3.0621,3.0306,2.9715,2.7981,2.8215,2.8168,2.6476,2.6744,2.6914,2.6062,2.6504,2.6962,2.6962,2.784,2.8075,2.7105,2.7105,2.6771,2.5791,2.5693,2.5693,2.5693,2.5693,2.5693,2.5693,2.5693,2.5566,2.5176,2.5176,2.5,2.4609,2.4199,2.3984,2.3984,2.3906,2.3887,2.4394,2.4629,2.4832,2.4414,2.4375,2.4414,2.4414,0.0,0.0,0.0,0.0,0.0,0.0,2.5596,2.5615,2.5674,0.0,2.8578,0.0,0.0,3.2499,3.3433,0.0,3.451,3.415,3.451,3.4775,3.4775,3.4775,3.4775,3.4775,3.4775,3.4775,3.4775,3.4775,3.4775,3.4775,3.4775,3.4775,3.4775,3.4628,3.458,3.4531,3.3449,3.2951,3.2901,3.1993,3.1586,3.1586,3.1586,3.1688,3.1942,3.2851,3.33,3.3572,3.4482,3.4115,3.3201,3.34,3.397,3.4509,3.363,3.3059,3.269,3.2593,3.2293,3.2182,3.2836,3.2731,3.237,3.237,3.201,3.1717,3.1717,3.1717,3.1673,3.1516,3.0824,3.0125,2.9806,2.9189,2.8588,2.8308,2.7652,2.7152,2.701,2.638,2.5917,2.5917,2.6839,2.7057,2.6062,2.6696,2.6771,2.5791,2.5693,2.5693,2.5693,2.5693,2.5693,2.5693,2.5693,2.5654,2.5596,2.5596,2.5557,2.5479,2.5098,2.491,2.491,2.4492,2.4316,2.5059,2.5273,2.5391,2.5176,2.5089,2.5089,2.5089,0.0,0.0,0.0,0.0,0.0,0.0,0.0,2.635,2.714,0.0,2.8371,3.1016,3.1304,3.1757,0.0,3.391,3.4366,3.4414,3.4631,3.4775,3.4775,3.4775,3.4775,3.4775,3.4775,3.4775,3.4775,3.4775,3.4775,3.4775,3.4775,3.4775,3.4775,3.4775,3.4775,3.4775,3.4262,3.4066,3.4066,3.3549,3.335,3.33,3.27,3.2801,3.33,3.325,3.3201,3.325,3.377,3.3598,3.33,3.3869,3.436,3.4726,3.4213,3.395,3.3761,3.3713,3.3548,3.3528,3.3983,3.3549,3.2923,3.2923,3.2731,3.2539,3.2539,3.2322,3.2106,3.2106,3.1553,3.0869,3.0306,3.026,2.9988,2.8912,2.8308,2.784,2.7274,2.6819,2.6332,2.5791,2.66,2.6819,2.582,2.6091,2.6187,2.5742,2.5693,2.5693,2.5693,2.5693,2.5693,2.5693,2.5693,2.5693,2.5693,2.5693,2.5693,2.5693,2.5293,2.5106,2.5106,2.4863,2.4766,2.5644,2.5693,2.5693,2.5693,2.5693,2.5713,2.581,2.5849,2.5869,0.0,0.0,0.0,0.0,2.6172,0.0,2.8703,2.8368,2.8723,3.106,3.1255,3.1705,3.2945,3.3742,3.4342,3.4751,3.4775,3.4775,3.4775,3.4775,3.4775,3.4775,3.4775,3.4775,3.4775,3.4775,3.4775,3.4775,3.4775,3.4775,3.4775,3.4775,3.4775,3.4775,3.4775,3.4775,3.4775,3.4775,3.4775,3.4726,3.3671,3.3671,3.4311,3.3499,3.335,3.3499,3.3001,3.3001,3.33,3.3869,3.4213,3.4482,3.4726,3.4775,3.4775,3.4775,3.4775,3.4775,3.4775,3.427,3.3574,3.3195,3.3194,3.3238,3.2981,3.2787,3.2683,3.2683,3.2346,3.1807,3.0899,3.135,3.1347,2.9669,2.9189,2.8773,2.8028,2.7699,2.72,2.6187,2.6744,2.6819,2.582,2.5693,2.5693,2.5693,2.5693,2.5693,2.5693,2.5693,2.5693,2.5693,2.5693,2.5693,2.5693,2.5693,2.5693,2.5693,2.5391,2.5215,2.5215,2.5215,2.5215,2.5674,2.5693,2.5693,2.5693,2.5693,2.5791,2.625,2.6348,2.6465,2.6836,0.0,0.0,0.0,2.6367,2.7251,2.9786,3.0416,3.1501,3.4097,3.446,3.4533,3.4629,3.4727,3.4751,3.4775,3.4775,3.4775,3.4775,3.4775,3.4775,3.4775,3.4775,3.4775,3.4775,3.4775,3.4775,3.4775,3.4775,3.4775,3.4775,3.4775,3.4775,3.4775,3.4775,3.4775,3.4775,3.4775,3.4775,3.4726,3.3671,3.325,3.33,3.325,3.3819,3.4433,3.2448,3.2348,3.3051,3.2145,3.2499,3.3449,3.4482,3.4775,3.4775,3.4775,3.4775,3.4775,3.4775,3.4727,3.4365,3.2876,3.2912,3.3027,3.1946,3.2512,3.3236,3.3236,3.3212,3.302,3.2448,3.2397,3.2229,3.1612,3.0734,3.0079,2.9988,2.9189,2.8215,2.7226,2.7132,2.6819,2.582,2.5693,2.5693,2.5693,2.5693,2.5693,2.5693,2.5693,2.5693,2.5693,2.5693,2.5693,2.5693,2.5693,2.5693,2.5693,2.5654,2.5635,2.5635,2.5635,2.5635,2.5693,2.5693,2.5693,2.5693,2.5693,2.581,2.6289,2.6387,2.6426,2.6602,2.6699,0.0,0.0,0.0,2.8512,2.9513,3.0594,3.1923,3.3575,3.3819,3.4066,3.4726,3.4775,3.4775,3.4775,3.4775,3.4775,3.4775,3.4775,3.4775,3.4775,3.4775,3.4775,3.4775,3.4775,3.4775,3.4775,3.4775,3.4775,3.4775,3.4775,3.4775,3.4775,3.4775,3.4775,3.4775,3.4775,3.4775,3.4775,3.436,3.4164,3.4115,3.3449,3.3449,3.372,3.2901,3.2851,3.325,3.3499,3.34,3.325,3.3648,3.3819,3.3819,3.3819,3.4262,3.4775,3.4775,3.4775,3.4678,3.4025,3.4029,3.415,3.3694,3.3648,3.3765,3.3765,3.3501,3.3236,3.302,3.2996,3.2827,3.2274,3.1385,3.0606,3.0261,2.9897,2.928,2.8262,2.8121,2.7746,2.6744,2.6062,2.5693,2.5693,2.5693,2.5693,2.5693,2.5693,2.5693,2.5693,2.5693,2.5693,2.5693,2.5693,2.5693,2.5693,2.5693,2.5693,2.5693,2.5693,2.5693,2.5693,2.5693,2.5693,2.5693,2.5693,2.583,2.6465,2.6582,2.666,2.6934,2.7247,2.7368,2.7063,0.0,0.0,2.9787,3.1106,3.2499,3.3549,3.372,3.3967,3.4726,3.4775,3.4775,3.4775,3.4775,3.4775,3.4775,3.4775,3.4775,3.4775,3.4775,3.4775,3.4775,3.4775,3.4775,3.4775,3.4775,3.4775,3.4775,3.4775,3.4775,3.4775,3.4775,3.4775,3.4775,3.4775,3.4775,3.4775,3.4775,3.4775,3.4726,3.3967,3.372,3.3648,3.33,3.3201,3.33,3.4066,3.3819,3.325,3.3621,3.372,3.3671,3.33,3.3967,3.4726,3.436,3.4531,3.4775,3.4775,3.4775,3.4726,3.436,3.4245,3.415,3.3838,3.3768,3.3623,3.3125,3.329,3.3356,3.2827,3.218,3.1599,3.1226,3.1179,3.0744,2.9594,2.9433,2.8855,2.7342,2.6284,2.5693,2.5693,2.5693,2.5693,2.5693,2.5693,2.5693,2.5693,2.5693,2.5693,2.5693,2.5693,2.5693,2.5693,2.5693,2.5693,2.5693,2.5693,2.5693,2.5693,2.5693,2.5693,2.5693,2.5693,2.5908,2.6816,2.7012,2.7246,2.8105,2.8408,2.8207,2.7216,2.8736,0.0,3.0827,3.2212,3.3549,3.4628,3.4775,3.4775,3.4775,3.4775,3.4775,3.4775,3.4775,3.4775,3.4775,3.4775,3.4775,3.4775,3.4775,3.4775,3.4775,3.4775,3.4775,3.4775,3.4775,3.4775,3.4775,3.4775,3.4775,3.4775,3.4775,3.4775,3.4775,3.4775,3.4775,3.4775,3.4775,3.4775,3.4775,3.4775,3.4775,3.4677,3.3598,3.3201,3.3201,3.3201,3.3201,3.335,3.4433,3.4775,3.458,3.3499,3.3967,3.458,3.3499,3.3967,3.4775,3.4775,3.4775,3.4531,3.3449,3.4017,3.4531,3.3449,3.4066,3.4315,3.2704,3.3312,3.3838,3.338,3.3308,3.3308,3.3284,3.3284,3.2744,3.1228,3.0973,3.0001,2.7478,2.6284,2.5693,2.5693,2.5693,2.5693,2.5693,2.5693,2.5693,2.5693,2.5693,2.5693,2.5693,2.5693,2.5693,2.5693,2.5693,2.5693,2.5693,2.5693,2.5693,2.5693,2.5693,2.5693,2.5693,2.5977,2.6328,0.0,2.6777,0.0,0.0,2.7897,2.8081,2.8503,3.0024,3.1083,3.0937,3.2807,3.4164,3.377,3.4311,3.4775,3.4775,3.4775,3.4775,3.4775,3.4775,3.4775,3.4775,3.4775,3.4775,3.4775,3.4775,3.4775,3.4775,3.4775,3.4775,3.4775,3.4775,3.4775,3.4775,3.4775,3.4775,3.4775,3.4775,3.4775,3.4775,3.4775,3.4775,3.4775,3.4775,3.4775,3.4775,3.4775,3.4775,3.4775,3.4433,3.4335,3.4335,3.4335,3.3819,3.325,3.3549,3.3648,3.3598,3.33,3.3967,3.4726,3.4409,3.458,3.4775,3.4775,3.4775,3.4726,3.4409,3.458,3.4726,3.436,3.458,3.4678,3.417,3.4341,3.439,3.3862,3.3766,3.3693,3.3332,3.3284,3.2886,3.1714,3.0861,2.9833,2.832,2.7252,2.659,2.659,2.659,2.6504,2.6211,2.6191,2.6055,2.5693,2.5693,2.5693,2.5693,2.5693,2.5693,2.5693,2.5693,2.5693,2.5693,2.5693,2.5693,2.582,2.5771,2.5732,2.5957,2.6191,2.6504,2.6914,0.0,0.0,0.0,2.8485,2.9075,2.9446,3.1164,3.2361,3.19,3.3511,3.458,3.3918,3.436,3.4775,3.4775,3.4775,3.4775,3.4775,3.4775,3.4775,3.4775,3.4775,3.4775,3.4775,3.4775,3.4775,3.4775,3.4775,3.4775,3.4775,3.4775,3.4775,3.4775,3.4775,3.4775,3.4775,3.4775,3.4775,3.4775,3.4775,3.4775,3.4775,3.4775,3.4775,3.4775,3.4775,3.4775,3.4775,3.4775,3.4775,3.4775,3.4775,3.436,3.3869,3.3869,3.3869,3.377,3.335,3.3967,3.4726,3.4262,3.4482,3.4775,3.4775,3.4482,3.4262,3.4677,3.4775,3.4677,3.4262,3.4482,3.4677,3.4262,3.4531,3.4679,3.4366,3.3957,3.3742,3.3839,3.3717,3.3338,3.2747,3.1584,3.0387,2.931,2.8287,2.745,2.7012,2.7012,2.6914,2.666,2.6641,2.6523,2.62,2.5869,2.5693,2.5693,2.5693,2.5693,2.5693,2.5693,2.5693,2.5693,2.5693,2.5693,2.6014,2.5868,2.5791,2.6289,2.6445,2.6621,2.7031,2.7734,2.8281,2.8242,0.0,3.0608,3.0161,3.2167,3.3814,3.3429,3.4164,3.4775,3.4775,3.4775,3.4775,3.4775,3.4775,3.4775,3.4775,3.4775,3.4775,3.4775,3.4775,3.4775,3.4775,3.4775,3.4775,3.4775,3.4775,3.4775,3.4775,3.4727,3.4727,3.4775,3.4727,3.4727,3.4775,3.4775,3.4775,3.4775,3.4775,3.4775,3.4775,3.4775,3.4775,3.4775,3.4775,3.4775,3.4775,3.4775,3.4775,3.4775,3.4775,3.4775,3.4775,3.4775,3.4775,3.4628,3.3671,3.4017,3.458,3.3598,3.4066,3.4775,3.4775,3.4066,3.3549,3.4482,3.4677,3.436,3.34,3.4066,3.4531,3.3549,3.4115,3.4775,3.4775,3.3967,3.3671,3.4531,3.4174,3.3815,3.3911,3.2577,3.1247,3.0324,2.9239,2.8157,2.718,2.7129,2.7109,2.707,2.707,2.7051,2.7012,2.622,2.5791,2.5752,2.5752,2.5732,2.5693,2.5693,2.5693,2.5693,2.5693,2.5693,2.582,2.5742,2.5791,2.6289,2.6894,2.7552,2.793,2.8164,2.8203,2.7871,2.9051,3.0326,3.1103,3.2409,3.363,3.436,3.4677,3.4775,3.4775,3.4775,3.4775,3.4775,3.4775,3.4775,3.4775,3.4775,3.4775,3.4775,3.4775,3.4775,3.4775,3.4775,3.4775,3.4775,3.4775,3.4775,3.4775,3.4366,3.4366,3.4775,3.4366,3.4366,3.4775,3.4775,3.4775,3.4775,3.4775,3.4775,3.4775,3.4775,3.4775,3.4775,3.4775,3.4775,3.4775,3.4775,3.4775,3.4775,3.4775,3.4775,3.4775,3.4775,3.4775,3.4775,3.4531,3.4628,3.4726,3.4531,3.4628,3.4775,3.4775,3.4628,3.4311,3.3697,3.3549,3.3449,3.325,3.4066,3.4726,3.4482,3.4628,3.4775,3.4775,3.4628,3.4262,3.3671,3.276,3.2442,3.3238,3.1576,3.0547,3.1207,2.9539,2.8272,2.8008,2.8027,2.7871,2.7539,2.7519,2.7363,2.7031,2.6836,2.6582,2.625,2.625,2.6074,2.5693,2.5693,2.5693,2.5693,2.5693,2.5693,2.6062,2.5888,2.5791,2.6289,0.0,2.7969,2.7988,2.8144,2.8382,2.8673,2.9818,3.1051,3.2174,3.325,3.4164,3.4726,3.4775,3.4775,3.4775,3.4775,3.4775,3.4775,3.4775,3.4775,3.4775,3.4775,3.4775,3.4775,3.4775,3.4775,3.4775,3.4775,3.4775,3.4775,3.4534,3.4414,3.4414,3.4126,3.4126,3.4414,3.4366,3.451,3.4775,3.4775,3.4775,3.4775,3.4775,3.4775,3.4775,3.4775,3.4775,3.4775,3.4775,3.4775,3.4775,3.4775,3.4775,3.4775,3.4775,3.4775,3.4775,3.4775,3.4775,3.4775,3.4775,3.4775,3.4775,3.4775,3.4775,3.4775,3.4775,3.4433,3.3918,3.335,3.3201,3.3201,3.3201,3.3671,3.4164,3.4677,3.4775,3.4775,3.4775,3.4775,3.4433,3.335,3.275,3.26,3.3151,3.1717,3.0742,3.0794,2.9775,2.8847,2.8335,2.8301,2.8203,2.7988,2.7969,2.7871,2.7637,2.7617,2.7324,2.6699,2.6699,2.6582,2.6298,2.6152,2.6055,2.6055,2.5791,2.5693,2.6448,2.6218,2.5986,2.6388,2.7297,0.0,2.7787,2.793,2.8502,2.965,3.0794,3.1942,3.3001,3.4066,3.4775,3.4775,3.4775,3.4775,3.4775,3.4775,3.4775,3.4775,3.4775,3.4775,3.4775,3.4775,3.4775,3.4775,3.4775,3.4775,3.4775,3.4775,3.4775,3.4775,3.427,3.403,3.4126,3.3862,3.3814,3.4006,3.4438,3.4655,3.4655,3.4751,3.4775,3.4775,3.4679,3.4703,3.4775,3.4679,3.4703,3.4775,3.4775,3.4775,3.4775,3.4775,3.4775,3.4775,3.4775,3.4775,3.4775,3.4775,3.4775,3.4775,3.4775,3.4775,3.4775,3.4775,3.4775,3.4775,3.4775,3.4115,3.3449,3.325,3.3201,3.3201,3.3201,3.3201,3.3499,3.458,3.4775,3.4726,3.458,3.4531,3.4213,3.335,3.3051,3.2901,3.2901,3.1971,3.0949,3.0016,2.9723,2.927,2.8408,2.8301,2.8301,2.8301,2.8301,2.8301,2.8301,2.8301,2.7969,2.7246,2.7168,2.709,2.7012,2.666,2.6504,2.6484,2.6055,2.581,2.6544,0.0,2.6685,0.0,2.6979,2.7266,0.0,0.0,2.8147,0.0,3.0794,3.1942,3.3001,3.4066,3.4775,3.4775,3.4775,3.4775,3.4775,3.4775,3.4775,3.4775,3.4775,3.4775,3.4775,3.4775,3.4775,3.4775,3.4775,3.4775,3.4775,3.4775,3.4775,3.4775,3.427,3.4222,3.4679,3.338,3.3164,3.3982,3.4054,3.4102,3.4102,3.4583,3.4775,3.4751,3.4294,3.4366,3.4751,3.4294,3.4366,3.4775,3.4775,3.4775,3.4775,3.4775,3.4775,3.4775,3.4775,3.4775,3.4775,3.4775,3.4775,3.4775,3.4775,3.4775,3.4775,3.4775,3.4775,3.4775,3.4775,3.4677,3.436,3.34,3.3201,3.3201,3.3201,3.3201,3.3499,3.458,3.4775,3.4531,3.3549,3.34,3.335,3.3201,3.2398,3.1819,3.1819,3.0845,3.0068,2.9932,2.9059,2.8441,2.8281,2.8301,2.8301,2.8301,2.8301,2.8301,2.8301,2.8301,2.8242,2.8125,2.7773,2.7402,2.7012,2.6953,2.6934,2.6914,2.6504,2.6309,2.6544,2.6623,2.6685,0.0,2.6704,2.7012,2.6953,2.7129,2.7653,2.8921,3.0269,3.1611,3.2955,3.3598,3.4115,3.4677,3.4775,3.4775,3.4775,3.4775,3.4775,3.4775,3.4775,3.4775,3.4775,3.4775,3.4775,3.4775,3.451,3.4462,3.4751,3.451,3.4462,3.4775,3.4054,3.3741,3.3958,3.2996,3.2875,3.3621,3.3621,3.3621,3.3621,3.3861,3.4294,3.4751,3.4222,3.4126,3.4318,3.4078,3.4126,3.4366,3.4655,3.4775,3.4775,3.4775,3.4775,3.4775,3.4775,3.4775,3.4775,3.4775,3.4775,3.4775,3.4775,3.4775,3.4775,3.4775,3.4775,3.4775,3.4775,3.4775,3.4677,3.4213,3.4115,3.4115,3.4115,3.3151,3.2448,3.2901,3.3001,3.2851,3.2398,3.2297,3.2297,3.2297,3.1359,3.0845,3.1534,3.0089,2.9217,2.9828,2.8953,2.8301,2.8301,2.8301,2.8301,2.8301,2.8301,2.8301,2.8301,2.8301,2.8301,2.8301,2.8105,2.793,2.7734,2.75,2.7383,2.7363,2.6934,2.6738,2.6736,0.0,2.6654,2.6287,2.6488,2.6722,0.0,0.0,2.7078,0.0,2.9337,3.0728,3.2149,3.3089,3.3822,3.4486,3.4703,3.4775,3.4775,3.4775,3.4775,3.4775,3.4655,3.4631,3.4775,3.4655,3.4583,3.4583,3.4222,3.4102,3.4414,3.4006,3.3982,3.4438,3.3573,3.3212,3.3477,3.3092,3.302,3.3284,3.3284,3.3284,3.3284,3.3284,3.3717,3.4414,3.3838,3.3742,3.3982,3.3862,3.3958,3.4222,3.4631,3.4775,3.4775,3.4775,3.4775,3.4775,3.4775,3.4775,3.4775,3.4775,3.4775,3.4775,3.4775,3.4775,3.4775,3.4775,3.4775,3.4775,3.4775,3.4775,3.4775,3.4775,3.4775,3.4726,3.4482,3.335,3.2196,3.1308,3.1615,3.1841,3.1257,3.141,3.1586,3.1586,3.0845,3.0535,3.1124,2.9723,2.89,2.9408,2.8794,2.8301,2.8301,2.8301,2.8301,2.8301,2.8301,2.8301,2.8301,2.8301,2.8301,2.8301,2.8301,2.8301,2.8301,2.7988,2.7832,2.7812,2.7383,2.7187,0.0,2.7092,0.0,2.6564,2.6324,2.6172,0.0,0.0,2.6573,2.6984,2.7925,2.8956,3.0063,3.2704,3.4558,3.4126,3.4462,3.4775,3.4775,3.4775,3.4775,3.4775,3.4342,3.4222,3.4727,3.4318,3.403,3.403,3.4006,3.379,3.3404,3.3332,3.3332,3.3356,3.2827,3.302,3.3934,3.3934,3.3741,3.3284,3.3284,3.3284,3.3284,3.3284,3.3308,3.3332,3.2803,3.314,3.3958,3.3525,3.3909,3.4751,3.4775,3.4775,3.4775,3.4775,3.4775,3.4775,3.4775,3.4775,3.4775,3.4775,3.4775,3.4775,3.4775,3.4775,3.4775,3.4775,3.4775,3.4775,3.4775,3.4775,3.4775,3.4775,3.4775,3.4531,3.3499,3.4017,3.3697,3.0587,3.1666,3.2426,3.0328,3.0897,3.1586,3.1586,3.1534,3.1154,3.012,2.988,2.946,2.8495,2.8354,2.8301,2.8301,2.8301,2.8301,2.8301,2.8301,2.8301,2.8301,2.8301,2.8301,2.8301,2.8301,2.8301,2.8301,2.8262,2.8262,2.8262,2.7832,2.7689,0.0,0.0,0.0,2.6805,2.6448,2.615,2.6211,2.6055,2.6016,2.6172,2.723,2.839,2.9081,3.1145,3.2911,3.3432,3.3717,3.3958,3.4222,3.4054,3.3958,3.4246,3.3861,3.3765,3.4222,3.3861,3.3693,3.3958,3.3382,3.3116,3.3284,3.3284,3.3428,3.3765,3.355,3.3501,3.3549,3.3549,3.3477,3.3284,3.3284,3.3284,3.3284,3.3284,3.3284,3.3284,3.3092,3.302,3.3068,3.3212,3.3501,3.3909,3.4559,3.4775,3.4775,3.4775,3.4775,3.4775,3.4775,3.4775,3.4775,3.4775,3.4775,3.4775,3.4775,3.4775,3.4775,3.4775,3.4775,3.4775,3.4775,3.4775,3.4775,3.4775,3.5039,3.523,3.4809,3.4252,3.3201,3.1359,3.1051,3.0845,3.0016,2.967,2.9481,2.9481,2.9481,2.9565,2.988,2.9303,2.9006,2.9323,2.8708,2.8301,2.8301,2.8301,2.8301,2.8301,2.8301,2.8301,2.8301,2.8301,2.8301,2.8301,2.8301,2.8301,2.8301,2.8301,2.8301,2.8281,2.8144,2.8066,2.7531,0.0,0.0,0.0,2.664,2.6304,2.6139,2.5965,2.582,2.5742,2.6794,2.786,2.8139,2.9816,3.153,3.2787,3.3164,3.3404,3.3741,3.3501,3.3428,3.3741,3.3332,3.3236,3.3741,3.3332,3.3164,3.3454,3.3044,3.2851,3.302,3.3188,3.3428,3.3789,3.391,3.3838,3.3549,3.3717,3.3813,3.3813,3.3621,3.3549,3.3525,3.3356,3.3284,3.3284,3.3284,3.3188,3.3044,3.3404,3.3645,3.3885,3.4559,3.4775,3.4775,3.4775,3.4775,3.4775,3.4775,3.4775,3.4799,3.504,3.5039,3.5087,3.5304,3.5352,3.5352,3.5352,3.5352,3.5352,3.5352,3.5352,3.5352,3.5352,3.5617,3.5881,3.5881,3.5044,3.3958,3.2891,3.2044,3.142,3.1053,3.0069,2.9299,2.914,2.8765,2.8706,2.927,2.8761,2.8548,2.9323,2.8761,2.8301,2.8301,2.8301,2.8301,2.8301,2.8301,2.8301,2.8301,2.8301,2.8301,2.8301,2.8301,2.8301,2.8301,2.8301,2.8301,2.8301,2.8301,2.8301,0.0,0.0,0.0,0.0,0.0,0.0,2.6255,0.0,2.6014,2.5791,2.6456,2.7132,2.7179,2.8819,3.0626,3.2144,3.2853,3.326,3.326,3.326,3.326,3.326,3.2803,3.2683,3.3212,3.2779,3.2491,3.2515,3.2971,3.3044,3.2539,3.302,3.3308,3.3332,3.3813,3.4006,3.4006,3.451,3.4775,3.4775,3.427,3.4006,3.4006,3.3549,3.3332,3.3332,3.3332,3.3621,3.4006,3.4006,3.4294,3.4751,3.4775,3.4775,3.4775,3.4775,3.4775,3.4775,3.4799,3.4799,3.4895,3.5449,3.5617,3.5737,3.6218,3.6386,3.6411,3.6386,3.6386,3.6411,3.6411,3.6411,3.6411,3.6411,3.6411,3.6435,3.6435,3.6435,3.6129,3.508,3.482,3.4484,3.3431,3.2254,3.1296,3.0838,2.9721,2.8843,2.8413,2.8374,2.8301,2.8301,2.8301,2.8301,2.8301,2.8301,2.8301,2.8301,2.8301,2.8301,2.8301,2.8301,2.8301,2.8301,2.8301,2.8301,2.8301,2.8301,2.8301,2.8301,2.8301,2.8301,2.8462,0.0,0.0,0.0,0.0,0.0,0.0,0.0,2.6091,2.6014,2.6062,2.6332,2.7057,2.7814,2.8653,2.962,3.1107,3.2295,3.2659,3.237,3.2319,3.2683,3.2226,3.2106,3.2659,3.2226,3.2226,3.302,3.2851,3.2827,3.3068,3.3549,3.3958,3.439,3.4486,3.4558,3.4558,3.4703,3.4775,3.4775,3.4631,3.4558,3.4558,3.4463,3.4414,3.4414,3.4414,3.4487,3.4534,3.415,3.4078,3.4246,3.4631,3.4775,3.4775,3.4775,3.4775,3.4847,3.5207,3.54,3.5425,3.5569,3.5881,3.6074,3.5449,3.5785,3.6314,3.593,3.6122,3.6411,3.6411,3.6411,3.6411,3.6411,3.6699,3.6964,3.6964,3.7276,3.7272,3.6173,3.5338,3.4693,3.438,3.3431,3.2641,3.2511,3.147,3.0567,3.0097,2.9272,2.8633,2.832,2.8301,2.8301,2.8301,2.8301,2.8301,2.8301,2.8301,2.8301,2.8301,2.8301,2.8301,2.8301,2.8301,2.8301,2.8301,2.8301,2.8301,2.8301,2.8301,2.8301,0.0,0.0,0.0,0.0,0.0,0.0,2.7171,2.6778,2.6426,2.6005,2.582,2.5868,2.6456,2.7057,2.7579,2.7981,2.9418,3.0557,3.0881,3.1011,3.1166,3.1496,3.1618,3.1934,3.2442,3.2202,3.237,3.3236,3.3188,3.338,3.3909,3.4198,3.4462,3.4775,3.4775,3.4775,3.4775,3.4775,3.4775,3.4775,3.4775,3.4775,3.4775,3.4775,3.4775,3.4775,3.4775,3.4775,3.4751,3.4438,3.4318,3.4342,3.4655,3.4775,3.4775,3.4775,3.4919,3.516,3.5256,3.5569,3.5954,3.5954,3.6314,3.6627,3.6002,3.6242,3.6675,3.6362,3.6651,3.706,3.706,3.706,3.706,3.706,3.73,3.7517,3.7517,3.7757,3.7805,3.718,3.6569,3.615,3.615,3.5177,3.4392,3.4244,3.3182,3.2199,3.1785,3.0668,2.9828,2.9641,2.8976,2.8555,2.8555,2.8398,2.8301,2.8301,2.8301,2.8301,2.8301,2.8301,2.8301,2.8301,2.8301,2.8301,2.8301,2.8301,2.8301,2.8301,2.8301,2.8301,0.0,0.0,0.0,0.0,0.0,0.0,2.7539,2.7339,2.7051,2.6094,2.5898,2.5849,2.5791,2.6552,2.7152,2.7105,2.784,2.8495,2.868,2.9555,3.0215,3.0215,3.1163,3.2006,3.2442,3.2563,3.2803,3.3332,3.3837,3.4294,3.4751,3.4775,3.4775,3.4775,3.4775,3.4775,3.4775,3.4775,3.4775,3.4775,3.4775,3.4775,3.4775,3.4775,3.4775,3.4775,3.4775,3.4775,3.4775,3.4775,3.4775,3.4775,3.4775,3.4775,3.4775,3.4775,3.5087,3.5473,3.5015,3.5521,3.6314,3.6386,3.6723,3.7108,3.7036,3.706,3.7108,3.7108,3.7493,3.7902,3.7902,3.7926,3.7974,3.7974,3.7974,3.7974,3.7974,3.7974,3.7974,3.7974,3.7974,3.7974,3.7814,3.6881,3.6016,3.5558,3.4445,3.3508,3.3061,3.1993,3.123,3.1189,2.9859,2.8984,2.8984,2.8652,2.8437,2.8437,2.8398,2.8359,2.8359,2.832,2.8301,2.8301,2.8301,2.8301,2.8301,2.8301,2.8301,2.8301,2.8301,2.8301,0.0,0.0,0.0,0.0,2.9166,0.0,2.8437,2.8184,2.7842,2.7366,2.7089,2.6772,2.6432,2.6688,2.6832,2.638,2.6668,2.7315,2.8541,2.9555,3.0215,3.0215,3.1494,3.237,3.2491,3.2875,3.3332,3.3814,3.4342,3.4679,3.4775,3.4775,3.4775,3.4775,3.4775,3.4775,3.4775,3.4775,3.4775,3.4775,3.4775,3.4775,3.4775,3.4775,3.4775,3.4775,3.4775,3.4775,3.4775,3.4775,3.4775,3.4775,3.4775,3.4775,3.4775,3.4775,3.4895,3.4967,3.5352,3.5593,3.5833,3.6266,3.6483,3.6483,3.605,3.6218,3.6555,3.6555,3.694,3.7348,3.7348,3.7661,3.7974,3.7974,3.7974,3.7974,3.7974,3.7974,3.7974,3.7974,3.7974,3.7708,3.6719,3.634,3.5859,3.4814,3.3647,3.2748,3.2266,3.1167,3.0317,2.998,2.9659,2.9453,2.9453,2.9375,2.9372,2.9372,2.8984,2.8789,2.8789,2.8476,2.8301,2.8301,2.8301,2.8301,2.8301,2.8301,2.8301,2.8301,2.8301,2.8301,0.0,0.0,0.0,2.9704,2.9642,0.0,0.0,2.8635,2.8411,2.7882,2.747,2.7149,2.6878,2.6754,2.6592,2.6352,2.6304,2.6653,2.7558,2.8693,2.9576,2.9823,3.1434,3.2707,3.3212,3.3501,3.3885,3.4342,3.4631,3.4775,3.4775,3.4775,3.4775,3.4775,3.4775,3.4775,3.4775,3.4775,3.4775,3.4775,3.4775,3.4775,3.4775,3.4775,3.4775,3.4775,3.4775,3.4775,3.4775,3.4775,3.4775,3.4775,3.4775,3.4775,3.4775,3.4775,3.4943,3.5232,3.5232,3.5569,3.6002,3.6002,3.6194,3.6314,3.5785,3.5809,3.6002,3.6002,3.6579,3.7204,3.7204,3.7589,3.7974,3.7974,3.7974,3.7974,3.7974,3.7974,3.7974,3.7974,3.7974,3.7601,3.6394,3.6177,3.5795,3.4558,3.3888,3.3487,3.3231,3.2143,3.1345,3.118,3.0396,2.9883,2.9883,2.9744,2.9626,2.9626,2.9355,2.9238,2.9238,2.9043,2.8926,2.8926,2.8926,2.8828,2.8613,2.8613,2.8496,2.8301,2.8301,2.8301,0.0,0.0,2.9994,2.9994,2.9994,2.9838,0.0,0.0,0.0,2.83,2.7884,0.0,0.0,0.0,0.0,2.6633,0.0,0.0,0.0,2.786,0.0,2.9245,3.139,3.3023,3.3601,3.3983,3.4318,3.4751,3.4775,3.4775,3.4775,3.4775,3.4775,3.4775,3.4775,3.4775,3.4775,3.4775,3.4775,3.4775,3.4775,3.4775,3.4775,3.4775,3.4775,3.4775,3.4775,3.4775,3.4775,3.4775,3.4775,3.4775,3.4775,3.4775,3.4775,3.4775,3.5039,3.54,3.4919,3.54,3.605,3.5713,3.5905,3.6146,3.5617,3.5473,3.5473,3.5473,3.6218,3.7036,3.7036,3.7517,3.7974,3.7974,3.7974,3.7974,3.7974,3.7974,3.7921,3.7708,3.7655,3.7334,3.634,3.6177,3.574,3.428,3.4056,3.4,3.3776,3.2892,3.2342,3.2342,3.116,3.0332,3.0332,3.0019,2.9824,2.9824,2.9746,2.9744,2.9744,2.9609,2.9626,2.9626,2.9626,2.9394,2.9043,2.9043,2.8789,2.8301,2.8301,2.8301,0.0,2.9994,2.9994,2.9994,2.9994,2.9973,2.988,0.0,2.9735,2.9229,0.0,0.0,0.0,0.0,0.0,0.0,0.0,0.0,2.6677,2.7896,2.8817,2.8653,3.1718,3.3506,3.2637,3.3859,3.4703,3.4823,3.4775,3.4775,3.4775,3.4775,3.4775,3.4775,3.4775,3.4775,3.4775,3.4775,3.4775,3.4775,3.4775,3.4775,3.4775,3.4775,3.4775,3.4775,3.4775,3.4775,3.4775,3.4775,3.4775,3.4775,3.4775,3.4775,3.4775,3.4775,3.4823,3.4847,3.4799,3.4847,3.5064,3.5497,3.5665,3.5617,3.5039,3.4871,3.4871,3.4871,3.5689,3.6483,3.6483,3.7228,3.7974,3.7974,3.7974,3.7974,3.7974,3.7974,3.7655,3.6611,3.6394,3.634,3.6231,3.6177,3.5466,3.3254,3.2913,3.2514,3.146,3.117,3.1112,3.1112,3.0956,3.082,3.082,3.0762,3.0742,3.0742,3.0351,3.0137,3.0137,2.9766,2.9626,2.9626,2.9626,2.9551,2.9492,2.9492,2.9082,2.8301,2.8301,2.8301,0.0,0.0,3.0785,3.0151,2.9994,2.9994,2.9994,2.9994,2.9932,2.9746,0.0,0.0,0.0,0.0,0.0,0.0,2.8061,0.0,0.0,0.0,2.9513,2.9212,3.1475,3.3262,3.3761,3.3826,3.4115,3.4726,3.4775,3.4775,3.4775,3.4775,3.4775,3.4775,3.4775,3.4775,3.4775,3.4775,3.4775,3.4775,3.4775,3.4775,3.4775,3.4775,3.4775,3.4775,3.4775,3.4775,3.4775,3.4775,3.4775,3.4775,3.4775,3.4775,3.4775,3.4775,3.4775,3.4775,3.4775,3.4775,3.4823,3.5039,3.5376,3.5521,3.4943,3.504,3.5232,3.4871,3.5593,3.6411,3.6411,3.718,3.7974,3.7974,3.7974,3.7974,3.7974,3.7974,3.7655,3.6449,3.6177,3.5959,3.5278,3.4614,3.3572,3.1903,3.1672,3.146,3.0957,3.0898,3.0898,3.0898,3.0898,3.0898,3.0898,3.0898,3.0898,3.0898,3.0703,3.0605,3.0605,3.043,3.0332,3.0332,3.0332,3.0195,2.9941,2.9941,2.9629,2.9043,2.9043,2.9043,3.1094,3.1249,3.1483,3.0991,3.0651,3.0495,3.0806,3.0651,3.0443,3.0443,2.9932,0.0,0.0,0.0,0.0,0.0,0.0,2.8717,0.0,2.9464,0.0,0.0,0.0,3.286,3.4629,3.4115,3.3967,3.4726,3.4775,3.4775,3.4775,3.4775,3.4775,3.4775,3.4775,3.4775,3.4775,3.4775,3.4775,3.4775,3.4775,3.4775,3.4775,3.4775,3.4775,3.4775,3.4775,3.4775,3.4775,3.4775,3.4775,3.4775,3.4775,3.4775,3.4775,3.4775,3.4775,3.4775,3.4775,3.4775,3.4775,3.4775,3.5039,3.5352,3.5063,3.5304,3.5569,3.5328,3.593,3.6627,3.6627,3.73,3.7974,3.7974,3.7974,3.7974,3.7974,3.7974,3.7655,3.6449,3.6177,3.574,3.4168,3.3515,3.2742,3.1556,3.1402,3.1286,3.0937,3.0898,3.0898,3.0898,3.0898,3.0898,3.0898,3.0898,3.0898,3.0898,3.0898,3.0898,3.0898,3.0898,3.0898,3.0898,3.0898,3.0723,3.0391,3.0391,3.0234,2.9922,2.9687,2.9626,3.3101,3.2348,3.1819,3.2851,3.2348,3.1841,3.2851,3.2297,3.1534,3.1534,3.0733,2.9973,0.0,0.0,0.0,0.0,0.0,0.0,0.0,0.0,0.0,0.0,0.0,3.2476,3.458,3.4775,3.4775,3.4775,3.4775,3.4775,3.4775,3.4775,3.4775,3.4775,3.4775,3.4775,3.4775,3.4775,3.4775,3.4775,3.4775,3.4775,3.4775,3.4775,3.4775,3.4775,3.4775,3.4775,3.4775,3.4775,3.4775,3.4775,3.4775,3.4775,3.4775,3.4775,3.4775,3.4775,3.4775,3.4775,3.4775,3.4775,3.4799,3.4895,3.5449,3.5593,3.5713,3.6218,3.6747,3.7156,3.7156,3.7565,3.7974,3.7974,3.7974,3.7974,3.7974,3.7974,3.7655,3.6449,3.6177,3.5466,3.3119,3.3628,3.3944,3.2799,3.2628,3.2248,3.1054,3.0898,3.0898,3.0898,3.0898,3.0898,3.0898,3.0898,3.0898,3.0898,3.0898,3.0898,3.0898,3.0898,3.0898,3.0898,3.0898,3.0879,3.0859,3.0859,3.0859,3.082,2.998,2.9626,3.34,3.3426,3.3624,3.33,3.2376,3.1891,3.2951,3.2398,3.1586,3.1586,3.1891,3.171,0.0,0.0,0.0,0.0,0.0,0.0,0.0,0.0,0.0,0.0,0.0,3.0297,3.2499,3.2022,3.2174,3.3598,3.377,3.4066,3.4775,3.4775,3.4775,3.4775,3.4775,3.4775,3.4775,3.4775,3.4775,3.4775,3.4775,3.4775,3.4775,3.4775,3.4775,3.4775,3.4775,3.4775,3.4775,3.4775,3.4775,3.4775,3.4775,3.4775,3.4775,3.4775,3.4775,3.4775,3.4775,3.4775,3.4775,3.4775,3.5015,3.5328,3.5136,3.5593,3.6098,3.593,3.6507,3.7204,3.7204,3.7589,3.7974,3.7974,3.7974,3.7974,3.7974,3.7974,3.7655,3.6449,3.6177,3.5466,3.3063,3.3006,3.2856,3.1672,3.1498,3.1344,3.0937,3.0898,3.0898,3.0898,3.0898,3.0898,3.0898,3.0898,3.0898,3.0898,3.0898,3.0898,3.0898,3.0898,3.0898,3.0898,3.0898,3.0898,3.0898,3.0898,3.0898,3.0879,3.0586,3.0449,3.4532,3.4581,3.4727,3.4434,3.3525,3.3028,3.4091,3.3525,3.2728,3.2728,3.2678,3.2196,0.0,0.0,0.0,0.0,0.0,0.0,0.0,2.9784,0.0,0.0,0.0,0.0,0.0,3.0949,3.1103,3.2549,3.3001,3.3499,3.4164,3.458,3.4775,3.4775,3.4775,3.4775,3.4775,3.4775,3.4775,3.4775,3.4775,3.4775,3.4775,3.4775,3.4775,3.4775,3.4775,3.4775,3.4775,3.4775,3.4775,3.4775,3.4775,3.4775,3.4775,3.4775,3.4775,3.4775,3.4775,3.4775,3.4775,3.4775,3.5015,3.5304,3.516,3.5713,3.629,3.5761,3.6507,3.7397,3.7012,3.7445,3.7974,3.7974,3.7974,3.7974,3.7974,3.7974,3.7761,3.6989,3.6827,3.6231,3.4302,3.3572,3.2742,3.1112,3.0898,3.0898,3.0898,3.0898,3.0898,3.0898,3.0898,3.0898,3.0898,3.0898,3.0898,3.0898,3.0898,3.0898,3.0898,3.0898,3.0898,3.0898,3.0898,3.0898,3.0898,3.0898,3.0898,3.0898,3.0898,3.0898]}]]